<?xml version="1.0" encoding="UTF-8" standalone="yes"?>
<gpx
 xmlns="http://www.topografix.com/GPX/1/1"
 creator="OziExplorer Version 3956f - http://www.oziexplorer.com"
 version="1.1"
 xmlns:xsi="http://www.w3.org/2001/XMLSchema-instance"
 xsi:schemaLocation="http://www.topografix.com/GPX/1/1 http://www.topografix.com/GPX/1/1/gpx.xsd">
<metadata>
 <time>2018-06-20T06:20:07Z</time>
 <bounds minlat="31.898053" minlon="34.935465" maxlat="31.951870" maxlon="34.975751"/>
</metadata>
<trk>
 <name>BenShemen27km.jipovki</name>
 <desc>BenShemen27km.jipovki</desc>
<trkseg>
<trkpt lat="31.9487328" lon="34.9391747">
<ele>127.000000</ele>
<time>2010-01-01T00:00:00.000Z</time>
</trkpt>
<trkpt lat="31.9488517" lon="34.9391435">
<ele>125.000000</ele>
<time>2010-01-01T00:00:04.000Z</time>
</trkpt>
<trkpt lat="31.9489432" lon="34.9390444">
<ele>123.000000</ele>
<time>2010-01-01T00:00:09.000Z</time>
</trkpt>
<trkpt lat="31.9489896" lon="34.9389148">
<ele>123.000000</ele>
<time>2010-01-01T00:00:14.000Z</time>
</trkpt>
<trkpt lat="31.9490267" lon="34.9387776">
<ele>122.000008</ele>
<time>2010-01-01T00:00:19.000Z</time>
</trkpt>
<trkpt lat="31.9490296" lon="34.9386442">
<ele>122.000008</ele>
<time>2010-01-01T00:00:24.000Z</time>
</trkpt>
<trkpt lat="31.9489998" lon="34.9385426">
<ele>122.000008</ele>
<time>2010-01-01T00:00:27.000Z</time>
</trkpt>
<trkpt lat="31.9489388" lon="34.9384529">
<ele>122.000008</ele>
<time>2010-01-01T00:00:31.000Z</time>
</trkpt>
<trkpt lat="31.9488477" lon="34.9383530">
<ele>123.000000</ele>
<time>2010-01-01T00:00:36.000Z</time>
</trkpt>
<trkpt lat="31.9487544" lon="34.9382583">
<ele>124.000000</ele>
<time>2010-01-01T00:00:41.000Z</time>
</trkpt>
<trkpt lat="31.9486485" lon="34.9381776">
<ele>125.000000</ele>
<time>2010-01-01T00:00:46.000Z</time>
</trkpt>
<trkpt lat="31.9485381" lon="34.9380852">
<ele>125.000000</ele>
<time>2010-01-01T00:00:51.000Z</time>
</trkpt>
<trkpt lat="31.9484503" lon="34.9380181">
<ele>125.000000</ele>
<time>2010-01-01T00:00:56.000Z</time>
</trkpt>
<trkpt lat="31.9483527" lon="34.9379468">
<ele>126.000000</ele>
<time>2010-01-01T00:01:00.000Z</time>
</trkpt>
<trkpt lat="31.9482439" lon="34.9378817">
<ele>125.000000</ele>
<time>2010-01-01T00:01:05.000Z</time>
</trkpt>
<trkpt lat="31.9481255" lon="34.9378331">
<ele>124.000000</ele>
<time>2010-01-01T00:01:10.000Z</time>
</trkpt>
<trkpt lat="31.9480050" lon="34.9377650">
<ele>123.000000</ele>
<time>2010-01-01T00:01:16.000Z</time>
</trkpt>
<trkpt lat="31.9478799" lon="34.9377379">
<ele>122.000008</ele>
<time>2010-01-01T00:01:21.000Z</time>
</trkpt>
<trkpt lat="31.9477584" lon="34.9376651">
<ele>122.000008</ele>
<time>2010-01-01T00:01:26.000Z</time>
</trkpt>
<trkpt lat="31.9476680" lon="34.9376277">
<ele>121.000000</ele>
<time>2010-01-01T00:01:30.000Z</time>
</trkpt>
<trkpt lat="31.9475461" lon="34.9376407">
<ele>122.000008</ele>
<time>2010-01-01T00:01:35.000Z</time>
</trkpt>
<trkpt lat="31.9474447" lon="34.9376038">
<ele>121.000000</ele>
<time>2010-01-01T00:01:39.000Z</time>
</trkpt>
<trkpt lat="31.9473286" lon="34.9376051">
<ele>120.000000</ele>
<time>2010-01-01T00:01:44.000Z</time>
</trkpt>
<trkpt lat="31.9472352" lon="34.9376340">
<ele>120.000000</ele>
<time>2010-01-01T00:01:48.000Z</time>
</trkpt>
<trkpt lat="31.9471364" lon="34.9377066">
<ele>120.000000</ele>
<time>2010-01-01T00:01:52.000Z</time>
</trkpt>
<trkpt lat="31.9470453" lon="34.9377715">
<ele>121.000000</ele>
<time>2010-01-01T00:01:56.000Z</time>
</trkpt>
<trkpt lat="31.9469661" lon="34.9378491">
<ele>122.000008</ele>
<time>2010-01-01T00:02:01.000Z</time>
</trkpt>
<trkpt lat="31.9469044" lon="34.9379464">
<ele>122.000008</ele>
<time>2010-01-01T00:02:05.000Z</time>
</trkpt>
<trkpt lat="31.9468515" lon="34.9380403">
<ele>122.000008</ele>
<time>2010-01-01T00:02:09.000Z</time>
</trkpt>
<trkpt lat="31.9468133" lon="34.9381608">
<ele>123.000000</ele>
<time>2010-01-01T00:02:13.000Z</time>
</trkpt>
<trkpt lat="31.9467758" lon="34.9382616">
<ele>123.000000</ele>
<time>2010-01-01T00:02:17.000Z</time>
</trkpt>
<trkpt lat="31.9467562" lon="34.9383845">
<ele>124.000000</ele>
<time>2010-01-01T00:02:21.000Z</time>
</trkpt>
<trkpt lat="31.9466983" lon="34.9384742">
<ele>124.000000</ele>
<time>2010-01-01T00:02:25.000Z</time>
</trkpt>
<trkpt lat="31.9466046" lon="34.9385630">
<ele>125.000000</ele>
<time>2010-01-01T00:02:30.000Z</time>
</trkpt>
<trkpt lat="31.9465014" lon="34.9386328">
<ele>126.000000</ele>
<time>2010-01-01T00:02:34.000Z</time>
</trkpt>
<trkpt lat="31.9464005" lon="34.9386280">
<ele>126.000000</ele>
<time>2010-01-01T00:02:38.000Z</time>
</trkpt>
<trkpt lat="31.9463041" lon="34.9385942">
<ele>125.000000</ele>
<time>2010-01-01T00:02:42.000Z</time>
</trkpt>
<trkpt lat="31.9462038" lon="34.9385670">
<ele>125.000000</ele>
<time>2010-01-01T00:02:47.000Z</time>
</trkpt>
<trkpt lat="31.9461178" lon="34.9384835">
<ele>123.000000</ele>
<time>2010-01-01T00:02:51.000Z</time>
</trkpt>
<trkpt lat="31.9460160" lon="34.9384352">
<ele>123.000000</ele>
<time>2010-01-01T00:02:55.000Z</time>
</trkpt>
<trkpt lat="31.9459027" lon="34.9383938">
<ele>123.000000</ele>
<time>2010-01-01T00:03:00.000Z</time>
</trkpt>
<trkpt lat="31.9458010" lon="34.9383357">
<ele>124.000000</ele>
<time>2010-01-01T00:03:05.000Z</time>
</trkpt>
<trkpt lat="31.9457005" lon="34.9382618">
<ele>125.000000</ele>
<time>2010-01-01T00:03:09.000Z</time>
</trkpt>
<trkpt lat="31.9456029" lon="34.9381890">
<ele>125.000000</ele>
<time>2010-01-01T00:03:14.000Z</time>
</trkpt>
<trkpt lat="31.9455091" lon="34.9381084">
<ele>125.000000</ele>
<time>2010-01-01T00:03:19.000Z</time>
</trkpt>
<trkpt lat="31.9454242" lon="34.9380165">
<ele>123.000000</ele>
<time>2010-01-01T00:03:23.000Z</time>
</trkpt>
<trkpt lat="31.9453213" lon="34.9379485">
<ele>122.000008</ele>
<time>2010-01-01T00:03:28.000Z</time>
</trkpt>
<trkpt lat="31.9452132" lon="34.9379028">
<ele>120.000000</ele>
<time>2010-01-01T00:03:33.000Z</time>
</trkpt>
<trkpt lat="31.9451061" lon="34.9378928">
<ele>120.000000</ele>
<time>2010-01-01T00:03:37.000Z</time>
</trkpt>
<trkpt lat="31.9450001" lon="34.9378877">
<ele>119.000000</ele>
<time>2010-01-01T00:03:41.000Z</time>
</trkpt>
<trkpt lat="31.9449036" lon="34.9378863">
<ele>118.000000</ele>
<time>2010-01-01T00:03:45.000Z</time>
</trkpt>
<trkpt lat="31.9447938" lon="34.9378778">
<ele>116.000000</ele>
<time>2010-01-01T00:03:49.000Z</time>
</trkpt>
<trkpt lat="31.9446863" lon="34.9379049">
<ele>116.000000</ele>
<time>2010-01-01T00:03:54.000Z</time>
</trkpt>
<trkpt lat="31.9446194" lon="34.9379842">
<ele>117.000000</ele>
<time>2010-01-01T00:03:58.000Z</time>
</trkpt>
<trkpt lat="31.9445583" lon="34.9380803">
<ele>119.000000</ele>
<time>2010-01-01T00:04:02.000Z</time>
</trkpt>
<trkpt lat="31.9444518" lon="34.9381466">
<ele>119.000000</ele>
<time>2010-01-01T00:04:07.000Z</time>
</trkpt>
<trkpt lat="31.9443847" lon="34.9382738">
<ele>121.000000</ele>
<time>2010-01-01T00:04:12.000Z</time>
</trkpt>
<trkpt lat="31.9443226" lon="34.9383823">
<ele>123.000000</ele>
<time>2010-01-01T00:04:16.000Z</time>
</trkpt>
<trkpt lat="31.9442327" lon="34.9384640">
<ele>124.000000</ele>
<time>2010-01-01T00:04:21.000Z</time>
</trkpt>
<trkpt lat="31.9441440" lon="34.9385612">
<ele>125.000000</ele>
<time>2010-01-01T00:04:25.000Z</time>
</trkpt>
<trkpt lat="31.9440590" lon="34.9386078">
<ele>125.000000</ele>
<time>2010-01-01T00:04:29.000Z</time>
</trkpt>
<trkpt lat="31.9441166" lon="34.9385151">
<ele>124.000000</ele>
<time>2010-01-01T00:04:33.000Z</time>
</trkpt>
<trkpt lat="31.9441270" lon="34.9383751">
<ele>123.000000</ele>
<time>2010-01-01T00:04:38.000Z</time>
</trkpt>
<trkpt lat="31.9441114" lon="34.9382570">
<ele>121.000000</ele>
<time>2010-01-01T00:04:42.000Z</time>
</trkpt>
<trkpt lat="31.9440692" lon="34.9381354">
<ele>118.000000</ele>
<time>2010-01-01T00:04:46.000Z</time>
</trkpt>
<trkpt lat="31.9440200" lon="34.9380108">
<ele>116.000000</ele>
<time>2010-01-01T00:04:51.000Z</time>
</trkpt>
<trkpt lat="31.9439672" lon="34.9378827">
<ele>115.000000</ele>
<time>2010-01-01T00:04:56.000Z</time>
</trkpt>
<trkpt lat="31.9439217" lon="34.9377443">
<ele>112.999992</ele>
<time>2010-01-01T00:05:01.000Z</time>
</trkpt>
<trkpt lat="31.9438843" lon="34.9376086">
<ele>111.000000</ele>
<time>2010-01-01T00:05:06.000Z</time>
</trkpt>
<trkpt lat="31.9438483" lon="34.9374796">
<ele>110.000000</ele>
<time>2010-01-01T00:05:10.000Z</time>
</trkpt>
<trkpt lat="31.9438067" lon="34.9373609">
<ele>109.000000</ele>
<time>2010-01-01T00:05:15.000Z</time>
</trkpt>
<trkpt lat="31.9437599" lon="34.9372571">
<ele>109.000000</ele>
<time>2010-01-01T00:05:19.000Z</time>
</trkpt>
<trkpt lat="31.9437062" lon="34.9371600">
<ele>109.000000</ele>
<time>2010-01-01T00:05:23.000Z</time>
</trkpt>
<trkpt lat="31.9436444" lon="34.9370590">
<ele>109.000000</ele>
<time>2010-01-01T00:05:27.000Z</time>
</trkpt>
<trkpt lat="31.9435803" lon="34.9369559">
<ele>110.000000</ele>
<time>2010-01-01T00:05:31.000Z</time>
</trkpt>
<trkpt lat="31.9435367" lon="34.9368566">
<ele>110.000000</ele>
<time>2010-01-01T00:05:35.000Z</time>
</trkpt>
<trkpt lat="31.9435341" lon="34.9367446">
<ele>109.000000</ele>
<time>2010-01-01T00:05:39.000Z</time>
</trkpt>
<trkpt lat="31.9435577" lon="34.9366202">
<ele>107.000000</ele>
<time>2010-01-01T00:05:43.000Z</time>
</trkpt>
<trkpt lat="31.9435916" lon="34.9364942">
<ele>105.000000</ele>
<time>2010-01-01T00:05:48.000Z</time>
</trkpt>
<trkpt lat="31.9436326" lon="34.9363711">
<ele>103.999992</ele>
<time>2010-01-01T00:05:52.000Z</time>
</trkpt>
<trkpt lat="31.9436568" lon="34.9362442">
<ele>102.000000</ele>
<time>2010-01-01T00:05:57.000Z</time>
</trkpt>
<trkpt lat="31.9436456" lon="34.9361166">
<ele>100.000000</ele>
<time>2010-01-01T00:06:01.000Z</time>
</trkpt>
<trkpt lat="31.9435974" lon="34.9360044">
<ele>99.000000</ele>
<time>2010-01-01T00:06:05.000Z</time>
</trkpt>
<trkpt lat="31.9435403" lon="34.9358930">
<ele>99.000000</ele>
<time>2010-01-01T00:06:10.000Z</time>
</trkpt>
<trkpt lat="31.9434842" lon="34.9357763">
<ele>98.000000</ele>
<time>2010-01-01T00:06:14.000Z</time>
</trkpt>
<trkpt lat="31.9434411" lon="34.9356529">
<ele>96.000000</ele>
<time>2010-01-01T00:06:19.000Z</time>
</trkpt>
<trkpt lat="31.9434066" lon="34.9355507">
<ele>95.000000</ele>
<time>2010-01-01T00:06:22.000Z</time>
</trkpt>
<trkpt lat="31.9433469" lon="34.9354666">
<ele>94.000000</ele>
<time>2010-01-01T00:06:26.000Z</time>
</trkpt>
<trkpt lat="31.9432531" lon="34.9354647">
<ele>95.000000</ele>
<time>2010-01-01T00:06:30.000Z</time>
</trkpt>
<trkpt lat="31.9432306" lon="34.9355796">
<ele>96.999992</ele>
<time>2010-01-01T00:06:34.000Z</time>
</trkpt>
<trkpt lat="31.9432455" lon="34.9356935">
<ele>99.000000</ele>
<time>2010-01-01T00:06:38.000Z</time>
</trkpt>
<trkpt lat="31.9432177" lon="34.9358107">
<ele>102.000000</ele>
<time>2010-01-01T00:06:42.000Z</time>
</trkpt>
<trkpt lat="31.9431346" lon="34.9358803">
<ele>103.999992</ele>
<time>2010-01-01T00:06:46.000Z</time>
</trkpt>
<trkpt lat="31.9430353" lon="34.9359268">
<ele>106.000008</ele>
<time>2010-01-01T00:06:50.000Z</time>
</trkpt>
<trkpt lat="31.9429348" lon="34.9359613">
<ele>108.000000</ele>
<time>2010-01-01T00:06:55.000Z</time>
</trkpt>
<trkpt lat="31.9428415" lon="34.9359781">
<ele>109.000000</ele>
<time>2010-01-01T00:06:58.000Z</time>
</trkpt>
<trkpt lat="31.9427370" lon="34.9359749">
<ele>109.000000</ele>
<time>2010-01-01T00:07:03.000Z</time>
</trkpt>
<trkpt lat="31.9426288" lon="34.9359605">
<ele>109.000000</ele>
<time>2010-01-01T00:07:07.000Z</time>
</trkpt>
<trkpt lat="31.9425245" lon="34.9359331">
<ele>108.000000</ele>
<time>2010-01-01T00:07:11.000Z</time>
</trkpt>
<trkpt lat="31.9424058" lon="34.9358958">
<ele>107.000000</ele>
<time>2010-01-01T00:07:16.000Z</time>
</trkpt>
<trkpt lat="31.9422918" lon="34.9358672">
<ele>107.000000</ele>
<time>2010-01-01T00:07:21.000Z</time>
</trkpt>
<trkpt lat="31.9421961" lon="34.9358625">
<ele>107.000000</ele>
<time>2010-01-01T00:07:25.000Z</time>
</trkpt>
<trkpt lat="31.9420977" lon="34.9358494">
<ele>105.000000</ele>
<time>2010-01-01T00:07:29.000Z</time>
</trkpt>
<trkpt lat="31.9419931" lon="34.9358103">
<ele>103.000000</ele>
<time>2010-01-01T00:07:33.000Z</time>
</trkpt>
<trkpt lat="31.9418963" lon="34.9358029">
<ele>101.000000</ele>
<time>2010-01-01T00:07:37.000Z</time>
</trkpt>
<trkpt lat="31.9418053" lon="34.9358180">
<ele>99.000000</ele>
<time>2010-01-01T00:07:40.000Z</time>
</trkpt>
<trkpt lat="31.9417350" lon="34.9359279">
<ele>99.000000</ele>
<time>2010-01-01T00:07:45.000Z</time>
</trkpt>
<trkpt lat="31.9417047" lon="34.9360517">
<ele>100.000000</ele>
<time>2010-01-01T00:07:50.000Z</time>
</trkpt>
<trkpt lat="31.9416868" lon="34.9361797">
<ele>100.000000</ele>
<time>2010-01-01T00:07:54.000Z</time>
</trkpt>
<trkpt lat="31.9416970" lon="34.9362958">
<ele>101.000000</ele>
<time>2010-01-01T00:07:58.000Z</time>
</trkpt>
<trkpt lat="31.9417624" lon="34.9363886">
<ele>103.999992</ele>
<time>2010-01-01T00:08:02.000Z</time>
</trkpt>
<trkpt lat="31.9418528" lon="34.9364387">
<ele>106.000008</ele>
<time>2010-01-01T00:08:06.000Z</time>
</trkpt>
<trkpt lat="31.9419510" lon="34.9364678">
<ele>108.000000</ele>
<time>2010-01-01T00:08:10.000Z</time>
</trkpt>
<trkpt lat="31.9420442" lon="34.9365072">
<ele>109.000000</ele>
<time>2010-01-01T00:08:14.000Z</time>
</trkpt>
<trkpt lat="31.9421049" lon="34.9365802">
<ele>110.000000</ele>
<time>2010-01-01T00:08:17.000Z</time>
</trkpt>
<trkpt lat="31.9421596" lon="34.9366731">
<ele>111.000000</ele>
<time>2010-01-01T00:08:21.000Z</time>
</trkpt>
<trkpt lat="31.9422012" lon="34.9367723">
<ele>111.000000</ele>
<time>2010-01-01T00:08:25.000Z</time>
</trkpt>
<trkpt lat="31.9422428" lon="34.9368653">
<ele>112.000000</ele>
<time>2010-01-01T00:08:29.000Z</time>
</trkpt>
<trkpt lat="31.9422952" lon="34.9369725">
<ele>112.000000</ele>
<time>2010-01-01T00:08:33.000Z</time>
</trkpt>
<trkpt lat="31.9423381" lon="34.9370737">
<ele>112.999992</ele>
<time>2010-01-01T00:08:37.000Z</time>
</trkpt>
<trkpt lat="31.9423725" lon="34.9371966">
<ele>112.999992</ele>
<time>2010-01-01T00:08:41.000Z</time>
</trkpt>
<trkpt lat="31.9423741" lon="34.9373123">
<ele>114.000000</ele>
<time>2010-01-01T00:08:45.000Z</time>
</trkpt>
<trkpt lat="31.9423023" lon="34.9374067">
<ele>112.999992</ele>
<time>2010-01-01T00:08:49.000Z</time>
</trkpt>
<trkpt lat="31.9421944" lon="34.9374734">
<ele>112.000000</ele>
<time>2010-01-01T00:08:54.000Z</time>
</trkpt>
<trkpt lat="31.9420808" lon="34.9375385">
<ele>112.999992</ele>
<time>2010-01-01T00:08:59.000Z</time>
</trkpt>
<trkpt lat="31.9419666" lon="34.9375894">
<ele>114.000000</ele>
<time>2010-01-01T00:09:04.000Z</time>
</trkpt>
<trkpt lat="31.9418473" lon="34.9376096">
<ele>115.000000</ele>
<time>2010-01-01T00:09:09.000Z</time>
</trkpt>
<trkpt lat="31.9417242" lon="34.9375943">
<ele>114.000000</ele>
<time>2010-01-01T00:09:14.000Z</time>
</trkpt>
<trkpt lat="31.9416339" lon="34.9375660">
<ele>112.999992</ele>
<time>2010-01-01T00:09:18.000Z</time>
</trkpt>
<trkpt lat="31.9415363" lon="34.9375229">
<ele>112.999992</ele>
<time>2010-01-01T00:09:22.000Z</time>
</trkpt>
<trkpt lat="31.9414440" lon="34.9374634">
<ele>111.000000</ele>
<time>2010-01-01T00:09:26.000Z</time>
</trkpt>
<trkpt lat="31.9413546" lon="34.9373486">
<ele>109.000000</ele>
<time>2010-01-01T00:09:31.000Z</time>
</trkpt>
<trkpt lat="31.9412952" lon="34.9372602">
<ele>109.000000</ele>
<time>2010-01-01T00:09:35.000Z</time>
</trkpt>
<trkpt lat="31.9412316" lon="34.9371599">
<ele>108.000000</ele>
<time>2010-01-01T00:09:39.000Z</time>
</trkpt>
<trkpt lat="31.9411563" lon="34.9370464">
<ele>107.000000</ele>
<time>2010-01-01T00:09:44.000Z</time>
</trkpt>
<trkpt lat="31.9410787" lon="34.9369220">
<ele>106.000008</ele>
<time>2010-01-01T00:09:50.000Z</time>
</trkpt>
<trkpt lat="31.9410099" lon="34.9367972">
<ele>103.000000</ele>
<time>2010-01-01T00:09:55.000Z</time>
</trkpt>
<trkpt lat="31.9409466" lon="34.9366762">
<ele>100.000000</ele>
<time>2010-01-01T00:09:59.000Z</time>
</trkpt>
<trkpt lat="31.9408846" lon="34.9365691">
<ele>98.000000</ele>
<time>2010-01-01T00:10:04.000Z</time>
</trkpt>
<trkpt lat="31.9408115" lon="34.9364931">
<ele>96.000000</ele>
<time>2010-01-01T00:10:08.000Z</time>
</trkpt>
<trkpt lat="31.9407225" lon="34.9364283">
<ele>95.000000</ele>
<time>2010-01-01T00:10:12.000Z</time>
</trkpt>
<trkpt lat="31.9406247" lon="34.9363799">
<ele>94.000000</ele>
<time>2010-01-01T00:10:16.000Z</time>
</trkpt>
<trkpt lat="31.9405308" lon="34.9363435">
<ele>94.000000</ele>
<time>2010-01-01T00:10:20.000Z</time>
</trkpt>
<trkpt lat="31.9404370" lon="34.9363089">
<ele>95.000000</ele>
<time>2010-01-01T00:10:24.000Z</time>
</trkpt>
<trkpt lat="31.9403458" lon="34.9362802">
<ele>96.000000</ele>
<time>2010-01-01T00:10:28.000Z</time>
</trkpt>
<trkpt lat="31.9402191" lon="34.9362426">
<ele>96.000000</ele>
<time>2010-01-01T00:10:33.000Z</time>
</trkpt>
<trkpt lat="31.9401029" lon="34.9362187">
<ele>95.000000</ele>
<time>2010-01-01T00:10:38.000Z</time>
</trkpt>
<trkpt lat="31.9400127" lon="34.9362035">
<ele>95.000000</ele>
<time>2010-01-01T00:10:41.000Z</time>
</trkpt>
<trkpt lat="31.9399027" lon="34.9361879">
<ele>93.000000</ele>
<time>2010-01-01T00:10:46.000Z</time>
</trkpt>
<trkpt lat="31.9397994" lon="34.9361750">
<ele>91.000000</ele>
<time>2010-01-01T00:10:50.000Z</time>
</trkpt>
<trkpt lat="31.9396792" lon="34.9361284">
<ele>87.999992</ele>
<time>2010-01-01T00:10:55.000Z</time>
</trkpt>
<trkpt lat="31.9395533" lon="34.9361117">
<ele>87.000000</ele>
<time>2010-01-01T00:11:00.000Z</time>
</trkpt>
<trkpt lat="31.9394569" lon="34.9361151">
<ele>86.000000</ele>
<time>2010-01-01T00:11:04.000Z</time>
</trkpt>
<trkpt lat="31.9393553" lon="34.9361250">
<ele>84.000000</ele>
<time>2010-01-01T00:11:08.000Z</time>
</trkpt>
<trkpt lat="31.9392593" lon="34.9361415">
<ele>83.000000</ele>
<time>2010-01-01T00:11:12.000Z</time>
</trkpt>
<trkpt lat="31.9391725" lon="34.9361819">
<ele>82.000000</ele>
<time>2010-01-01T00:11:16.000Z</time>
</trkpt>
<trkpt lat="31.9390992" lon="34.9362462">
<ele>80.999992</ele>
<time>2010-01-01T00:11:19.000Z</time>
</trkpt>
<trkpt lat="31.9390371" lon="34.9363771">
<ele>82.000000</ele>
<time>2010-01-01T00:11:25.000Z</time>
</trkpt>
<trkpt lat="31.9390141" lon="34.9364793">
<ele>82.000000</ele>
<time>2010-01-01T00:11:28.000Z</time>
</trkpt>
<trkpt lat="31.9389990" lon="34.9365845">
<ele>82.000000</ele>
<time>2010-01-01T00:11:32.000Z</time>
</trkpt>
<trkpt lat="31.9389767" lon="34.9367396">
<ele>83.000000</ele>
<time>2010-01-01T00:11:37.000Z</time>
</trkpt>
<trkpt lat="31.9389556" lon="34.9368964">
<ele>83.000000</ele>
<time>2010-01-01T00:11:42.000Z</time>
</trkpt>
<trkpt lat="31.9389419" lon="34.9370507">
<ele>83.000000</ele>
<time>2010-01-01T00:11:48.000Z</time>
</trkpt>
<trkpt lat="31.9389280" lon="34.9372066">
<ele>84.000000</ele>
<time>2010-01-01T00:11:53.000Z</time>
</trkpt>
<trkpt lat="31.9389089" lon="34.9373623">
<ele>84.000000</ele>
<time>2010-01-01T00:11:58.000Z</time>
</trkpt>
<trkpt lat="31.9389069" lon="34.9375203">
<ele>84.000000</ele>
<time>2010-01-01T00:12:04.000Z</time>
</trkpt>
<trkpt lat="31.9389102" lon="34.9376707">
<ele>84.000000</ele>
<time>2010-01-01T00:12:09.000Z</time>
</trkpt>
<trkpt lat="31.9389226" lon="34.9378168">
<ele>85.000000</ele>
<time>2010-01-01T00:12:14.000Z</time>
</trkpt>
<trkpt lat="31.9389371" lon="34.9379531">
<ele>85.000000</ele>
<time>2010-01-01T00:12:19.000Z</time>
</trkpt>
<trkpt lat="31.9389535" lon="34.9380778">
<ele>85.000000</ele>
<time>2010-01-01T00:12:23.000Z</time>
</trkpt>
<trkpt lat="31.9389719" lon="34.9381936">
<ele>86.000000</ele>
<time>2010-01-01T00:12:27.000Z</time>
</trkpt>
<trkpt lat="31.9389827" lon="34.9383066">
<ele>86.000000</ele>
<time>2010-01-01T00:12:31.000Z</time>
</trkpt>
<trkpt lat="31.9389960" lon="34.9384542">
<ele>87.000000</ele>
<time>2010-01-01T00:12:36.000Z</time>
</trkpt>
<trkpt lat="31.9390125" lon="34.9385946">
<ele>87.000000</ele>
<time>2010-01-01T00:12:41.000Z</time>
</trkpt>
<trkpt lat="31.9390175" lon="34.9387066">
<ele>87.000000</ele>
<time>2010-01-01T00:12:44.000Z</time>
</trkpt>
<trkpt lat="31.9390201" lon="34.9388249">
<ele>87.000000</ele>
<time>2010-01-01T00:12:48.000Z</time>
</trkpt>
<trkpt lat="31.9390268" lon="34.9389475">
<ele>87.000000</ele>
<time>2010-01-01T00:12:53.000Z</time>
</trkpt>
<trkpt lat="31.9390399" lon="34.9390808">
<ele>86.000000</ele>
<time>2010-01-01T00:12:57.000Z</time>
</trkpt>
<trkpt lat="31.9390723" lon="34.9392258">
<ele>86.000000</ele>
<time>2010-01-01T00:13:02.000Z</time>
</trkpt>
<trkpt lat="31.9391073" lon="34.9393215">
<ele>85.000000</ele>
<time>2010-01-01T00:13:06.000Z</time>
</trkpt>
<trkpt lat="31.9391705" lon="34.9394663">
<ele>84.000000</ele>
<time>2010-01-01T00:13:11.000Z</time>
</trkpt>
<trkpt lat="31.9392172" lon="34.9395637">
<ele>85.000000</ele>
<time>2010-01-01T00:13:15.000Z</time>
</trkpt>
<trkpt lat="31.9392688" lon="34.9396624">
<ele>85.000000</ele>
<time>2010-01-01T00:13:19.000Z</time>
</trkpt>
<trkpt lat="31.9393089" lon="34.9397780">
<ele>84.000000</ele>
<time>2010-01-01T00:13:23.000Z</time>
</trkpt>
<trkpt lat="31.9393354" lon="34.9398985">
<ele>84.000000</ele>
<time>2010-01-01T00:13:27.000Z</time>
</trkpt>
<trkpt lat="31.9393589" lon="34.9400296">
<ele>83.000000</ele>
<time>2010-01-01T00:13:32.000Z</time>
</trkpt>
<trkpt lat="31.9393716" lon="34.9401676">
<ele>83.000000</ele>
<time>2010-01-01T00:13:37.000Z</time>
</trkpt>
<trkpt lat="31.9393758" lon="34.9403150">
<ele>83.000000</ele>
<time>2010-01-01T00:13:42.000Z</time>
</trkpt>
<trkpt lat="31.9393756" lon="34.9404620">
<ele>83.000000</ele>
<time>2010-01-01T00:13:47.000Z</time>
</trkpt>
<trkpt lat="31.9393752" lon="34.9406075">
<ele>83.000000</ele>
<time>2010-01-01T00:13:52.000Z</time>
</trkpt>
<trkpt lat="31.9393680" lon="34.9407481">
<ele>84.000000</ele>
<time>2010-01-01T00:13:56.000Z</time>
</trkpt>
<trkpt lat="31.9393676" lon="34.9408798">
<ele>84.000000</ele>
<time>2010-01-01T00:14:01.000Z</time>
</trkpt>
<trkpt lat="31.9393728" lon="34.9409914">
<ele>85.000000</ele>
<time>2010-01-01T00:14:05.000Z</time>
</trkpt>
<trkpt lat="31.9393722" lon="34.9411339">
<ele>86.000000</ele>
<time>2010-01-01T00:14:10.000Z</time>
</trkpt>
<trkpt lat="31.9393709" lon="34.9412679">
<ele>87.000000</ele>
<time>2010-01-01T00:14:14.000Z</time>
</trkpt>
<trkpt lat="31.9393602" lon="34.9413863">
<ele>87.999992</ele>
<time>2010-01-01T00:14:18.000Z</time>
</trkpt>
<trkpt lat="31.9393368" lon="34.9415035">
<ele>89.000000</ele>
<time>2010-01-01T00:14:22.000Z</time>
</trkpt>
<trkpt lat="31.9393164" lon="34.9416195">
<ele>90.000008</ele>
<time>2010-01-01T00:14:26.000Z</time>
</trkpt>
<trkpt lat="31.9393038" lon="34.9417385">
<ele>91.000000</ele>
<time>2010-01-01T00:14:30.000Z</time>
</trkpt>
<trkpt lat="31.9392885" lon="34.9418476">
<ele>92.000000</ele>
<time>2010-01-01T00:14:34.000Z</time>
</trkpt>
<trkpt lat="31.9392723" lon="34.9419616">
<ele>93.000000</ele>
<time>2010-01-01T00:14:38.000Z</time>
</trkpt>
<trkpt lat="31.9392523" lon="34.9420807">
<ele>94.000000</ele>
<time>2010-01-01T00:14:42.000Z</time>
</trkpt>
<trkpt lat="31.9392409" lon="34.9421985">
<ele>94.000000</ele>
<time>2010-01-01T00:14:46.000Z</time>
</trkpt>
<trkpt lat="31.9392299" lon="34.9423149">
<ele>94.000000</ele>
<time>2010-01-01T00:14:50.000Z</time>
</trkpt>
<trkpt lat="31.9392225" lon="34.9424525">
<ele>94.000000</ele>
<time>2010-01-01T00:14:55.000Z</time>
</trkpt>
<trkpt lat="31.9392259" lon="34.9425783">
<ele>94.000000</ele>
<time>2010-01-01T00:14:59.000Z</time>
</trkpt>
<trkpt lat="31.9392437" lon="34.9426982">
<ele>94.000000</ele>
<time>2010-01-01T00:15:03.000Z</time>
</trkpt>
<trkpt lat="31.9392585" lon="34.9428186">
<ele>94.000000</ele>
<time>2010-01-01T00:15:07.000Z</time>
</trkpt>
<trkpt lat="31.9392698" lon="34.9429372">
<ele>95.000000</ele>
<time>2010-01-01T00:15:11.000Z</time>
</trkpt>
<trkpt lat="31.9392789" lon="34.9430617">
<ele>95.000000</ele>
<time>2010-01-01T00:15:16.000Z</time>
</trkpt>
<trkpt lat="31.9392829" lon="34.9431866">
<ele>95.000000</ele>
<time>2010-01-01T00:15:20.000Z</time>
</trkpt>
<trkpt lat="31.9392944" lon="34.9433297">
<ele>95.000000</ele>
<time>2010-01-01T00:15:25.000Z</time>
</trkpt>
<trkpt lat="31.9393047" lon="34.9434826">
<ele>95.000000</ele>
<time>2010-01-01T00:15:30.000Z</time>
</trkpt>
<trkpt lat="31.9393101" lon="34.9436310">
<ele>96.000000</ele>
<time>2010-01-01T00:15:35.000Z</time>
</trkpt>
<trkpt lat="31.9393098" lon="34.9437815">
<ele>96.000000</ele>
<time>2010-01-01T00:15:40.000Z</time>
</trkpt>
<trkpt lat="31.9393046" lon="34.9439354">
<ele>96.000000</ele>
<time>2010-01-01T00:15:45.000Z</time>
</trkpt>
<trkpt lat="31.9393104" lon="34.9440875">
<ele>96.000000</ele>
<time>2010-01-01T00:15:51.000Z</time>
</trkpt>
<trkpt lat="31.9393187" lon="34.9442262">
<ele>96.000000</ele>
<time>2010-01-01T00:15:55.000Z</time>
</trkpt>
<trkpt lat="31.9393262" lon="34.9443521">
<ele>96.000000</ele>
<time>2010-01-01T00:16:00.000Z</time>
</trkpt>
<trkpt lat="31.9393269" lon="34.9444730">
<ele>96.000000</ele>
<time>2010-01-01T00:16:04.000Z</time>
</trkpt>
<trkpt lat="31.9393248" lon="34.9445963">
<ele>96.000000</ele>
<time>2010-01-01T00:16:08.000Z</time>
</trkpt>
<trkpt lat="31.9393198" lon="34.9447299">
<ele>96.000000</ele>
<time>2010-01-01T00:16:12.000Z</time>
</trkpt>
<trkpt lat="31.9393241" lon="34.9448742">
<ele>96.000000</ele>
<time>2010-01-01T00:16:17.000Z</time>
</trkpt>
<trkpt lat="31.9393360" lon="34.9450145">
<ele>96.000000</ele>
<time>2010-01-01T00:16:22.000Z</time>
</trkpt>
<trkpt lat="31.9393409" lon="34.9451639">
<ele>96.000000</ele>
<time>2010-01-01T00:16:27.000Z</time>
</trkpt>
<trkpt lat="31.9393303" lon="34.9452718">
<ele>96.000000</ele>
<time>2010-01-01T00:16:31.000Z</time>
</trkpt>
<trkpt lat="31.9392997" lon="34.9453732">
<ele>96.000000</ele>
<time>2010-01-01T00:16:35.000Z</time>
</trkpt>
<trkpt lat="31.9392531" lon="34.9454729">
<ele>95.000000</ele>
<time>2010-01-01T00:16:38.000Z</time>
</trkpt>
<trkpt lat="31.9391867" lon="34.9455611">
<ele>95.000000</ele>
<time>2010-01-01T00:16:42.000Z</time>
</trkpt>
<trkpt lat="31.9391073" lon="34.9456424">
<ele>94.000000</ele>
<time>2010-01-01T00:16:47.000Z</time>
</trkpt>
<trkpt lat="31.9390188" lon="34.9457306">
<ele>94.000000</ele>
<time>2010-01-01T00:16:51.000Z</time>
</trkpt>
<trkpt lat="31.9389315" lon="34.9458356">
<ele>93.000000</ele>
<time>2010-01-01T00:16:56.000Z</time>
</trkpt>
<trkpt lat="31.9388502" lon="34.9459635">
<ele>93.000000</ele>
<time>2010-01-01T00:17:02.000Z</time>
</trkpt>
<trkpt lat="31.9387610" lon="34.9460881">
<ele>92.000000</ele>
<time>2010-01-01T00:17:07.000Z</time>
</trkpt>
<trkpt lat="31.9386653" lon="34.9462086">
<ele>92.000000</ele>
<time>2010-01-01T00:17:13.000Z</time>
</trkpt>
<trkpt lat="31.9385685" lon="34.9463257">
<ele>91.000000</ele>
<time>2010-01-01T00:17:18.000Z</time>
</trkpt>
<trkpt lat="31.9384699" lon="34.9464204">
<ele>90.000008</ele>
<time>2010-01-01T00:17:24.000Z</time>
</trkpt>
<trkpt lat="31.9383639" lon="34.9465097">
<ele>89.000000</ele>
<time>2010-01-01T00:17:29.000Z</time>
</trkpt>
<trkpt lat="31.9383186" lon="34.9466301">
<ele>87.999992</ele>
<time>2010-01-01T00:17:33.000Z</time>
</trkpt>
<trkpt lat="31.9383013" lon="34.9467530">
<ele>87.999992</ele>
<time>2010-01-01T00:17:37.000Z</time>
</trkpt>
<trkpt lat="31.9382958" lon="34.9468717">
<ele>89.000000</ele>
<time>2010-01-01T00:17:41.000Z</time>
</trkpt>
<trkpt lat="31.9382976" lon="34.9469810">
<ele>89.000000</ele>
<time>2010-01-01T00:17:45.000Z</time>
</trkpt>
<trkpt lat="31.9382955" lon="34.9470881">
<ele>90.000008</ele>
<time>2010-01-01T00:17:49.000Z</time>
</trkpt>
<trkpt lat="31.9382581" lon="34.9471877">
<ele>91.000000</ele>
<time>2010-01-01T00:17:53.000Z</time>
</trkpt>
<trkpt lat="31.9381876" lon="34.9472845">
<ele>92.000000</ele>
<time>2010-01-01T00:17:57.000Z</time>
</trkpt>
<trkpt lat="31.9381396" lon="34.9473721">
<ele>93.000000</ele>
<time>2010-01-01T00:18:00.000Z</time>
</trkpt>
<trkpt lat="31.9380819" lon="34.9474526">
<ele>95.000000</ele>
<time>2010-01-01T00:18:04.000Z</time>
</trkpt>
<trkpt lat="31.9380132" lon="34.9475363">
<ele>96.999992</ele>
<time>2010-01-01T00:18:08.000Z</time>
</trkpt>
<trkpt lat="31.9379611" lon="34.9476311">
<ele>98.000000</ele>
<time>2010-01-01T00:18:12.000Z</time>
</trkpt>
<trkpt lat="31.9378973" lon="34.9477078">
<ele>100.000000</ele>
<time>2010-01-01T00:18:15.000Z</time>
</trkpt>
<trkpt lat="31.9378503" lon="34.9478019">
<ele>101.000000</ele>
<time>2010-01-01T00:18:19.000Z</time>
</trkpt>
<trkpt lat="31.9377826" lon="34.9478888">
<ele>103.000000</ele>
<time>2010-01-01T00:18:23.000Z</time>
</trkpt>
<trkpt lat="31.9377396" lon="34.9479937">
<ele>103.999992</ele>
<time>2010-01-01T00:18:27.000Z</time>
</trkpt>
<trkpt lat="31.9376754" lon="34.9480724">
<ele>105.000000</ele>
<time>2010-01-01T00:18:31.000Z</time>
</trkpt>
<trkpt lat="31.9376283" lon="34.9481698">
<ele>107.000000</ele>
<time>2010-01-01T00:18:35.000Z</time>
</trkpt>
<trkpt lat="31.9375573" lon="34.9482537">
<ele>108.000000</ele>
<time>2010-01-01T00:18:39.000Z</time>
</trkpt>
<trkpt lat="31.9374701" lon="34.9483139">
<ele>109.000000</ele>
<time>2010-01-01T00:18:43.000Z</time>
</trkpt>
<trkpt lat="31.9373866" lon="34.9483759">
<ele>110.000000</ele>
<time>2010-01-01T00:18:47.000Z</time>
</trkpt>
<trkpt lat="31.9373097" lon="34.9484503">
<ele>111.000000</ele>
<time>2010-01-01T00:18:51.000Z</time>
</trkpt>
<trkpt lat="31.9372535" lon="34.9485447">
<ele>111.000000</ele>
<time>2010-01-01T00:18:55.000Z</time>
</trkpt>
<trkpt lat="31.9371986" lon="34.9486450">
<ele>112.000000</ele>
<time>2010-01-01T00:18:59.000Z</time>
</trkpt>
<trkpt lat="31.9371860" lon="34.9487699">
<ele>112.999992</ele>
<time>2010-01-01T00:19:03.000Z</time>
</trkpt>
<trkpt lat="31.9371980" lon="34.9489012">
<ele>112.999992</ele>
<time>2010-01-01T00:19:07.000Z</time>
</trkpt>
<trkpt lat="31.9371887" lon="34.9490191">
<ele>112.999992</ele>
<time>2010-01-01T00:19:11.000Z</time>
</trkpt>
<trkpt lat="31.9371733" lon="34.9491255">
<ele>114.000000</ele>
<time>2010-01-01T00:19:15.000Z</time>
</trkpt>
<trkpt lat="31.9371658" lon="34.9492322">
<ele>115.000000</ele>
<time>2010-01-01T00:19:19.000Z</time>
</trkpt>
<trkpt lat="31.9371096" lon="34.9493320">
<ele>116.000000</ele>
<time>2010-01-01T00:19:23.000Z</time>
</trkpt>
<trkpt lat="31.9370114" lon="34.9493799">
<ele>117.000000</ele>
<time>2010-01-01T00:19:27.000Z</time>
</trkpt>
<trkpt lat="31.9369194" lon="34.9493964">
<ele>119.000000</ele>
<time>2010-01-01T00:19:31.000Z</time>
</trkpt>
<trkpt lat="31.9368242" lon="34.9493790">
<ele>119.000000</ele>
<time>2010-01-01T00:19:35.000Z</time>
</trkpt>
<trkpt lat="31.9367287" lon="34.9493582">
<ele>120.000000</ele>
<time>2010-01-01T00:19:38.000Z</time>
</trkpt>
<trkpt lat="31.9366421" lon="34.9493245">
<ele>120.000000</ele>
<time>2010-01-01T00:19:42.000Z</time>
</trkpt>
<trkpt lat="31.9365483" lon="34.9492858">
<ele>120.000000</ele>
<time>2010-01-01T00:19:46.000Z</time>
</trkpt>
<trkpt lat="31.9364529" lon="34.9492555">
<ele>120.000000</ele>
<time>2010-01-01T00:19:50.000Z</time>
</trkpt>
<trkpt lat="31.9363545" lon="34.9492276">
<ele>119.000000</ele>
<time>2010-01-01T00:19:54.000Z</time>
</trkpt>
<trkpt lat="31.9362409" lon="34.9491932">
<ele>119.000000</ele>
<time>2010-01-01T00:19:59.000Z</time>
</trkpt>
<trkpt lat="31.9361512" lon="34.9492500">
<ele>118.000000</ele>
<time>2010-01-01T00:20:03.000Z</time>
</trkpt>
<trkpt lat="31.9361166" lon="34.9493485">
<ele>119.000000</ele>
<time>2010-01-01T00:20:07.000Z</time>
</trkpt>
<trkpt lat="31.9361016" lon="34.9494816">
<ele>119.000000</ele>
<time>2010-01-01T00:20:11.000Z</time>
</trkpt>
<trkpt lat="31.9360815" lon="34.9496059">
<ele>119.000000</ele>
<time>2010-01-01T00:20:15.000Z</time>
</trkpt>
<trkpt lat="31.9360501" lon="34.9497152">
<ele>119.000000</ele>
<time>2010-01-01T00:20:19.000Z</time>
</trkpt>
<trkpt lat="31.9360095" lon="34.9498287">
<ele>120.000000</ele>
<time>2010-01-01T00:20:23.000Z</time>
</trkpt>
<trkpt lat="31.9359697" lon="34.9499446">
<ele>121.000000</ele>
<time>2010-01-01T00:20:28.000Z</time>
</trkpt>
<trkpt lat="31.9359176" lon="34.9500425">
<ele>122.000008</ele>
<time>2010-01-01T00:20:32.000Z</time>
</trkpt>
<trkpt lat="31.9358535" lon="34.9501528">
<ele>124.000000</ele>
<time>2010-01-01T00:20:36.000Z</time>
</trkpt>
<trkpt lat="31.9357726" lon="34.9502601">
<ele>124.000000</ele>
<time>2010-01-01T00:20:41.000Z</time>
</trkpt>
<trkpt lat="31.9357101" lon="34.9503807">
<ele>124.000000</ele>
<time>2010-01-01T00:20:46.000Z</time>
</trkpt>
<trkpt lat="31.9356507" lon="34.9504957">
<ele>124.000000</ele>
<time>2010-01-01T00:20:50.000Z</time>
</trkpt>
<trkpt lat="31.9356050" lon="34.9505917">
<ele>124.000000</ele>
<time>2010-01-01T00:20:54.000Z</time>
</trkpt>
<trkpt lat="31.9355388" lon="34.9507009">
<ele>124.000000</ele>
<time>2010-01-01T00:20:59.000Z</time>
</trkpt>
<trkpt lat="31.9354811" lon="34.9507851">
<ele>124.000000</ele>
<time>2010-01-01T00:21:02.000Z</time>
</trkpt>
<trkpt lat="31.9353950" lon="34.9508856">
<ele>124.000000</ele>
<time>2010-01-01T00:21:07.000Z</time>
</trkpt>
<trkpt lat="31.9353165" lon="34.9509673">
<ele>124.000000</ele>
<time>2010-01-01T00:21:11.000Z</time>
</trkpt>
<trkpt lat="31.9352358" lon="34.9510594">
<ele>124.000000</ele>
<time>2010-01-01T00:21:16.000Z</time>
</trkpt>
<trkpt lat="31.9351697" lon="34.9511766">
<ele>125.000000</ele>
<time>2010-01-01T00:21:21.000Z</time>
</trkpt>
<trkpt lat="31.9351461" lon="34.9512894">
<ele>127.000000</ele>
<time>2010-01-01T00:21:25.000Z</time>
</trkpt>
<trkpt lat="31.9351330" lon="34.9514162">
<ele>129.000000</ele>
<time>2010-01-01T00:21:29.000Z</time>
</trkpt>
<trkpt lat="31.9351235" lon="34.9515396">
<ele>130.000000</ele>
<time>2010-01-01T00:21:33.000Z</time>
</trkpt>
<trkpt lat="31.9350993" lon="34.9516710">
<ele>130.000000</ele>
<time>2010-01-01T00:21:38.000Z</time>
</trkpt>
<trkpt lat="31.9350829" lon="34.9517947">
<ele>131.000000</ele>
<time>2010-01-01T00:21:42.000Z</time>
</trkpt>
<trkpt lat="31.9350673" lon="34.9519173">
<ele>131.000000</ele>
<time>2010-01-01T00:21:46.000Z</time>
</trkpt>
<trkpt lat="31.9350448" lon="34.9520347">
<ele>132.000000</ele>
<time>2010-01-01T00:21:50.000Z</time>
</trkpt>
<trkpt lat="31.9350140" lon="34.9521583">
<ele>132.000000</ele>
<time>2010-01-01T00:21:55.000Z</time>
</trkpt>
<trkpt lat="31.9349845" lon="34.9522810">
<ele>133.000000</ele>
<time>2010-01-01T00:21:59.000Z</time>
</trkpt>
<trkpt lat="31.9349549" lon="34.9523923">
<ele>134.000000</ele>
<time>2010-01-01T00:22:03.000Z</time>
</trkpt>
<trkpt lat="31.9349242" lon="34.9524985">
<ele>135.000000</ele>
<time>2010-01-01T00:22:07.000Z</time>
</trkpt>
<trkpt lat="31.9348586" lon="34.9525817">
<ele>135.000000</ele>
<time>2010-01-01T00:22:11.000Z</time>
</trkpt>
<trkpt lat="31.9347501" lon="34.9526304">
<ele>136.000000</ele>
<time>2010-01-01T00:22:15.000Z</time>
</trkpt>
<trkpt lat="31.9346382" lon="34.9526534">
<ele>137.000000</ele>
<time>2010-01-01T00:22:20.000Z</time>
</trkpt>
<trkpt lat="31.9345435" lon="34.9526734">
<ele>137.000000</ele>
<time>2010-01-01T00:22:24.000Z</time>
</trkpt>
<trkpt lat="31.9344276" lon="34.9527000">
<ele>138.000000</ele>
<time>2010-01-01T00:22:28.000Z</time>
</trkpt>
<trkpt lat="31.9342948" lon="34.9527364">
<ele>137.000000</ele>
<time>2010-01-01T00:22:34.000Z</time>
</trkpt>
<trkpt lat="31.9341996" lon="34.9527661">
<ele>137.000000</ele>
<time>2010-01-01T00:22:38.000Z</time>
</trkpt>
<trkpt lat="31.9341050" lon="34.9528157">
<ele>136.000000</ele>
<time>2010-01-01T00:22:42.000Z</time>
</trkpt>
<trkpt lat="31.9340258" lon="34.9528718">
<ele>135.000000</ele>
<time>2010-01-01T00:22:46.000Z</time>
</trkpt>
<trkpt lat="31.9339349" lon="34.9529761">
<ele>135.000000</ele>
<time>2010-01-01T00:22:51.000Z</time>
</trkpt>
<trkpt lat="31.9338487" lon="34.9530699">
<ele>135.000000</ele>
<time>2010-01-01T00:22:55.000Z</time>
</trkpt>
<trkpt lat="31.9337430" lon="34.9531341">
<ele>135.000000</ele>
<time>2010-01-01T00:23:00.000Z</time>
</trkpt>
<trkpt lat="31.9336251" lon="34.9531833">
<ele>134.000000</ele>
<time>2010-01-01T00:23:05.000Z</time>
</trkpt>
<trkpt lat="31.9335198" lon="34.9532237">
<ele>135.000000</ele>
<time>2010-01-01T00:23:10.000Z</time>
</trkpt>
<trkpt lat="31.9334221" lon="34.9532536">
<ele>135.000000</ele>
<time>2010-01-01T00:23:14.000Z</time>
</trkpt>
<trkpt lat="31.9333095" lon="34.9532638">
<ele>135.000000</ele>
<time>2010-01-01T00:23:18.000Z</time>
</trkpt>
<trkpt lat="31.9332069" lon="34.9532669">
<ele>136.000000</ele>
<time>2010-01-01T00:23:22.000Z</time>
</trkpt>
<trkpt lat="31.9331003" lon="34.9532712">
<ele>136.000000</ele>
<time>2010-01-01T00:23:27.000Z</time>
</trkpt>
<trkpt lat="31.9329950" lon="34.9532732">
<ele>136.000000</ele>
<time>2010-01-01T00:23:31.000Z</time>
</trkpt>
<trkpt lat="31.9328885" lon="34.9532748">
<ele>136.000000</ele>
<time>2010-01-01T00:23:35.000Z</time>
</trkpt>
<trkpt lat="31.9327786" lon="34.9532758">
<ele>135.000000</ele>
<time>2010-01-01T00:23:39.000Z</time>
</trkpt>
<trkpt lat="31.9326600" lon="34.9532717">
<ele>135.000000</ele>
<time>2010-01-01T00:23:44.000Z</time>
</trkpt>
<trkpt lat="31.9325680" lon="34.9532503">
<ele>135.000000</ele>
<time>2010-01-01T00:23:48.000Z</time>
</trkpt>
<trkpt lat="31.9324872" lon="34.9531832">
<ele>135.000000</ele>
<time>2010-01-01T00:23:52.000Z</time>
</trkpt>
<trkpt lat="31.9324142" lon="34.9530992">
<ele>135.000000</ele>
<time>2010-01-01T00:23:56.000Z</time>
</trkpt>
<trkpt lat="31.9323428" lon="34.9530049">
<ele>135.000000</ele>
<time>2010-01-01T00:24:00.000Z</time>
</trkpt>
<trkpt lat="31.9322671" lon="34.9529080">
<ele>135.000000</ele>
<time>2010-01-01T00:24:05.000Z</time>
</trkpt>
<trkpt lat="31.9321839" lon="34.9528122">
<ele>136.000000</ele>
<time>2010-01-01T00:24:09.000Z</time>
</trkpt>
<trkpt lat="31.9321005" lon="34.9527107">
<ele>136.000000</ele>
<time>2010-01-01T00:24:14.000Z</time>
</trkpt>
<trkpt lat="31.9320023" lon="34.9526208">
<ele>136.000000</ele>
<time>2010-01-01T00:24:19.000Z</time>
</trkpt>
<trkpt lat="31.9318947" lon="34.9525414">
<ele>136.000000</ele>
<time>2010-01-01T00:24:24.000Z</time>
</trkpt>
<trkpt lat="31.9317860" lon="34.9524799">
<ele>137.000000</ele>
<time>2010-01-01T00:24:29.000Z</time>
</trkpt>
<trkpt lat="31.9316966" lon="34.9524076">
<ele>137.000000</ele>
<time>2010-01-01T00:24:33.000Z</time>
</trkpt>
<trkpt lat="31.9316185" lon="34.9523255">
<ele>137.000000</ele>
<time>2010-01-01T00:24:38.000Z</time>
</trkpt>
<trkpt lat="31.9315254" lon="34.9522699">
<ele>137.000000</ele>
<time>2010-01-01T00:24:42.000Z</time>
</trkpt>
<trkpt lat="31.9314329" lon="34.9522542">
<ele>137.000000</ele>
<time>2010-01-01T00:24:46.000Z</time>
</trkpt>
<trkpt lat="31.9313309" lon="34.9522842">
<ele>138.000000</ele>
<time>2010-01-01T00:24:50.000Z</time>
</trkpt>
<trkpt lat="31.9312348" lon="34.9523095">
<ele>138.000000</ele>
<time>2010-01-01T00:24:54.000Z</time>
</trkpt>
<trkpt lat="31.9311379" lon="34.9523283">
<ele>139.000000</ele>
<time>2010-01-01T00:24:58.000Z</time>
</trkpt>
<trkpt lat="31.9310303" lon="34.9523272">
<ele>140.000000</ele>
<time>2010-01-01T00:25:02.000Z</time>
</trkpt>
<trkpt lat="31.9309340" lon="34.9523180">
<ele>141.000000</ele>
<time>2010-01-01T00:25:06.000Z</time>
</trkpt>
<trkpt lat="31.9308517" lon="34.9523640">
<ele>142.000000</ele>
<time>2010-01-01T00:25:10.000Z</time>
</trkpt>
<trkpt lat="31.9307553" lon="34.9523693">
<ele>143.000000</ele>
<time>2010-01-01T00:25:13.000Z</time>
</trkpt>
<trkpt lat="31.9306661" lon="34.9523192">
<ele>144.000000</ele>
<time>2010-01-01T00:25:17.000Z</time>
</trkpt>
<trkpt lat="31.9305623" lon="34.9523284">
<ele>145.000000</ele>
<time>2010-01-01T00:25:21.000Z</time>
</trkpt>
<trkpt lat="31.9304586" lon="34.9523407">
<ele>145.000000</ele>
<time>2010-01-01T00:25:26.000Z</time>
</trkpt>
<trkpt lat="31.9303517" lon="34.9523574">
<ele>146.000000</ele>
<time>2010-01-01T00:25:30.000Z</time>
</trkpt>
<trkpt lat="31.9302620" lon="34.9523850">
<ele>147.000000</ele>
<time>2010-01-01T00:25:34.000Z</time>
</trkpt>
<trkpt lat="31.9301640" lon="34.9524195">
<ele>148.000000</ele>
<time>2010-01-01T00:25:38.000Z</time>
</trkpt>
<trkpt lat="31.9300708" lon="34.9524470">
<ele>149.000000</ele>
<time>2010-01-01T00:25:42.000Z</time>
</trkpt>
<trkpt lat="31.9299706" lon="34.9524496">
<ele>150.000000</ele>
<time>2010-01-01T00:25:46.000Z</time>
</trkpt>
<trkpt lat="31.9298679" lon="34.9524552">
<ele>151.000000</ele>
<time>2010-01-01T00:25:50.000Z</time>
</trkpt>
<trkpt lat="31.9297655" lon="34.9524598">
<ele>152.000000</ele>
<time>2010-01-01T00:25:54.000Z</time>
</trkpt>
<trkpt lat="31.9296731" lon="34.9524561">
<ele>152.000000</ele>
<time>2010-01-01T00:25:58.000Z</time>
</trkpt>
<trkpt lat="31.9295880" lon="34.9524933">
<ele>153.000000</ele>
<time>2010-01-01T00:26:01.000Z</time>
</trkpt>
<trkpt lat="31.9295168" lon="34.9525661">
<ele>153.000000</ele>
<time>2010-01-01T00:26:05.000Z</time>
</trkpt>
<trkpt lat="31.9294785" lon="34.9526760">
<ele>154.000000</ele>
<time>2010-01-01T00:26:09.000Z</time>
</trkpt>
<trkpt lat="31.9294358" lon="34.9527911">
<ele>155.000000</ele>
<time>2010-01-01T00:26:13.000Z</time>
</trkpt>
<trkpt lat="31.9294053" lon="34.9529037">
<ele>155.000000</ele>
<time>2010-01-01T00:26:17.000Z</time>
</trkpt>
<trkpt lat="31.9293836" lon="34.9530312">
<ele>155.000000</ele>
<time>2010-01-01T00:26:22.000Z</time>
</trkpt>
<trkpt lat="31.9294061" lon="34.9531760">
<ele>155.000000</ele>
<time>2010-01-01T00:26:27.000Z</time>
</trkpt>
<trkpt lat="31.9294117" lon="34.9533100">
<ele>155.000000</ele>
<time>2010-01-01T00:26:31.000Z</time>
</trkpt>
<trkpt lat="31.9293822" lon="34.9534640">
<ele>154.000000</ele>
<time>2010-01-01T00:26:37.000Z</time>
</trkpt>
<trkpt lat="31.9293555" lon="34.9535870">
<ele>153.000000</ele>
<time>2010-01-01T00:26:41.000Z</time>
</trkpt>
<trkpt lat="31.9292994" lon="34.9537069">
<ele>152.000000</ele>
<time>2010-01-01T00:26:46.000Z</time>
</trkpt>
<trkpt lat="31.9292345" lon="34.9537897">
<ele>151.000000</ele>
<time>2010-01-01T00:26:49.000Z</time>
</trkpt>
<trkpt lat="31.9291625" lon="34.9538903">
<ele>150.000000</ele>
<time>2010-01-01T00:26:54.000Z</time>
</trkpt>
<trkpt lat="31.9291024" lon="34.9540041">
<ele>149.000000</ele>
<time>2010-01-01T00:26:58.000Z</time>
</trkpt>
<trkpt lat="31.9290700" lon="34.9541231">
<ele>148.000000</ele>
<time>2010-01-01T00:27:03.000Z</time>
</trkpt>
<trkpt lat="31.9290563" lon="34.9542324">
<ele>148.000000</ele>
<time>2010-01-01T00:27:06.000Z</time>
</trkpt>
<trkpt lat="31.9290206" lon="34.9543595">
<ele>147.000000</ele>
<time>2010-01-01T00:27:11.000Z</time>
</trkpt>
<trkpt lat="31.9289288" lon="34.9544827">
<ele>147.000000</ele>
<time>2010-01-01T00:27:17.000Z</time>
</trkpt>
<trkpt lat="31.9288671" lon="34.9545870">
<ele>146.000000</ele>
<time>2010-01-01T00:27:21.000Z</time>
</trkpt>
<trkpt lat="31.9287999" lon="34.9546886">
<ele>145.000000</ele>
<time>2010-01-01T00:27:25.000Z</time>
</trkpt>
<trkpt lat="31.9287330" lon="34.9547960">
<ele>144.000000</ele>
<time>2010-01-01T00:27:30.000Z</time>
</trkpt>
<trkpt lat="31.9286713" lon="34.9549043">
<ele>143.000000</ele>
<time>2010-01-01T00:27:34.000Z</time>
</trkpt>
<trkpt lat="31.9286211" lon="34.9549957">
<ele>142.000000</ele>
<time>2010-01-01T00:27:38.000Z</time>
</trkpt>
<trkpt lat="31.9285534" lon="34.9550732">
<ele>140.000000</ele>
<time>2010-01-01T00:27:42.000Z</time>
</trkpt>
<trkpt lat="31.9284466" lon="34.9550189">
<ele>138.000000</ele>
<time>2010-01-01T00:27:46.000Z</time>
</trkpt>
<trkpt lat="31.9283842" lon="34.9549223">
<ele>138.000000</ele>
<time>2010-01-01T00:27:50.000Z</time>
</trkpt>
<trkpt lat="31.9283353" lon="34.9548144">
<ele>137.000000</ele>
<time>2010-01-01T00:27:55.000Z</time>
</trkpt>
<trkpt lat="31.9283071" lon="34.9546986">
<ele>137.000000</ele>
<time>2010-01-01T00:27:59.000Z</time>
</trkpt>
<trkpt lat="31.9282564" lon="34.9545828">
<ele>137.000000</ele>
<time>2010-01-01T00:28:03.000Z</time>
</trkpt>
<trkpt lat="31.9281753" lon="34.9544569">
<ele>136.000000</ele>
<time>2010-01-01T00:28:09.000Z</time>
</trkpt>
<trkpt lat="31.9281169" lon="34.9543731">
<ele>136.000000</ele>
<time>2010-01-01T00:28:12.000Z</time>
</trkpt>
<trkpt lat="31.9280357" lon="34.9542573">
<ele>136.000000</ele>
<time>2010-01-01T00:28:17.000Z</time>
</trkpt>
<trkpt lat="31.9279606" lon="34.9541614">
<ele>136.000000</ele>
<time>2010-01-01T00:28:22.000Z</time>
</trkpt>
<trkpt lat="31.9278930" lon="34.9540662">
<ele>137.000000</ele>
<time>2010-01-01T00:28:26.000Z</time>
</trkpt>
<trkpt lat="31.9278103" lon="34.9539725">
<ele>136.000000</ele>
<time>2010-01-01T00:28:31.000Z</time>
</trkpt>
<trkpt lat="31.9277385" lon="34.9538585">
<ele>136.000000</ele>
<time>2010-01-01T00:28:35.000Z</time>
</trkpt>
<trkpt lat="31.9276545" lon="34.9537389">
<ele>136.000000</ele>
<time>2010-01-01T00:28:41.000Z</time>
</trkpt>
<trkpt lat="31.9275671" lon="34.9536677">
<ele>135.000000</ele>
<time>2010-01-01T00:28:45.000Z</time>
</trkpt>
<trkpt lat="31.9274591" lon="34.9535987">
<ele>134.000000</ele>
<time>2010-01-01T00:28:50.000Z</time>
</trkpt>
<trkpt lat="31.9273403" lon="34.9535306">
<ele>133.000000</ele>
<time>2010-01-01T00:28:55.000Z</time>
</trkpt>
<trkpt lat="31.9272174" lon="34.9534616">
<ele>133.000000</ele>
<time>2010-01-01T00:29:01.000Z</time>
</trkpt>
<trkpt lat="31.9270940" lon="34.9533949">
<ele>132.000000</ele>
<time>2010-01-01T00:29:06.000Z</time>
</trkpt>
<trkpt lat="31.9269675" lon="34.9533351">
<ele>132.000000</ele>
<time>2010-01-01T00:29:11.000Z</time>
</trkpt>
<trkpt lat="31.9268400" lon="34.9532855">
<ele>131.000000</ele>
<time>2010-01-01T00:29:17.000Z</time>
</trkpt>
<trkpt lat="31.9267150" lon="34.9532500">
<ele>130.000000</ele>
<time>2010-01-01T00:29:22.000Z</time>
</trkpt>
<trkpt lat="31.9265858" lon="34.9532450">
<ele>129.000000</ele>
<time>2010-01-01T00:29:27.000Z</time>
</trkpt>
<trkpt lat="31.9264561" lon="34.9532694">
<ele>128.000000</ele>
<time>2010-01-01T00:29:32.000Z</time>
</trkpt>
<trkpt lat="31.9263254" lon="34.9533235">
<ele>126.000000</ele>
<time>2010-01-01T00:29:38.000Z</time>
</trkpt>
<trkpt lat="31.9261885" lon="34.9533891">
<ele>125.000000</ele>
<time>2010-01-01T00:29:44.000Z</time>
</trkpt>
<trkpt lat="31.9260550" lon="34.9534526">
<ele>124.000000</ele>
<time>2010-01-01T00:29:50.000Z</time>
</trkpt>
<trkpt lat="31.9259274" lon="34.9535086">
<ele>123.000000</ele>
<time>2010-01-01T00:29:55.000Z</time>
</trkpt>
<trkpt lat="31.9257985" lon="34.9535501">
<ele>122.000008</ele>
<time>2010-01-01T00:30:00.000Z</time>
</trkpt>
<trkpt lat="31.9256805" lon="34.9535555">
<ele>121.000000</ele>
<time>2010-01-01T00:30:05.000Z</time>
</trkpt>
<trkpt lat="31.9255763" lon="34.9535276">
<ele>120.000000</ele>
<time>2010-01-01T00:30:09.000Z</time>
</trkpt>
<trkpt lat="31.9254852" lon="34.9534846">
<ele>120.000000</ele>
<time>2010-01-01T00:30:13.000Z</time>
</trkpt>
<trkpt lat="31.9253852" lon="34.9534504">
<ele>119.000000</ele>
<time>2010-01-01T00:30:18.000Z</time>
</trkpt>
<trkpt lat="31.9253138" lon="34.9533794">
<ele>119.000000</ele>
<time>2010-01-01T00:30:21.000Z</time>
</trkpt>
<trkpt lat="31.9252887" lon="34.9532603">
<ele>119.000000</ele>
<time>2010-01-01T00:30:25.000Z</time>
</trkpt>
<trkpt lat="31.9252619" lon="34.9531290">
<ele>118.000000</ele>
<time>2010-01-01T00:30:30.000Z</time>
</trkpt>
<trkpt lat="31.9252391" lon="34.9529648">
<ele>118.000000</ele>
<time>2010-01-01T00:30:36.000Z</time>
</trkpt>
<trkpt lat="31.9252250" lon="34.9528453">
<ele>118.000000</ele>
<time>2010-01-01T00:30:40.000Z</time>
</trkpt>
<trkpt lat="31.9252119" lon="34.9527225">
<ele>118.000000</ele>
<time>2010-01-01T00:30:44.000Z</time>
</trkpt>
<trkpt lat="31.9251974" lon="34.9525952">
<ele>117.000000</ele>
<time>2010-01-01T00:30:48.000Z</time>
</trkpt>
<trkpt lat="31.9251808" lon="34.9524631">
<ele>117.000000</ele>
<time>2010-01-01T00:30:53.000Z</time>
</trkpt>
<trkpt lat="31.9251633" lon="34.9523273">
<ele>117.000000</ele>
<time>2010-01-01T00:30:58.000Z</time>
</trkpt>
<trkpt lat="31.9251495" lon="34.9521902">
<ele>117.000000</ele>
<time>2010-01-01T00:31:02.000Z</time>
</trkpt>
<trkpt lat="31.9251350" lon="34.9520544">
<ele>116.000000</ele>
<time>2010-01-01T00:31:07.000Z</time>
</trkpt>
<trkpt lat="31.9251177" lon="34.9519169">
<ele>116.000000</ele>
<time>2010-01-01T00:31:12.000Z</time>
</trkpt>
<trkpt lat="31.9250960" lon="34.9517788">
<ele>116.000000</ele>
<time>2010-01-01T00:31:16.000Z</time>
</trkpt>
<trkpt lat="31.9250737" lon="34.9516398">
<ele>115.000000</ele>
<time>2010-01-01T00:31:21.000Z</time>
</trkpt>
<trkpt lat="31.9250520" lon="34.9515050">
<ele>115.000000</ele>
<time>2010-01-01T00:31:26.000Z</time>
</trkpt>
<trkpt lat="31.9250235" lon="34.9513745">
<ele>114.000000</ele>
<time>2010-01-01T00:31:30.000Z</time>
</trkpt>
<trkpt lat="31.9250034" lon="34.9512479">
<ele>115.000000</ele>
<time>2010-01-01T00:31:35.000Z</time>
</trkpt>
<trkpt lat="31.9249918" lon="34.9511233">
<ele>115.000000</ele>
<time>2010-01-01T00:31:39.000Z</time>
</trkpt>
<trkpt lat="31.9249736" lon="34.9510054">
<ele>114.000000</ele>
<time>2010-01-01T00:31:43.000Z</time>
</trkpt>
<trkpt lat="31.9249538" lon="34.9508854">
<ele>114.000000</ele>
<time>2010-01-01T00:31:47.000Z</time>
</trkpt>
<trkpt lat="31.9249327" lon="34.9507604">
<ele>114.000000</ele>
<time>2010-01-01T00:31:52.000Z</time>
</trkpt>
<trkpt lat="31.9249075" lon="34.9506324">
<ele>114.000000</ele>
<time>2010-01-01T00:31:56.000Z</time>
</trkpt>
<trkpt lat="31.9248826" lon="34.9505065">
<ele>112.999992</ele>
<time>2010-01-01T00:32:00.000Z</time>
</trkpt>
<trkpt lat="31.9248625" lon="34.9503817">
<ele>112.999992</ele>
<time>2010-01-01T00:32:05.000Z</time>
</trkpt>
<trkpt lat="31.9248468" lon="34.9502608">
<ele>112.000000</ele>
<time>2010-01-01T00:32:09.000Z</time>
</trkpt>
<trkpt lat="31.9248349" lon="34.9501444">
<ele>112.000000</ele>
<time>2010-01-01T00:32:13.000Z</time>
</trkpt>
<trkpt lat="31.9248294" lon="34.9500316">
<ele>111.000000</ele>
<time>2010-01-01T00:32:17.000Z</time>
</trkpt>
<trkpt lat="31.9248288" lon="34.9499171">
<ele>111.000000</ele>
<time>2010-01-01T00:32:21.000Z</time>
</trkpt>
<trkpt lat="31.9248272" lon="34.9497973">
<ele>111.000000</ele>
<time>2010-01-01T00:32:25.000Z</time>
</trkpt>
<trkpt lat="31.9248245" lon="34.9496735">
<ele>110.000000</ele>
<time>2010-01-01T00:32:29.000Z</time>
</trkpt>
<trkpt lat="31.9248212" lon="34.9495486">
<ele>111.000000</ele>
<time>2010-01-01T00:32:33.000Z</time>
</trkpt>
<trkpt lat="31.9248138" lon="34.9494250">
<ele>111.000000</ele>
<time>2010-01-01T00:32:37.000Z</time>
</trkpt>
<trkpt lat="31.9248054" lon="34.9493048">
<ele>110.000000</ele>
<time>2010-01-01T00:32:41.000Z</time>
</trkpt>
<trkpt lat="31.9247904" lon="34.9491907">
<ele>110.000000</ele>
<time>2010-01-01T00:32:45.000Z</time>
</trkpt>
<trkpt lat="31.9247616" lon="34.9490868">
<ele>110.000000</ele>
<time>2010-01-01T00:32:49.000Z</time>
</trkpt>
<trkpt lat="31.9246681" lon="34.9489831">
<ele>109.000000</ele>
<time>2010-01-01T00:32:54.000Z</time>
</trkpt>
<trkpt lat="31.9245775" lon="34.9490022">
<ele>108.000000</ele>
<time>2010-01-01T00:32:58.000Z</time>
</trkpt>
<trkpt lat="31.9244954" lon="34.9490541">
<ele>108.000000</ele>
<time>2010-01-01T00:33:02.000Z</time>
</trkpt>
<trkpt lat="31.9244196" lon="34.9491212">
<ele>107.000000</ele>
<time>2010-01-01T00:33:05.000Z</time>
</trkpt>
<trkpt lat="31.9243559" lon="34.9491992">
<ele>107.000000</ele>
<time>2010-01-01T00:33:09.000Z</time>
</trkpt>
<trkpt lat="31.9242910" lon="34.9492767">
<ele>107.000000</ele>
<time>2010-01-01T00:33:13.000Z</time>
</trkpt>
<trkpt lat="31.9242193" lon="34.9493480">
<ele>107.000000</ele>
<time>2010-01-01T00:33:17.000Z</time>
</trkpt>
<trkpt lat="31.9241406" lon="34.9494110">
<ele>107.000000</ele>
<time>2010-01-01T00:33:20.000Z</time>
</trkpt>
<trkpt lat="31.9240584" lon="34.9494681">
<ele>108.000000</ele>
<time>2010-01-01T00:33:24.000Z</time>
</trkpt>
<trkpt lat="31.9239754" lon="34.9495193">
<ele>108.000000</ele>
<time>2010-01-01T00:33:28.000Z</time>
</trkpt>
<trkpt lat="31.9238864" lon="34.9495622">
<ele>108.000000</ele>
<time>2010-01-01T00:33:32.000Z</time>
</trkpt>
<trkpt lat="31.9237975" lon="34.9495987">
<ele>109.000000</ele>
<time>2010-01-01T00:33:36.000Z</time>
</trkpt>
<trkpt lat="31.9236701" lon="34.9496491">
<ele>109.000000</ele>
<time>2010-01-01T00:33:41.000Z</time>
</trkpt>
<trkpt lat="31.9235456" lon="34.9496893">
<ele>109.000000</ele>
<time>2010-01-01T00:33:46.000Z</time>
</trkpt>
<trkpt lat="31.9234225" lon="34.9497425">
<ele>109.000000</ele>
<time>2010-01-01T00:33:51.000Z</time>
</trkpt>
<trkpt lat="31.9233138" lon="34.9498060">
<ele>109.000000</ele>
<time>2010-01-01T00:33:56.000Z</time>
</trkpt>
<trkpt lat="31.9232250" lon="34.9498589">
<ele>110.000000</ele>
<time>2010-01-01T00:34:00.000Z</time>
</trkpt>
<trkpt lat="31.9231253" lon="34.9498393">
<ele>110.000000</ele>
<time>2010-01-01T00:34:04.000Z</time>
</trkpt>
<trkpt lat="31.9230314" lon="34.9498009">
<ele>110.000000</ele>
<time>2010-01-01T00:34:08.000Z</time>
</trkpt>
<trkpt lat="31.9229396" lon="34.9497738">
<ele>111.000000</ele>
<time>2010-01-01T00:34:12.000Z</time>
</trkpt>
<trkpt lat="31.9228521" lon="34.9497438">
<ele>112.000000</ele>
<time>2010-01-01T00:34:16.000Z</time>
</trkpt>
<trkpt lat="31.9227470" lon="34.9497181">
<ele>114.000000</ele>
<time>2010-01-01T00:34:20.000Z</time>
</trkpt>
<trkpt lat="31.9226465" lon="34.9497080">
<ele>115.000000</ele>
<time>2010-01-01T00:34:24.000Z</time>
</trkpt>
<trkpt lat="31.9225404" lon="34.9497171">
<ele>115.000000</ele>
<time>2010-01-01T00:34:28.000Z</time>
</trkpt>
<trkpt lat="31.9224368" lon="34.9497639">
<ele>115.000000</ele>
<time>2010-01-01T00:34:33.000Z</time>
</trkpt>
<trkpt lat="31.9223429" lon="34.9498277">
<ele>115.000000</ele>
<time>2010-01-01T00:34:37.000Z</time>
</trkpt>
<trkpt lat="31.9222609" lon="34.9498765">
<ele>115.000000</ele>
<time>2010-01-01T00:34:41.000Z</time>
</trkpt>
<trkpt lat="31.9221715" lon="34.9498575">
<ele>116.000000</ele>
<time>2010-01-01T00:34:44.000Z</time>
</trkpt>
<trkpt lat="31.9221160" lon="34.9497730">
<ele>117.000000</ele>
<time>2010-01-01T00:34:48.000Z</time>
</trkpt>
<trkpt lat="31.9220744" lon="34.9496682">
<ele>118.000000</ele>
<time>2010-01-01T00:34:52.000Z</time>
</trkpt>
<trkpt lat="31.9219850" lon="34.9496121">
<ele>119.000000</ele>
<time>2010-01-01T00:34:56.000Z</time>
</trkpt>
<trkpt lat="31.9218820" lon="34.9496383">
<ele>120.000000</ele>
<time>2010-01-01T00:35:00.000Z</time>
</trkpt>
<trkpt lat="31.9218097" lon="34.9497030">
<ele>120.000000</ele>
<time>2010-01-01T00:35:04.000Z</time>
</trkpt>
<trkpt lat="31.9217419" lon="34.9497855">
<ele>120.000000</ele>
<time>2010-01-01T00:35:08.000Z</time>
</trkpt>
<trkpt lat="31.9216661" lon="34.9498614">
<ele>121.000000</ele>
<time>2010-01-01T00:35:12.000Z</time>
</trkpt>
<trkpt lat="31.9215773" lon="34.9499111">
<ele>122.000008</ele>
<time>2010-01-01T00:35:16.000Z</time>
</trkpt>
<trkpt lat="31.9214859" lon="34.9499522">
<ele>124.000000</ele>
<time>2010-01-01T00:35:20.000Z</time>
</trkpt>
<trkpt lat="31.9213904" lon="34.9499840">
<ele>125.000000</ele>
<time>2010-01-01T00:35:24.000Z</time>
</trkpt>
<trkpt lat="31.9212953" lon="34.9500216">
<ele>126.000000</ele>
<time>2010-01-01T00:35:28.000Z</time>
</trkpt>
<trkpt lat="31.9211901" lon="34.9500698">
<ele>127.000000</ele>
<time>2010-01-01T00:35:32.000Z</time>
</trkpt>
<trkpt lat="31.9210915" lon="34.9500955">
<ele>128.000000</ele>
<time>2010-01-01T00:35:36.000Z</time>
</trkpt>
<trkpt lat="31.9210024" lon="34.9501294">
<ele>129.000000</ele>
<time>2010-01-01T00:35:40.000Z</time>
</trkpt>
<trkpt lat="31.9209034" lon="34.9501587">
<ele>130.000000</ele>
<time>2010-01-01T00:35:44.000Z</time>
</trkpt>
<trkpt lat="31.9208224" lon="34.9502050">
<ele>131.000000</ele>
<time>2010-01-01T00:35:48.000Z</time>
</trkpt>
<trkpt lat="31.9207331" lon="34.9502759">
<ele>131.000000</ele>
<time>2010-01-01T00:35:52.000Z</time>
</trkpt>
<trkpt lat="31.9206509" lon="34.9503454">
<ele>131.000000</ele>
<time>2010-01-01T00:35:56.000Z</time>
</trkpt>
<trkpt lat="31.9205511" lon="34.9503942">
<ele>132.000000</ele>
<time>2010-01-01T00:36:00.000Z</time>
</trkpt>
<trkpt lat="31.9204581" lon="34.9504237">
<ele>134.000000</ele>
<time>2010-01-01T00:36:04.000Z</time>
</trkpt>
<trkpt lat="31.9203627" lon="34.9504444">
<ele>135.000000</ele>
<time>2010-01-01T00:36:08.000Z</time>
</trkpt>
<trkpt lat="31.9202650" lon="34.9504319">
<ele>137.000000</ele>
<time>2010-01-01T00:36:12.000Z</time>
</trkpt>
<trkpt lat="31.9201659" lon="34.9503939">
<ele>138.000000</ele>
<time>2010-01-01T00:36:16.000Z</time>
</trkpt>
<trkpt lat="31.9200745" lon="34.9503536">
<ele>139.000000</ele>
<time>2010-01-01T00:36:20.000Z</time>
</trkpt>
<trkpt lat="31.9199672" lon="34.9503072">
<ele>139.000000</ele>
<time>2010-01-01T00:36:25.000Z</time>
</trkpt>
<trkpt lat="31.9198809" lon="34.9502609">
<ele>139.000000</ele>
<time>2010-01-01T00:36:28.000Z</time>
</trkpt>
<trkpt lat="31.9197763" lon="34.9501911">
<ele>138.000000</ele>
<time>2010-01-01T00:36:33.000Z</time>
</trkpt>
<trkpt lat="31.9196650" lon="34.9500996">
<ele>137.000000</ele>
<time>2010-01-01T00:36:39.000Z</time>
</trkpt>
<trkpt lat="31.9195690" lon="34.9500560">
<ele>136.000000</ele>
<time>2010-01-01T00:36:43.000Z</time>
</trkpt>
<trkpt lat="31.9194482" lon="34.9500241">
<ele>136.000000</ele>
<time>2010-01-01T00:36:48.000Z</time>
</trkpt>
<trkpt lat="31.9193056" lon="34.9499749">
<ele>134.000000</ele>
<time>2010-01-01T00:36:54.000Z</time>
</trkpt>
<trkpt lat="31.9191582" lon="34.9499492">
<ele>132.000000</ele>
<time>2010-01-01T00:37:00.000Z</time>
</trkpt>
<trkpt lat="31.9190049" lon="34.9499583">
<ele>131.000000</ele>
<time>2010-01-01T00:37:06.000Z</time>
</trkpt>
<trkpt lat="31.9188531" lon="34.9499623">
<ele>130.000000</ele>
<time>2010-01-01T00:37:12.000Z</time>
</trkpt>
<trkpt lat="31.9187176" lon="34.9499637">
<ele>130.000000</ele>
<time>2010-01-01T00:37:17.000Z</time>
</trkpt>
<trkpt lat="31.9186217" lon="34.9499669">
<ele>129.000000</ele>
<time>2010-01-01T00:37:21.000Z</time>
</trkpt>
<trkpt lat="31.9185363" lon="34.9499486">
<ele>129.000000</ele>
<time>2010-01-01T00:37:25.000Z</time>
</trkpt>
<trkpt lat="31.9185487" lon="34.9498099">
<ele>128.000000</ele>
<time>2010-01-01T00:37:29.000Z</time>
</trkpt>
<trkpt lat="31.9185671" lon="34.9496673">
<ele>127.000000</ele>
<time>2010-01-01T00:37:34.000Z</time>
</trkpt>
<trkpt lat="31.9185868" lon="34.9495340">
<ele>127.000000</ele>
<time>2010-01-01T00:37:39.000Z</time>
</trkpt>
<trkpt lat="31.9186204" lon="34.9494173">
<ele>126.000000</ele>
<time>2010-01-01T00:37:43.000Z</time>
</trkpt>
<trkpt lat="31.9186671" lon="34.9492872">
<ele>126.000000</ele>
<time>2010-01-01T00:37:48.000Z</time>
</trkpt>
<trkpt lat="31.9187190" lon="34.9491568">
<ele>125.000000</ele>
<time>2010-01-01T00:37:53.000Z</time>
</trkpt>
<trkpt lat="31.9187495" lon="34.9490473">
<ele>125.000000</ele>
<time>2010-01-01T00:37:57.000Z</time>
</trkpt>
<trkpt lat="31.9187583" lon="34.9489378">
<ele>124.000000</ele>
<time>2010-01-01T00:38:00.000Z</time>
</trkpt>
<trkpt lat="31.9187344" lon="34.9488308">
<ele>124.000000</ele>
<time>2010-01-01T00:38:04.000Z</time>
</trkpt>
<trkpt lat="31.9186949" lon="34.9487225">
<ele>124.000000</ele>
<time>2010-01-01T00:38:08.000Z</time>
</trkpt>
<trkpt lat="31.9186520" lon="34.9486075">
<ele>124.000000</ele>
<time>2010-01-01T00:38:12.000Z</time>
</trkpt>
<trkpt lat="31.9186290" lon="34.9484875">
<ele>125.000000</ele>
<time>2010-01-01T00:38:17.000Z</time>
</trkpt>
<trkpt lat="31.9186158" lon="34.9483692">
<ele>125.000000</ele>
<time>2010-01-01T00:38:21.000Z</time>
</trkpt>
<trkpt lat="31.9185932" lon="34.9482597">
<ele>126.000000</ele>
<time>2010-01-01T00:38:24.000Z</time>
</trkpt>
<trkpt lat="31.9185587" lon="34.9481532">
<ele>127.000000</ele>
<time>2010-01-01T00:38:28.000Z</time>
</trkpt>
<trkpt lat="31.9185207" lon="34.9480501">
<ele>128.000000</ele>
<time>2010-01-01T00:38:32.000Z</time>
</trkpt>
<trkpt lat="31.9184931" lon="34.9479439">
<ele>129.000000</ele>
<time>2010-01-01T00:38:36.000Z</time>
</trkpt>
<trkpt lat="31.9184919" lon="34.9478184">
<ele>129.000000</ele>
<time>2010-01-01T00:38:40.000Z</time>
</trkpt>
<trkpt lat="31.9184877" lon="34.9476992">
<ele>128.000000</ele>
<time>2010-01-01T00:38:44.000Z</time>
</trkpt>
<trkpt lat="31.9184541" lon="34.9475807">
<ele>127.000000</ele>
<time>2010-01-01T00:38:48.000Z</time>
</trkpt>
<trkpt lat="31.9184149" lon="34.9474387">
<ele>126.000000</ele>
<time>2010-01-01T00:38:54.000Z</time>
</trkpt>
<trkpt lat="31.9183830" lon="34.9473306">
<ele>125.000000</ele>
<time>2010-01-01T00:38:57.000Z</time>
</trkpt>
<trkpt lat="31.9183511" lon="34.9472137">
<ele>124.000000</ele>
<time>2010-01-01T00:39:02.000Z</time>
</trkpt>
<trkpt lat="31.9183145" lon="34.9470907">
<ele>124.000000</ele>
<time>2010-01-01T00:39:06.000Z</time>
</trkpt>
<trkpt lat="31.9182625" lon="34.9469672">
<ele>124.000000</ele>
<time>2010-01-01T00:39:11.000Z</time>
</trkpt>
<trkpt lat="31.9182056" lon="34.9468422">
<ele>124.000000</ele>
<time>2010-01-01T00:39:16.000Z</time>
</trkpt>
<trkpt lat="31.9181368" lon="34.9467206">
<ele>124.000000</ele>
<time>2010-01-01T00:39:21.000Z</time>
</trkpt>
<trkpt lat="31.9180429" lon="34.9466211">
<ele>124.000000</ele>
<time>2010-01-01T00:39:26.000Z</time>
</trkpt>
<trkpt lat="31.9179314" lon="34.9465601">
<ele>125.000000</ele>
<time>2010-01-01T00:39:30.000Z</time>
</trkpt>
<trkpt lat="31.9178249" lon="34.9465291">
<ele>126.000000</ele>
<time>2010-01-01T00:39:35.000Z</time>
</trkpt>
<trkpt lat="31.9177357" lon="34.9465098">
<ele>127.000000</ele>
<time>2010-01-01T00:39:39.000Z</time>
</trkpt>
<trkpt lat="31.9176118" lon="34.9464660">
<ele>128.000000</ele>
<time>2010-01-01T00:39:44.000Z</time>
</trkpt>
<trkpt lat="31.9174990" lon="34.9464391">
<ele>129.000000</ele>
<time>2010-01-01T00:39:48.000Z</time>
</trkpt>
<trkpt lat="31.9173919" lon="34.9464338">
<ele>129.000000</ele>
<time>2010-01-01T00:39:53.000Z</time>
</trkpt>
<trkpt lat="31.9172879" lon="34.9464265">
<ele>130.000000</ele>
<time>2010-01-01T00:39:57.000Z</time>
</trkpt>
<trkpt lat="31.9171954" lon="34.9464131">
<ele>130.000000</ele>
<time>2010-01-01T00:40:00.000Z</time>
</trkpt>
<trkpt lat="31.9170964" lon="34.9463760">
<ele>131.000000</ele>
<time>2010-01-01T00:40:05.000Z</time>
</trkpt>
<trkpt lat="31.9170123" lon="34.9463236">
<ele>131.000000</ele>
<time>2010-01-01T00:40:08.000Z</time>
</trkpt>
<trkpt lat="31.9169306" lon="34.9462751">
<ele>131.000000</ele>
<time>2010-01-01T00:40:12.000Z</time>
</trkpt>
<trkpt lat="31.9168596" lon="34.9462056">
<ele>132.000000</ele>
<time>2010-01-01T00:40:16.000Z</time>
</trkpt>
<trkpt lat="31.9167686" lon="34.9461362">
<ele>132.000000</ele>
<time>2010-01-01T00:40:20.000Z</time>
</trkpt>
<trkpt lat="31.9166773" lon="34.9460765">
<ele>132.000000</ele>
<time>2010-01-01T00:40:24.000Z</time>
</trkpt>
<trkpt lat="31.9165917" lon="34.9460164">
<ele>132.000000</ele>
<time>2010-01-01T00:40:28.000Z</time>
</trkpt>
<trkpt lat="31.9165038" lon="34.9459625">
<ele>133.000000</ele>
<time>2010-01-01T00:40:32.000Z</time>
</trkpt>
<trkpt lat="31.9164175" lon="34.9459089">
<ele>133.000000</ele>
<time>2010-01-01T00:40:36.000Z</time>
</trkpt>
<trkpt lat="31.9163396" lon="34.9458422">
<ele>134.000000</ele>
<time>2010-01-01T00:40:40.000Z</time>
</trkpt>
<trkpt lat="31.9162744" lon="34.9457530">
<ele>135.000000</ele>
<time>2010-01-01T00:40:44.000Z</time>
</trkpt>
<trkpt lat="31.9162252" lon="34.9456585">
<ele>135.000000</ele>
<time>2010-01-01T00:40:48.000Z</time>
</trkpt>
<trkpt lat="31.9161755" lon="34.9455368">
<ele>136.000000</ele>
<time>2010-01-01T00:40:52.000Z</time>
</trkpt>
<trkpt lat="31.9161458" lon="34.9454195">
<ele>138.000000</ele>
<time>2010-01-01T00:40:57.000Z</time>
</trkpt>
<trkpt lat="31.9160954" lon="34.9453136">
<ele>139.000000</ele>
<time>2010-01-01T00:41:01.000Z</time>
</trkpt>
<trkpt lat="31.9160434" lon="34.9452075">
<ele>141.000000</ele>
<time>2010-01-01T00:41:05.000Z</time>
</trkpt>
<trkpt lat="31.9159912" lon="34.9451092">
<ele>142.000000</ele>
<time>2010-01-01T00:41:09.000Z</time>
</trkpt>
<trkpt lat="31.9159356" lon="34.9450225">
<ele>143.000000</ele>
<time>2010-01-01T00:41:12.000Z</time>
</trkpt>
<trkpt lat="31.9158807" lon="34.9449296">
<ele>144.000000</ele>
<time>2010-01-01T00:41:16.000Z</time>
</trkpt>
<trkpt lat="31.9158111" lon="34.9448356">
<ele>145.000000</ele>
<time>2010-01-01T00:41:21.000Z</time>
</trkpt>
<trkpt lat="31.9157398" lon="34.9447510">
<ele>145.000000</ele>
<time>2010-01-01T00:41:25.000Z</time>
</trkpt>
<trkpt lat="31.9156693" lon="34.9446810">
<ele>144.000000</ele>
<time>2010-01-01T00:41:28.000Z</time>
</trkpt>
<trkpt lat="31.9155907" lon="34.9445940">
<ele>144.000000</ele>
<time>2010-01-01T00:41:33.000Z</time>
</trkpt>
<trkpt lat="31.9155061" lon="34.9444929">
<ele>144.000000</ele>
<time>2010-01-01T00:41:37.000Z</time>
</trkpt>
<trkpt lat="31.9154364" lon="34.9444051">
<ele>143.000000</ele>
<time>2010-01-01T00:41:42.000Z</time>
</trkpt>
<trkpt lat="31.9153550" lon="34.9443117">
<ele>142.000000</ele>
<time>2010-01-01T00:41:46.000Z</time>
</trkpt>
<trkpt lat="31.9152481" lon="34.9441929">
<ele>140.000000</ele>
<time>2010-01-01T00:41:52.000Z</time>
</trkpt>
<trkpt lat="31.9151483" lon="34.9440884">
<ele>140.000000</ele>
<time>2010-01-01T00:41:57.000Z</time>
</trkpt>
<trkpt lat="31.9150510" lon="34.9439765">
<ele>138.000000</ele>
<time>2010-01-01T00:42:03.000Z</time>
</trkpt>
<trkpt lat="31.9149758" lon="34.9438592">
<ele>137.000000</ele>
<time>2010-01-01T00:42:08.000Z</time>
</trkpt>
<trkpt lat="31.9149047" lon="34.9437191">
<ele>136.000000</ele>
<time>2010-01-01T00:42:13.000Z</time>
</trkpt>
<trkpt lat="31.9148398" lon="34.9435873">
<ele>134.000000</ele>
<time>2010-01-01T00:42:18.000Z</time>
</trkpt>
<trkpt lat="31.9147191" lon="34.9435138">
<ele>132.000000</ele>
<time>2010-01-01T00:42:24.000Z</time>
</trkpt>
<trkpt lat="31.9145589" lon="34.9435125">
<ele>131.000000</ele>
<time>2010-01-01T00:42:30.000Z</time>
</trkpt>
<trkpt lat="31.9143949" lon="34.9435266">
<ele>130.000000</ele>
<time>2010-01-01T00:42:37.000Z</time>
</trkpt>
<trkpt lat="31.9142321" lon="34.9435342">
<ele>130.000000</ele>
<time>2010-01-01T00:42:43.000Z</time>
</trkpt>
<trkpt lat="31.9140781" lon="34.9435490">
<ele>130.000000</ele>
<time>2010-01-01T00:42:50.000Z</time>
</trkpt>
<trkpt lat="31.9139337" lon="34.9435857">
<ele>130.000000</ele>
<time>2010-01-01T00:42:56.000Z</time>
</trkpt>
<trkpt lat="31.9138076" lon="34.9436268">
<ele>130.000000</ele>
<time>2010-01-01T00:43:01.000Z</time>
</trkpt>
<trkpt lat="31.9136860" lon="34.9436718">
<ele>130.000000</ele>
<time>2010-01-01T00:43:06.000Z</time>
</trkpt>
<trkpt lat="31.9135678" lon="34.9437294">
<ele>130.000000</ele>
<time>2010-01-01T00:43:11.000Z</time>
</trkpt>
<trkpt lat="31.9134592" lon="34.9438076">
<ele>129.000000</ele>
<time>2010-01-01T00:43:16.000Z</time>
</trkpt>
<trkpt lat="31.9133802" lon="34.9438957">
<ele>128.000000</ele>
<time>2010-01-01T00:43:20.000Z</time>
</trkpt>
<trkpt lat="31.9133132" lon="34.9439854">
<ele>128.000000</ele>
<time>2010-01-01T00:43:24.000Z</time>
</trkpt>
<trkpt lat="31.9132488" lon="34.9440666">
<ele>129.000000</ele>
<time>2010-01-01T00:43:28.000Z</time>
</trkpt>
<trkpt lat="31.9131866" lon="34.9441428">
<ele>129.000000</ele>
<time>2010-01-01T00:43:32.000Z</time>
</trkpt>
<trkpt lat="31.9130947" lon="34.9442482">
<ele>130.000000</ele>
<time>2010-01-01T00:43:37.000Z</time>
</trkpt>
<trkpt lat="31.9129964" lon="34.9443373">
<ele>131.000000</ele>
<time>2010-01-01T00:43:42.000Z</time>
</trkpt>
<trkpt lat="31.9129015" lon="34.9444241">
<ele>131.000000</ele>
<time>2010-01-01T00:43:47.000Z</time>
</trkpt>
<trkpt lat="31.9128055" lon="34.9444979">
<ele>132.000000</ele>
<time>2010-01-01T00:43:51.000Z</time>
</trkpt>
<trkpt lat="31.9127110" lon="34.9445723">
<ele>132.000000</ele>
<time>2010-01-01T00:43:56.000Z</time>
</trkpt>
<trkpt lat="31.9126125" lon="34.9446402">
<ele>132.000000</ele>
<time>2010-01-01T00:44:00.000Z</time>
</trkpt>
<trkpt lat="31.9125137" lon="34.9447199">
<ele>132.000000</ele>
<time>2010-01-01T00:44:05.000Z</time>
</trkpt>
<trkpt lat="31.9124191" lon="34.9448105">
<ele>133.000000</ele>
<time>2010-01-01T00:44:10.000Z</time>
</trkpt>
<trkpt lat="31.9123429" lon="34.9449100">
<ele>134.000000</ele>
<time>2010-01-01T00:44:15.000Z</time>
</trkpt>
<trkpt lat="31.9122774" lon="34.9449980">
<ele>134.000000</ele>
<time>2010-01-01T00:44:19.000Z</time>
</trkpt>
<trkpt lat="31.9122084" lon="34.9451102">
<ele>135.000000</ele>
<time>2010-01-01T00:44:23.000Z</time>
</trkpt>
<trkpt lat="31.9121595" lon="34.9452003">
<ele>135.000000</ele>
<time>2010-01-01T00:44:27.000Z</time>
</trkpt>
<trkpt lat="31.9121042" lon="34.9452872">
<ele>136.000000</ele>
<time>2010-01-01T00:44:31.000Z</time>
</trkpt>
<trkpt lat="31.9120547" lon="34.9453927">
<ele>137.000000</ele>
<time>2010-01-01T00:44:35.000Z</time>
</trkpt>
<trkpt lat="31.9120056" lon="34.9455216">
<ele>137.000000</ele>
<time>2010-01-01T00:44:40.000Z</time>
</trkpt>
<trkpt lat="31.9119703" lon="34.9456608">
<ele>138.000000</ele>
<time>2010-01-01T00:44:45.000Z</time>
</trkpt>
<trkpt lat="31.9119489" lon="34.9457704">
<ele>139.000000</ele>
<time>2010-01-01T00:44:48.000Z</time>
</trkpt>
<trkpt lat="31.9119309" lon="34.9458778">
<ele>140.000000</ele>
<time>2010-01-01T00:44:52.000Z</time>
</trkpt>
<trkpt lat="31.9119078" lon="34.9460092">
<ele>140.000000</ele>
<time>2010-01-01T00:44:57.000Z</time>
</trkpt>
<trkpt lat="31.9118675" lon="34.9461283">
<ele>141.000000</ele>
<time>2010-01-01T00:45:01.000Z</time>
</trkpt>
<trkpt lat="31.9117646" lon="34.9461584">
<ele>142.000000</ele>
<time>2010-01-01T00:45:05.000Z</time>
</trkpt>
<trkpt lat="31.9116859" lon="34.9460683">
<ele>142.000000</ele>
<time>2010-01-01T00:45:10.000Z</time>
</trkpt>
<trkpt lat="31.9116202" lon="34.9459503">
<ele>142.000000</ele>
<time>2010-01-01T00:45:14.000Z</time>
</trkpt>
<trkpt lat="31.9115433" lon="34.9458371">
<ele>141.000000</ele>
<time>2010-01-01T00:45:19.000Z</time>
</trkpt>
<trkpt lat="31.9114380" lon="34.9457491">
<ele>141.000000</ele>
<time>2010-01-01T00:45:25.000Z</time>
</trkpt>
<trkpt lat="31.9113357" lon="34.9456548">
<ele>141.000000</ele>
<time>2010-01-01T00:45:30.000Z</time>
</trkpt>
<trkpt lat="31.9112373" lon="34.9455590">
<ele>141.000000</ele>
<time>2010-01-01T00:45:35.000Z</time>
</trkpt>
<trkpt lat="31.9111356" lon="34.9454708">
<ele>141.000000</ele>
<time>2010-01-01T00:45:40.000Z</time>
</trkpt>
<trkpt lat="31.9110329" lon="34.9454299">
<ele>141.000000</ele>
<time>2010-01-01T00:45:44.000Z</time>
</trkpt>
<trkpt lat="31.9109451" lon="34.9454012">
<ele>142.000000</ele>
<time>2010-01-01T00:45:48.000Z</time>
</trkpt>
<trkpt lat="31.9108410" lon="34.9453772">
<ele>143.000000</ele>
<time>2010-01-01T00:45:52.000Z</time>
</trkpt>
<trkpt lat="31.9107354" lon="34.9453498">
<ele>143.000000</ele>
<time>2010-01-01T00:45:56.000Z</time>
</trkpt>
<trkpt lat="31.9106227" lon="34.9453113">
<ele>143.000000</ele>
<time>2010-01-01T00:46:01.000Z</time>
</trkpt>
<trkpt lat="31.9105204" lon="34.9452803">
<ele>144.000000</ele>
<time>2010-01-01T00:46:05.000Z</time>
</trkpt>
<trkpt lat="31.9104163" lon="34.9452492">
<ele>145.000000</ele>
<time>2010-01-01T00:46:10.000Z</time>
</trkpt>
<trkpt lat="31.9103117" lon="34.9452266">
<ele>145.000000</ele>
<time>2010-01-01T00:46:14.000Z</time>
</trkpt>
<trkpt lat="31.9102161" lon="34.9452064">
<ele>146.000000</ele>
<time>2010-01-01T00:46:18.000Z</time>
</trkpt>
<trkpt lat="31.9101219" lon="34.9451900">
<ele>146.000000</ele>
<time>2010-01-01T00:46:22.000Z</time>
</trkpt>
<trkpt lat="31.9100314" lon="34.9451693">
<ele>146.000000</ele>
<time>2010-01-01T00:46:25.000Z</time>
</trkpt>
<trkpt lat="31.9099111" lon="34.9451499">
<ele>147.000000</ele>
<time>2010-01-01T00:46:30.000Z</time>
</trkpt>
<trkpt lat="31.9098102" lon="34.9451300">
<ele>147.000000</ele>
<time>2010-01-01T00:46:34.000Z</time>
</trkpt>
<trkpt lat="31.9097179" lon="34.9451023">
<ele>147.000000</ele>
<time>2010-01-01T00:46:38.000Z</time>
</trkpt>
<trkpt lat="31.9096053" lon="34.9450629">
<ele>148.000000</ele>
<time>2010-01-01T00:46:43.000Z</time>
</trkpt>
<trkpt lat="31.9094987" lon="34.9450250">
<ele>148.000000</ele>
<time>2010-01-01T00:46:47.000Z</time>
</trkpt>
<trkpt lat="31.9093916" lon="34.9449891">
<ele>149.000000</ele>
<time>2010-01-01T00:46:52.000Z</time>
</trkpt>
<trkpt lat="31.9092948" lon="34.9449646">
<ele>149.000000</ele>
<time>2010-01-01T00:46:56.000Z</time>
</trkpt>
<trkpt lat="31.9091974" lon="34.9449465">
<ele>149.000000</ele>
<time>2010-01-01T00:47:00.000Z</time>
</trkpt>
<trkpt lat="31.9090837" lon="34.9449299">
<ele>149.000000</ele>
<time>2010-01-01T00:47:04.000Z</time>
</trkpt>
<trkpt lat="31.9089886" lon="34.9449251">
<ele>149.000000</ele>
<time>2010-01-01T00:47:08.000Z</time>
</trkpt>
<trkpt lat="31.9088946" lon="34.9449134">
<ele>149.000000</ele>
<time>2010-01-01T00:47:12.000Z</time>
</trkpt>
<trkpt lat="31.9087999" lon="34.9449145">
<ele>150.000000</ele>
<time>2010-01-01T00:47:16.000Z</time>
</trkpt>
<trkpt lat="31.9087037" lon="34.9449177">
<ele>150.000000</ele>
<time>2010-01-01T00:47:19.000Z</time>
</trkpt>
<trkpt lat="31.9086110" lon="34.9449250">
<ele>151.000000</ele>
<time>2010-01-01T00:47:23.000Z</time>
</trkpt>
<trkpt lat="31.9085026" lon="34.9449457">
<ele>152.000000</ele>
<time>2010-01-01T00:47:28.000Z</time>
</trkpt>
<trkpt lat="31.9084053" lon="34.9449779">
<ele>152.000000</ele>
<time>2010-01-01T00:47:32.000Z</time>
</trkpt>
<trkpt lat="31.9083111" lon="34.9450156">
<ele>153.000000</ele>
<time>2010-01-01T00:47:36.000Z</time>
</trkpt>
<trkpt lat="31.9082204" lon="34.9450615">
<ele>153.000000</ele>
<time>2010-01-01T00:47:40.000Z</time>
</trkpt>
<trkpt lat="31.9081130" lon="34.9451047">
<ele>154.000000</ele>
<time>2010-01-01T00:47:44.000Z</time>
</trkpt>
<trkpt lat="31.9080161" lon="34.9451494">
<ele>154.000000</ele>
<time>2010-01-01T00:47:48.000Z</time>
</trkpt>
<trkpt lat="31.9079212" lon="34.9451812">
<ele>154.000000</ele>
<time>2010-01-01T00:47:52.000Z</time>
</trkpt>
<trkpt lat="31.9078214" lon="34.9452119">
<ele>154.000000</ele>
<time>2010-01-01T00:47:56.000Z</time>
</trkpt>
<trkpt lat="31.9077192" lon="34.9452249">
<ele>154.000000</ele>
<time>2010-01-01T00:48:00.000Z</time>
</trkpt>
<trkpt lat="31.9076050" lon="34.9452502">
<ele>154.000000</ele>
<time>2010-01-01T00:48:05.000Z</time>
</trkpt>
<trkpt lat="31.9075144" lon="34.9452861">
<ele>154.000000</ele>
<time>2010-01-01T00:48:09.000Z</time>
</trkpt>
<trkpt lat="31.9074299" lon="34.9453458">
<ele>154.000000</ele>
<time>2010-01-01T00:48:13.000Z</time>
</trkpt>
<trkpt lat="31.9073535" lon="34.9454281">
<ele>154.000000</ele>
<time>2010-01-01T00:48:17.000Z</time>
</trkpt>
<trkpt lat="31.9072724" lon="34.9455269">
<ele>154.000000</ele>
<time>2010-01-01T00:48:22.000Z</time>
</trkpt>
<trkpt lat="31.9071696" lon="34.9456344">
<ele>155.000000</ele>
<time>2010-01-01T00:48:27.000Z</time>
</trkpt>
<trkpt lat="31.9070742" lon="34.9456978">
<ele>154.000000</ele>
<time>2010-01-01T00:48:32.000Z</time>
</trkpt>
<trkpt lat="31.9069655" lon="34.9457749">
<ele>154.000000</ele>
<time>2010-01-01T00:48:37.000Z</time>
</trkpt>
<trkpt lat="31.9068465" lon="34.9458735">
<ele>153.000000</ele>
<time>2010-01-01T00:48:42.000Z</time>
</trkpt>
<trkpt lat="31.9067146" lon="34.9459781">
<ele>151.000000</ele>
<time>2010-01-01T00:48:49.000Z</time>
</trkpt>
<trkpt lat="31.9065856" lon="34.9460506">
<ele>149.000000</ele>
<time>2010-01-01T00:48:55.000Z</time>
</trkpt>
<trkpt lat="31.9064347" lon="34.9460749">
<ele>147.000000</ele>
<time>2010-01-01T00:49:01.000Z</time>
</trkpt>
<trkpt lat="31.9062688" lon="34.9460719">
<ele>146.000000</ele>
<time>2010-01-01T00:49:07.000Z</time>
</trkpt>
<trkpt lat="31.9060947" lon="34.9460683">
<ele>144.000000</ele>
<time>2010-01-01T00:49:14.000Z</time>
</trkpt>
<trkpt lat="31.9060039" lon="34.9460608">
<ele>144.000000</ele>
<time>2010-01-01T00:49:18.000Z</time>
</trkpt>
<trkpt lat="31.9059108" lon="34.9460503">
<ele>143.000000</ele>
<time>2010-01-01T00:49:22.000Z</time>
</trkpt>
<trkpt lat="31.9058166" lon="34.9460364">
<ele>143.000000</ele>
<time>2010-01-01T00:49:25.000Z</time>
</trkpt>
<trkpt lat="31.9057214" lon="34.9460175">
<ele>142.000000</ele>
<time>2010-01-01T00:49:29.000Z</time>
</trkpt>
<trkpt lat="31.9056280" lon="34.9459969">
<ele>142.000000</ele>
<time>2010-01-01T00:49:33.000Z</time>
</trkpt>
<trkpt lat="31.9054486" lon="34.9459760">
<ele>141.000000</ele>
<time>2010-01-01T00:49:40.000Z</time>
</trkpt>
<trkpt lat="31.9052636" lon="34.9459764">
<ele>141.000000</ele>
<time>2010-01-01T00:49:48.000Z</time>
</trkpt>
<trkpt lat="31.9050839" lon="34.9459594">
<ele>140.000000</ele>
<time>2010-01-01T00:49:55.000Z</time>
</trkpt>
<trkpt lat="31.9049029" lon="34.9459333">
<ele>139.000000</ele>
<time>2010-01-01T00:50:02.000Z</time>
</trkpt>
<trkpt lat="31.9047315" lon="34.9458701">
<ele>138.000000</ele>
<time>2010-01-01T00:50:09.000Z</time>
</trkpt>
<trkpt lat="31.9045698" lon="34.9457931">
<ele>136.000000</ele>
<time>2010-01-01T00:50:16.000Z</time>
</trkpt>
<trkpt lat="31.9044127" lon="34.9457148">
<ele>136.000000</ele>
<time>2010-01-01T00:50:23.000Z</time>
</trkpt>
<trkpt lat="31.9042629" lon="34.9456692">
<ele>135.000000</ele>
<time>2010-01-01T00:50:29.000Z</time>
</trkpt>
<trkpt lat="31.9041401" lon="34.9456046">
<ele>135.000000</ele>
<time>2010-01-01T00:50:35.000Z</time>
</trkpt>
<trkpt lat="31.9040286" lon="34.9455087">
<ele>135.000000</ele>
<time>2010-01-01T00:50:40.000Z</time>
</trkpt>
<trkpt lat="31.9039110" lon="34.9454115">
<ele>135.000000</ele>
<time>2010-01-01T00:50:46.000Z</time>
</trkpt>
<trkpt lat="31.9037692" lon="34.9453513">
<ele>133.000000</ele>
<time>2010-01-01T00:50:52.000Z</time>
</trkpt>
<trkpt lat="31.9036258" lon="34.9453461">
<ele>132.000000</ele>
<time>2010-01-01T00:50:58.000Z</time>
</trkpt>
<trkpt lat="31.9034904" lon="34.9453771">
<ele>132.000000</ele>
<time>2010-01-01T00:51:03.000Z</time>
</trkpt>
<trkpt lat="31.9033641" lon="34.9454225">
<ele>132.000000</ele>
<time>2010-01-01T00:51:09.000Z</time>
</trkpt>
<trkpt lat="31.9032390" lon="34.9454535">
<ele>132.000000</ele>
<time>2010-01-01T00:51:14.000Z</time>
</trkpt>
<trkpt lat="31.9031137" lon="34.9454503">
<ele>132.000000</ele>
<time>2010-01-01T00:51:19.000Z</time>
</trkpt>
<trkpt lat="31.9029870" lon="34.9454357">
<ele>132.000000</ele>
<time>2010-01-01T00:51:24.000Z</time>
</trkpt>
<trkpt lat="31.9028606" lon="34.9454104">
<ele>131.000000</ele>
<time>2010-01-01T00:51:29.000Z</time>
</trkpt>
<trkpt lat="31.9027399" lon="34.9453634">
<ele>131.000000</ele>
<time>2010-01-01T00:51:34.000Z</time>
</trkpt>
<trkpt lat="31.9026299" lon="34.9453069">
<ele>131.000000</ele>
<time>2010-01-01T00:51:39.000Z</time>
</trkpt>
<trkpt lat="31.9025345" lon="34.9452291">
<ele>131.000000</ele>
<time>2010-01-01T00:51:44.000Z</time>
</trkpt>
<trkpt lat="31.9024715" lon="34.9451165">
<ele>131.000000</ele>
<time>2010-01-01T00:51:48.000Z</time>
</trkpt>
<trkpt lat="31.9024219" lon="34.9450024">
<ele>131.000000</ele>
<time>2010-01-01T00:51:53.000Z</time>
</trkpt>
<trkpt lat="31.9023724" lon="34.9448924">
<ele>130.000000</ele>
<time>2010-01-01T00:51:57.000Z</time>
</trkpt>
<trkpt lat="31.9023405" lon="34.9447743">
<ele>129.000000</ele>
<time>2010-01-01T00:52:01.000Z</time>
</trkpt>
<trkpt lat="31.9022996" lon="34.9446544">
<ele>129.000000</ele>
<time>2010-01-01T00:52:05.000Z</time>
</trkpt>
<trkpt lat="31.9022315" lon="34.9445613">
<ele>129.000000</ele>
<time>2010-01-01T00:52:10.000Z</time>
</trkpt>
<trkpt lat="31.9021196" lon="34.9445122">
<ele>129.000000</ele>
<time>2010-01-01T00:52:14.000Z</time>
</trkpt>
<trkpt lat="31.9019986" lon="34.9445011">
<ele>130.000000</ele>
<time>2010-01-01T00:52:19.000Z</time>
</trkpt>
<trkpt lat="31.9018987" lon="34.9445322">
<ele>130.000000</ele>
<time>2010-01-01T00:52:23.000Z</time>
</trkpt>
<trkpt lat="31.9017783" lon="34.9445875">
<ele>130.000000</ele>
<time>2010-01-01T00:52:28.000Z</time>
</trkpt>
<trkpt lat="31.9016829" lon="34.9446168">
<ele>130.000000</ele>
<time>2010-01-01T00:52:32.000Z</time>
</trkpt>
<trkpt lat="31.9015698" lon="34.9446355">
<ele>131.000000</ele>
<time>2010-01-01T00:52:37.000Z</time>
</trkpt>
<trkpt lat="31.9014817" lon="34.9446642">
<ele>132.000000</ele>
<time>2010-01-01T00:52:41.000Z</time>
</trkpt>
<trkpt lat="31.9013919" lon="34.9446777">
<ele>133.000000</ele>
<time>2010-01-01T00:52:44.000Z</time>
</trkpt>
<trkpt lat="31.9013045" lon="34.9447137">
<ele>134.000000</ele>
<time>2010-01-01T00:52:48.000Z</time>
</trkpt>
<trkpt lat="31.9012319" lon="34.9448064">
<ele>135.000000</ele>
<time>2010-01-01T00:52:52.000Z</time>
</trkpt>
<trkpt lat="31.9011895" lon="34.9449125">
<ele>136.000000</ele>
<time>2010-01-01T00:52:56.000Z</time>
</trkpt>
<trkpt lat="31.9011358" lon="34.9450077">
<ele>136.000000</ele>
<time>2010-01-01T00:53:00.000Z</time>
</trkpt>
<trkpt lat="31.9010753" lon="34.9450974">
<ele>137.000000</ele>
<time>2010-01-01T00:53:04.000Z</time>
</trkpt>
<trkpt lat="31.9010255" lon="34.9451901">
<ele>137.000000</ele>
<time>2010-01-01T00:53:08.000Z</time>
</trkpt>
<trkpt lat="31.9009867" lon="34.9452938">
<ele>138.000000</ele>
<time>2010-01-01T00:53:12.000Z</time>
</trkpt>
<trkpt lat="31.9009578" lon="34.9454021">
<ele>139.000000</ele>
<time>2010-01-01T00:53:15.000Z</time>
</trkpt>
<trkpt lat="31.9009151" lon="34.9455144">
<ele>140.000000</ele>
<time>2010-01-01T00:53:20.000Z</time>
</trkpt>
<trkpt lat="31.9008507" lon="34.9455892">
<ele>141.000000</ele>
<time>2010-01-01T00:53:23.000Z</time>
</trkpt>
<trkpt lat="31.9007723" lon="34.9456406">
<ele>141.000000</ele>
<time>2010-01-01T00:53:27.000Z</time>
</trkpt>
<trkpt lat="31.9006946" lon="34.9457133">
<ele>142.000000</ele>
<time>2010-01-01T00:53:31.000Z</time>
</trkpt>
<trkpt lat="31.9006249" lon="34.9457962">
<ele>142.000000</ele>
<time>2010-01-01T00:53:35.000Z</time>
</trkpt>
<trkpt lat="31.9005485" lon="34.9458833">
<ele>143.000000</ele>
<time>2010-01-01T00:53:39.000Z</time>
</trkpt>
<trkpt lat="31.9004689" lon="34.9459509">
<ele>143.000000</ele>
<time>2010-01-01T00:53:43.000Z</time>
</trkpt>
<trkpt lat="31.9003678" lon="34.9460101">
<ele>143.000000</ele>
<time>2010-01-01T00:53:48.000Z</time>
</trkpt>
<trkpt lat="31.9002653" lon="34.9460646">
<ele>144.000000</ele>
<time>2010-01-01T00:53:52.000Z</time>
</trkpt>
<trkpt lat="31.9001930" lon="34.9461342">
<ele>143.000000</ele>
<time>2010-01-01T00:53:56.000Z</time>
</trkpt>
<trkpt lat="31.9001414" lon="34.9462407">
<ele>143.000000</ele>
<time>2010-01-01T00:54:00.000Z</time>
</trkpt>
<trkpt lat="31.9001284" lon="34.9463827">
<ele>142.000000</ele>
<time>2010-01-01T00:54:05.000Z</time>
</trkpt>
<trkpt lat="31.9001133" lon="34.9465025">
<ele>141.000000</ele>
<time>2010-01-01T00:54:09.000Z</time>
</trkpt>
<trkpt lat="31.9000469" lon="34.9466363">
<ele>140.000000</ele>
<time>2010-01-01T00:54:14.000Z</time>
</trkpt>
<trkpt lat="31.8999308" lon="34.9467435">
<ele>140.000000</ele>
<time>2010-01-01T00:54:20.000Z</time>
</trkpt>
<trkpt lat="31.8997940" lon="34.9468208">
<ele>139.000000</ele>
<time>2010-01-01T00:54:26.000Z</time>
</trkpt>
<trkpt lat="31.8996899" lon="34.9469365">
<ele>139.000000</ele>
<time>2010-01-01T00:54:32.000Z</time>
</trkpt>
<trkpt lat="31.8996405" lon="34.9470871">
<ele>138.000000</ele>
<time>2010-01-01T00:54:37.000Z</time>
</trkpt>
<trkpt lat="31.8996226" lon="34.9472436">
<ele>138.000000</ele>
<time>2010-01-01T00:54:43.000Z</time>
</trkpt>
<trkpt lat="31.8995682" lon="34.9473894">
<ele>138.000000</ele>
<time>2010-01-01T00:54:48.000Z</time>
</trkpt>
<trkpt lat="31.8994666" lon="34.9474844">
<ele>137.000000</ele>
<time>2010-01-01T00:54:53.000Z</time>
</trkpt>
<trkpt lat="31.8993398" lon="34.9474972">
<ele>135.000000</ele>
<time>2010-01-01T00:54:58.000Z</time>
</trkpt>
<trkpt lat="31.8992272" lon="34.9474801">
<ele>133.000000</ele>
<time>2010-01-01T00:55:03.000Z</time>
</trkpt>
<trkpt lat="31.8991261" lon="34.9474721">
<ele>132.000000</ele>
<time>2010-01-01T00:55:07.000Z</time>
</trkpt>
<trkpt lat="31.8990307" lon="34.9474442">
<ele>131.000000</ele>
<time>2010-01-01T00:55:11.000Z</time>
</trkpt>
<trkpt lat="31.8989361" lon="34.9474329">
<ele>129.000000</ele>
<time>2010-01-01T00:55:15.000Z</time>
</trkpt>
<trkpt lat="31.8988190" lon="34.9474036">
<ele>128.000000</ele>
<time>2010-01-01T00:55:20.000Z</time>
</trkpt>
<trkpt lat="31.8987054" lon="34.9473825">
<ele>127.000000</ele>
<time>2010-01-01T00:55:24.000Z</time>
</trkpt>
<trkpt lat="31.8986112" lon="34.9473811">
<ele>126.000000</ele>
<time>2010-01-01T00:55:28.000Z</time>
</trkpt>
<trkpt lat="31.8984948" lon="34.9473530">
<ele>126.000000</ele>
<time>2010-01-01T00:55:33.000Z</time>
</trkpt>
<trkpt lat="31.8983841" lon="34.9472994">
<ele>125.000000</ele>
<time>2010-01-01T00:55:37.000Z</time>
</trkpt>
<trkpt lat="31.8982574" lon="34.9472695">
<ele>124.000000</ele>
<time>2010-01-01T00:55:43.000Z</time>
</trkpt>
<trkpt lat="31.8981314" lon="34.9472662">
<ele>122.000008</ele>
<time>2010-01-01T00:55:48.000Z</time>
</trkpt>
<trkpt lat="31.8980533" lon="34.9473151">
<ele>121.000000</ele>
<time>2010-01-01T00:55:51.000Z</time>
</trkpt>
<trkpt lat="31.8981206" lon="34.9474277">
<ele>122.000008</ele>
<time>2010-01-01T00:55:56.000Z</time>
</trkpt>
<trkpt lat="31.8981953" lon="34.9475426">
<ele>122.000008</ele>
<time>2010-01-01T00:56:01.000Z</time>
</trkpt>
<trkpt lat="31.8982603" lon="34.9476595">
<ele>123.000000</ele>
<time>2010-01-01T00:56:06.000Z</time>
</trkpt>
<trkpt lat="31.8983174" lon="34.9477839">
<ele>123.000000</ele>
<time>2010-01-01T00:56:10.000Z</time>
</trkpt>
<trkpt lat="31.8983488" lon="34.9479161">
<ele>123.000000</ele>
<time>2010-01-01T00:56:15.000Z</time>
</trkpt>
<trkpt lat="31.8983659" lon="34.9480532">
<ele>122.000008</ele>
<time>2010-01-01T00:56:20.000Z</time>
</trkpt>
<trkpt lat="31.8983895" lon="34.9481759">
<ele>122.000008</ele>
<time>2010-01-01T00:56:24.000Z</time>
</trkpt>
<trkpt lat="31.8984476" lon="34.9482620">
<ele>123.000000</ele>
<time>2010-01-01T00:56:28.000Z</time>
</trkpt>
<trkpt lat="31.8985255" lon="34.9483305">
<ele>124.000000</ele>
<time>2010-01-01T00:56:32.000Z</time>
</trkpt>
<trkpt lat="31.8985840" lon="34.9484267">
<ele>125.000000</ele>
<time>2010-01-01T00:56:36.000Z</time>
</trkpt>
<trkpt lat="31.8986293" lon="34.9485343">
<ele>127.000000</ele>
<time>2010-01-01T00:56:40.000Z</time>
</trkpt>
<trkpt lat="31.8986711" lon="34.9486490">
<ele>128.000000</ele>
<time>2010-01-01T00:56:44.000Z</time>
</trkpt>
<trkpt lat="31.8987332" lon="34.9487586">
<ele>129.000000</ele>
<time>2010-01-01T00:56:48.000Z</time>
</trkpt>
<trkpt lat="31.8987999" lon="34.9488510">
<ele>130.000000</ele>
<time>2010-01-01T00:56:53.000Z</time>
</trkpt>
<trkpt lat="31.8988657" lon="34.9489560">
<ele>130.000000</ele>
<time>2010-01-01T00:56:57.000Z</time>
</trkpt>
<trkpt lat="31.8989150" lon="34.9490511">
<ele>130.000000</ele>
<time>2010-01-01T00:57:01.000Z</time>
</trkpt>
<trkpt lat="31.8989632" lon="34.9491457">
<ele>130.000000</ele>
<time>2010-01-01T00:57:05.000Z</time>
</trkpt>
<trkpt lat="31.8990299" lon="34.9492636">
<ele>129.000000</ele>
<time>2010-01-01T00:57:09.000Z</time>
</trkpt>
<trkpt lat="31.8990962" lon="34.9493664">
<ele>129.000000</ele>
<time>2010-01-01T00:57:14.000Z</time>
</trkpt>
<trkpt lat="31.8991578" lon="34.9494697">
<ele>128.000000</ele>
<time>2010-01-01T00:57:18.000Z</time>
</trkpt>
<trkpt lat="31.8992184" lon="34.9495593">
<ele>128.000000</ele>
<time>2010-01-01T00:57:22.000Z</time>
</trkpt>
<trkpt lat="31.8993053" lon="34.9496396">
<ele>129.000000</ele>
<time>2010-01-01T00:57:26.000Z</time>
</trkpt>
<trkpt lat="31.8993714" lon="34.9497264">
<ele>130.000000</ele>
<time>2010-01-01T00:57:30.000Z</time>
</trkpt>
<trkpt lat="31.8994489" lon="34.9498026">
<ele>131.000000</ele>
<time>2010-01-01T00:57:34.000Z</time>
</trkpt>
<trkpt lat="31.8995275" lon="34.9498839">
<ele>131.000000</ele>
<time>2010-01-01T00:57:39.000Z</time>
</trkpt>
<trkpt lat="31.8996066" lon="34.9499793">
<ele>131.000000</ele>
<time>2010-01-01T00:57:43.000Z</time>
</trkpt>
<trkpt lat="31.8997036" lon="34.9500425">
<ele>132.000000</ele>
<time>2010-01-01T00:57:48.000Z</time>
</trkpt>
<trkpt lat="31.8997976" lon="34.9500756">
<ele>133.000000</ele>
<time>2010-01-01T00:57:51.000Z</time>
</trkpt>
<trkpt lat="31.8998934" lon="34.9501028">
<ele>134.000000</ele>
<time>2010-01-01T00:57:55.000Z</time>
</trkpt>
<trkpt lat="31.8999895" lon="34.9501618">
<ele>135.000000</ele>
<time>2010-01-01T00:58:00.000Z</time>
</trkpt>
<trkpt lat="31.9000811" lon="34.9502382">
<ele>137.000000</ele>
<time>2010-01-01T00:58:04.000Z</time>
</trkpt>
<trkpt lat="31.9001747" lon="34.9503040">
<ele>138.000000</ele>
<time>2010-01-01T00:58:09.000Z</time>
</trkpt>
<trkpt lat="31.9002515" lon="34.9503977">
<ele>138.000000</ele>
<time>2010-01-01T00:58:13.000Z</time>
</trkpt>
<trkpt lat="31.9003280" lon="34.9504985">
<ele>138.000000</ele>
<time>2010-01-01T00:58:18.000Z</time>
</trkpt>
<trkpt lat="31.9004100" lon="34.9505731">
<ele>138.000000</ele>
<time>2010-01-01T00:58:22.000Z</time>
</trkpt>
<trkpt lat="31.9004926" lon="34.9506276">
<ele>139.000000</ele>
<time>2010-01-01T00:58:26.000Z</time>
</trkpt>
<trkpt lat="31.9005969" lon="34.9506876">
<ele>140.000000</ele>
<time>2010-01-01T00:58:30.000Z</time>
</trkpt>
<trkpt lat="31.9006875" lon="34.9507532">
<ele>140.000000</ele>
<time>2010-01-01T00:58:34.000Z</time>
</trkpt>
<trkpt lat="31.9007675" lon="34.9508318">
<ele>140.000000</ele>
<time>2010-01-01T00:58:39.000Z</time>
</trkpt>
<trkpt lat="31.9008502" lon="34.9508764">
<ele>140.000000</ele>
<time>2010-01-01T00:58:42.000Z</time>
</trkpt>
<trkpt lat="31.9009386" lon="34.9509011">
<ele>141.000000</ele>
<time>2010-01-01T00:58:46.000Z</time>
</trkpt>
<trkpt lat="31.9010455" lon="34.9509246">
<ele>141.000000</ele>
<time>2010-01-01T00:58:50.000Z</time>
</trkpt>
<trkpt lat="31.9011395" lon="34.9509394">
<ele>141.000000</ele>
<time>2010-01-01T00:58:54.000Z</time>
</trkpt>
<trkpt lat="31.9012496" lon="34.9509730">
<ele>140.000000</ele>
<time>2010-01-01T00:58:59.000Z</time>
</trkpt>
<trkpt lat="31.9013580" lon="34.9509836">
<ele>140.000000</ele>
<time>2010-01-01T00:59:03.000Z</time>
</trkpt>
<trkpt lat="31.9014730" lon="34.9509595">
<ele>139.000000</ele>
<time>2010-01-01T00:59:08.000Z</time>
</trkpt>
<trkpt lat="31.9015721" lon="34.9509123">
<ele>140.000000</ele>
<time>2010-01-01T00:59:12.000Z</time>
</trkpt>
<trkpt lat="31.9016604" lon="34.9508722">
<ele>140.000000</ele>
<time>2010-01-01T00:59:16.000Z</time>
</trkpt>
<trkpt lat="31.9017774" lon="34.9508503">
<ele>141.000000</ele>
<time>2010-01-01T00:59:20.000Z</time>
</trkpt>
<trkpt lat="31.9018723" lon="34.9508533">
<ele>142.000000</ele>
<time>2010-01-01T00:59:24.000Z</time>
</trkpt>
<trkpt lat="31.9019778" lon="34.9508622">
<ele>143.000000</ele>
<time>2010-01-01T00:59:29.000Z</time>
</trkpt>
<trkpt lat="31.9020896" lon="34.9508519">
<ele>143.000000</ele>
<time>2010-01-01T00:59:33.000Z</time>
</trkpt>
<trkpt lat="31.9021920" lon="34.9508185">
<ele>144.000000</ele>
<time>2010-01-01T00:59:37.000Z</time>
</trkpt>
<trkpt lat="31.9022830" lon="34.9507894">
<ele>144.000000</ele>
<time>2010-01-01T00:59:41.000Z</time>
</trkpt>
<trkpt lat="31.9023736" lon="34.9507697">
<ele>144.000000</ele>
<time>2010-01-01T00:59:45.000Z</time>
</trkpt>
<trkpt lat="31.9024679" lon="34.9507591">
<ele>144.000000</ele>
<time>2010-01-01T00:59:49.000Z</time>
</trkpt>
<trkpt lat="31.9025608" lon="34.9507438">
<ele>145.000000</ele>
<time>2010-01-01T00:59:52.000Z</time>
</trkpt>
<trkpt lat="31.9026535" lon="34.9507302">
<ele>145.000000</ele>
<time>2010-01-01T00:59:56.000Z</time>
</trkpt>
<trkpt lat="31.9027754" lon="34.9507115">
<ele>146.000000</ele>
<time>2010-01-01T01:00:01.000Z</time>
</trkpt>
<trkpt lat="31.9028763" lon="34.9507113">
<ele>146.000000</ele>
<time>2010-01-01T01:00:05.000Z</time>
</trkpt>
<trkpt lat="31.9029790" lon="34.9507194">
<ele>147.000000</ele>
<time>2010-01-01T01:00:09.000Z</time>
</trkpt>
<trkpt lat="31.9030843" lon="34.9507390">
<ele>146.000000</ele>
<time>2010-01-01T01:00:13.000Z</time>
</trkpt>
<trkpt lat="31.9031942" lon="34.9507439">
<ele>146.000000</ele>
<time>2010-01-01T01:00:18.000Z</time>
</trkpt>
<trkpt lat="31.9033021" lon="34.9507255">
<ele>145.000000</ele>
<time>2010-01-01T01:00:22.000Z</time>
</trkpt>
<trkpt lat="31.9034060" lon="34.9507178">
<ele>145.000000</ele>
<time>2010-01-01T01:00:26.000Z</time>
</trkpt>
<trkpt lat="31.9035048" lon="34.9507363">
<ele>145.000000</ele>
<time>2010-01-01T01:00:30.000Z</time>
</trkpt>
<trkpt lat="31.9035958" lon="34.9507747">
<ele>145.000000</ele>
<time>2010-01-01T01:00:34.000Z</time>
</trkpt>
<trkpt lat="31.9036972" lon="34.9508243">
<ele>145.000000</ele>
<time>2010-01-01T01:00:39.000Z</time>
</trkpt>
<trkpt lat="31.9038039" lon="34.9508625">
<ele>145.000000</ele>
<time>2010-01-01T01:00:43.000Z</time>
</trkpt>
<trkpt lat="31.9039012" lon="34.9509010">
<ele>146.000000</ele>
<time>2010-01-01T01:00:47.000Z</time>
</trkpt>
<trkpt lat="31.9039915" lon="34.9509416">
<ele>146.000000</ele>
<time>2010-01-01T01:00:51.000Z</time>
</trkpt>
<trkpt lat="31.9040978" lon="34.9509907">
<ele>147.000000</ele>
<time>2010-01-01T01:00:56.000Z</time>
</trkpt>
<trkpt lat="31.9041921" lon="34.9510315">
<ele>148.000000</ele>
<time>2010-01-01T01:01:00.000Z</time>
</trkpt>
<trkpt lat="31.9042837" lon="34.9510546">
<ele>149.000000</ele>
<time>2010-01-01T01:01:03.000Z</time>
</trkpt>
<trkpt lat="31.9043771" lon="34.9511033">
<ele>150.000000</ele>
<time>2010-01-01T01:01:07.000Z</time>
</trkpt>
<trkpt lat="31.9044659" lon="34.9511604">
<ele>151.000000</ele>
<time>2010-01-01T01:01:11.000Z</time>
</trkpt>
<trkpt lat="31.9045576" lon="34.9511856">
<ele>152.000000</ele>
<time>2010-01-01T01:01:15.000Z</time>
</trkpt>
<trkpt lat="31.9045767" lon="34.9512910">
<ele>153.000000</ele>
<time>2010-01-01T01:01:19.000Z</time>
</trkpt>
<trkpt lat="31.9045912" lon="34.9513976">
<ele>153.000000</ele>
<time>2010-01-01T01:01:23.000Z</time>
</trkpt>
<trkpt lat="31.9046291" lon="34.9515106">
<ele>153.000000</ele>
<time>2010-01-01T01:01:27.000Z</time>
</trkpt>
<trkpt lat="31.9046682" lon="34.9516286">
<ele>153.000000</ele>
<time>2010-01-01T01:01:31.000Z</time>
</trkpt>
<trkpt lat="31.9047082" lon="34.9517484">
<ele>153.000000</ele>
<time>2010-01-01T01:01:35.000Z</time>
</trkpt>
<trkpt lat="31.9047300" lon="34.9518697">
<ele>154.000000</ele>
<time>2010-01-01T01:01:40.000Z</time>
</trkpt>
<trkpt lat="31.9047714" lon="34.9519880">
<ele>154.000000</ele>
<time>2010-01-01T01:01:44.000Z</time>
</trkpt>
<trkpt lat="31.9048169" lon="34.9520990">
<ele>155.000000</ele>
<time>2010-01-01T01:01:48.000Z</time>
</trkpt>
<trkpt lat="31.9048592" lon="34.9522139">
<ele>155.000000</ele>
<time>2010-01-01T01:01:52.000Z</time>
</trkpt>
<trkpt lat="31.9048846" lon="34.9523375">
<ele>156.000000</ele>
<time>2010-01-01T01:01:57.000Z</time>
</trkpt>
<trkpt lat="31.9049104" lon="34.9524657">
<ele>155.000000</ele>
<time>2010-01-01T01:02:01.000Z</time>
</trkpt>
<trkpt lat="31.9049347" lon="34.9525715">
<ele>156.000000</ele>
<time>2010-01-01T01:02:05.000Z</time>
</trkpt>
<trkpt lat="31.9049587" lon="34.9526976">
<ele>156.000000</ele>
<time>2010-01-01T01:02:09.000Z</time>
</trkpt>
<trkpt lat="31.9049898" lon="34.9528334">
<ele>157.000000</ele>
<time>2010-01-01T01:02:14.000Z</time>
</trkpt>
<trkpt lat="31.9050223" lon="34.9529435">
<ele>158.000000</ele>
<time>2010-01-01T01:02:18.000Z</time>
</trkpt>
<trkpt lat="31.9050556" lon="34.9530694">
<ele>158.000000</ele>
<time>2010-01-01T01:02:23.000Z</time>
</trkpt>
<trkpt lat="31.9050799" lon="34.9531861">
<ele>158.000000</ele>
<time>2010-01-01T01:02:27.000Z</time>
</trkpt>
<trkpt lat="31.9050961" lon="34.9533290">
<ele>158.000000</ele>
<time>2010-01-01T01:02:32.000Z</time>
</trkpt>
<trkpt lat="31.9051110" lon="34.9533571">
<ele>157.000000</ele>
<time>2010-01-01T01:02:33.000Z</time>
</trkpt>
<trkpt lat="31.9051908" lon="34.9533996">
<ele>157.000000</ele>
<time>2010-01-01T01:02:36.000Z</time>
</trkpt>
<trkpt lat="31.9052477" lon="34.9534952">
<ele>156.000000</ele>
<time>2010-01-01T01:02:40.000Z</time>
</trkpt>
<trkpt lat="31.9053108" lon="34.9536067">
<ele>156.000000</ele>
<time>2010-01-01T01:02:45.000Z</time>
</trkpt>
<trkpt lat="31.9053771" lon="34.9537143">
<ele>156.000000</ele>
<time>2010-01-01T01:02:49.000Z</time>
</trkpt>
<trkpt lat="31.9054589" lon="34.9537977">
<ele>157.000000</ele>
<time>2010-01-01T01:02:54.000Z</time>
</trkpt>
<trkpt lat="31.9055403" lon="34.9538652">
<ele>158.000000</ele>
<time>2010-01-01T01:02:57.000Z</time>
</trkpt>
<trkpt lat="31.9056291" lon="34.9539368">
<ele>158.000000</ele>
<time>2010-01-01T01:03:02.000Z</time>
</trkpt>
<trkpt lat="31.9057205" lon="34.9539925">
<ele>158.000000</ele>
<time>2010-01-01T01:03:06.000Z</time>
</trkpt>
<trkpt lat="31.9058076" lon="34.9540457">
<ele>158.000000</ele>
<time>2010-01-01T01:03:10.000Z</time>
</trkpt>
<trkpt lat="31.9058914" lon="34.9540891">
<ele>158.000000</ele>
<time>2010-01-01T01:03:14.000Z</time>
</trkpt>
<trkpt lat="31.9060007" lon="34.9541039">
<ele>158.000000</ele>
<time>2010-01-01T01:03:18.000Z</time>
</trkpt>
<trkpt lat="31.9060976" lon="34.9540929">
<ele>159.000000</ele>
<time>2010-01-01T01:03:22.000Z</time>
</trkpt>
<trkpt lat="31.9061914" lon="34.9540587">
<ele>160.000000</ele>
<time>2010-01-01T01:03:26.000Z</time>
</trkpt>
<trkpt lat="31.9062954" lon="34.9540580">
<ele>160.000000</ele>
<time>2010-01-01T01:03:30.000Z</time>
</trkpt>
<trkpt lat="31.9063929" lon="34.9540197">
<ele>161.000000</ele>
<time>2010-01-01T01:03:34.000Z</time>
</trkpt>
<trkpt lat="31.9064714" lon="34.9539640">
<ele>161.999985</ele>
<time>2010-01-01T01:03:38.000Z</time>
</trkpt>
<trkpt lat="31.9065194" lon="34.9538630">
<ele>163.000000</ele>
<time>2010-01-01T01:03:42.000Z</time>
</trkpt>
<trkpt lat="31.9065366" lon="34.9537391">
<ele>164.000000</ele>
<time>2010-01-01T01:03:46.000Z</time>
</trkpt>
<trkpt lat="31.9065847" lon="34.9536395">
<ele>165.000000</ele>
<time>2010-01-01T01:03:50.000Z</time>
</trkpt>
<trkpt lat="31.9066239" lon="34.9535312">
<ele>166.000000</ele>
<time>2010-01-01T01:03:54.000Z</time>
</trkpt>
<trkpt lat="31.9066779" lon="34.9534297">
<ele>166.000000</ele>
<time>2010-01-01T01:03:58.000Z</time>
</trkpt>
<trkpt lat="31.9067384" lon="34.9533380">
<ele>167.000000</ele>
<time>2010-01-01T01:04:02.000Z</time>
</trkpt>
<trkpt lat="31.9067948" lon="34.9532288">
<ele>168.000000</ele>
<time>2010-01-01T01:04:06.000Z</time>
</trkpt>
<trkpt lat="31.9068361" lon="34.9531247">
<ele>168.999985</ele>
<time>2010-01-01T01:04:10.000Z</time>
</trkpt>
<trkpt lat="31.9068990" lon="34.9530262">
<ele>170.000000</ele>
<time>2010-01-01T01:04:14.000Z</time>
</trkpt>
<trkpt lat="31.9069826" lon="34.9529698">
<ele>171.000000</ele>
<time>2010-01-01T01:04:18.000Z</time>
</trkpt>
<trkpt lat="31.9070605" lon="34.9530453">
<ele>170.000000</ele>
<time>2010-01-01T01:04:22.000Z</time>
</trkpt>
<trkpt lat="31.9070656" lon="34.9531300">
<ele>170.000000</ele>
<time>2010-01-01T01:04:25.000Z</time>
</trkpt>
<trkpt lat="31.9070578" lon="34.9531823">
<ele>170.000000</ele>
<time>2010-01-01T01:04:27.000Z</time>
</trkpt>
<trkpt lat="31.9070403" lon="34.9533033">
<ele>168.999985</ele>
<time>2010-01-01T01:04:31.000Z</time>
</trkpt>
<trkpt lat="31.9070173" lon="34.9534464">
<ele>168.999985</ele>
<time>2010-01-01T01:04:36.000Z</time>
</trkpt>
<trkpt lat="31.9069837" lon="34.9535742">
<ele>168.999985</ele>
<time>2010-01-01T01:04:40.000Z</time>
</trkpt>
<trkpt lat="31.9069276" lon="34.9537002">
<ele>168.000000</ele>
<time>2010-01-01T01:04:45.000Z</time>
</trkpt>
<trkpt lat="31.9068581" lon="34.9538223">
<ele>166.000000</ele>
<time>2010-01-01T01:04:50.000Z</time>
</trkpt>
<trkpt lat="31.9067699" lon="34.9539388">
<ele>165.000000</ele>
<time>2010-01-01T01:04:56.000Z</time>
</trkpt>
<trkpt lat="31.9066977" lon="34.9540088">
<ele>163.000000</ele>
<time>2010-01-01T01:04:59.000Z</time>
</trkpt>
<trkpt lat="31.9066348" lon="34.9540984">
<ele>161.999985</ele>
<time>2010-01-01T01:05:03.000Z</time>
</trkpt>
<trkpt lat="31.9065806" lon="34.9542227">
<ele>161.000000</ele>
<time>2010-01-01T01:05:08.000Z</time>
</trkpt>
<trkpt lat="31.9065168" lon="34.9543387">
<ele>161.000000</ele>
<time>2010-01-01T01:05:13.000Z</time>
</trkpt>
<trkpt lat="31.9064393" lon="34.9544115">
<ele>160.000000</ele>
<time>2010-01-01T01:05:17.000Z</time>
</trkpt>
<trkpt lat="31.9063234" lon="34.9544796">
<ele>159.000000</ele>
<time>2010-01-01T01:05:22.000Z</time>
</trkpt>
<trkpt lat="31.9062064" lon="34.9545275">
<ele>158.000000</ele>
<time>2010-01-01T01:05:27.000Z</time>
</trkpt>
<trkpt lat="31.9060870" lon="34.9545713">
<ele>156.000000</ele>
<time>2010-01-01T01:05:32.000Z</time>
</trkpt>
<trkpt lat="31.9060015" lon="34.9546387">
<ele>156.000000</ele>
<time>2010-01-01T01:05:36.000Z</time>
</trkpt>
<trkpt lat="31.9059028" lon="34.9547301">
<ele>156.000000</ele>
<time>2010-01-01T01:05:41.000Z</time>
</trkpt>
<trkpt lat="31.9058127" lon="34.9547927">
<ele>155.000000</ele>
<time>2010-01-01T01:05:45.000Z</time>
</trkpt>
<trkpt lat="31.9057306" lon="34.9548316">
<ele>154.000000</ele>
<time>2010-01-01T01:05:49.000Z</time>
</trkpt>
<trkpt lat="31.9056315" lon="34.9548959">
<ele>153.000000</ele>
<time>2010-01-01T01:05:53.000Z</time>
</trkpt>
<trkpt lat="31.9055423" lon="34.9549409">
<ele>152.000000</ele>
<time>2010-01-01T01:05:57.000Z</time>
</trkpt>
<trkpt lat="31.9054437" lon="34.9549725">
<ele>150.000000</ele>
<time>2010-01-01T01:06:01.000Z</time>
</trkpt>
<trkpt lat="31.9053475" lon="34.9550161">
<ele>149.000000</ele>
<time>2010-01-01T01:06:05.000Z</time>
</trkpt>
<trkpt lat="31.9052707" lon="34.9551066">
<ele>148.000000</ele>
<time>2010-01-01T01:06:10.000Z</time>
</trkpt>
<trkpt lat="31.9052157" lon="34.9552215">
<ele>148.000000</ele>
<time>2010-01-01T01:06:14.000Z</time>
</trkpt>
<trkpt lat="31.9051694" lon="34.9553513">
<ele>148.000000</ele>
<time>2010-01-01T01:06:19.000Z</time>
</trkpt>
<trkpt lat="31.9051471" lon="34.9554873">
<ele>148.000000</ele>
<time>2010-01-01T01:06:24.000Z</time>
</trkpt>
<trkpt lat="31.9051310" lon="34.9556171">
<ele>149.000000</ele>
<time>2010-01-01T01:06:28.000Z</time>
</trkpt>
<trkpt lat="31.9050929" lon="34.9557338">
<ele>149.000000</ele>
<time>2010-01-01T01:06:32.000Z</time>
</trkpt>
<trkpt lat="31.9050486" lon="34.9558366">
<ele>149.000000</ele>
<time>2010-01-01T01:06:36.000Z</time>
</trkpt>
<trkpt lat="31.9049538" lon="34.9559441">
<ele>148.000000</ele>
<time>2010-01-01T01:06:42.000Z</time>
</trkpt>
<trkpt lat="31.9048723" lon="34.9560135">
<ele>147.000000</ele>
<time>2010-01-01T01:06:46.000Z</time>
</trkpt>
<trkpt lat="31.9047947" lon="34.9561048">
<ele>147.000000</ele>
<time>2010-01-01T01:06:50.000Z</time>
</trkpt>
<trkpt lat="31.9047247" lon="34.9562052">
<ele>147.000000</ele>
<time>2010-01-01T01:06:54.000Z</time>
</trkpt>
<trkpt lat="31.9046632" lon="34.9563163">
<ele>146.000000</ele>
<time>2010-01-01T01:06:59.000Z</time>
</trkpt>
<trkpt lat="31.9046441" lon="34.9564424">
<ele>146.000000</ele>
<time>2010-01-01T01:07:03.000Z</time>
</trkpt>
<trkpt lat="31.9046549" lon="34.9565747">
<ele>146.000000</ele>
<time>2010-01-01T01:07:08.000Z</time>
</trkpt>
<trkpt lat="31.9046784" lon="34.9567335">
<ele>146.000000</ele>
<time>2010-01-01T01:07:13.000Z</time>
</trkpt>
<trkpt lat="31.9046973" lon="34.9568378">
<ele>146.000000</ele>
<time>2010-01-01T01:07:17.000Z</time>
</trkpt>
<trkpt lat="31.9047334" lon="34.9569920">
<ele>145.000000</ele>
<time>2010-01-01T01:07:22.000Z</time>
</trkpt>
<trkpt lat="31.9047720" lon="34.9570936">
<ele>145.000000</ele>
<time>2010-01-01T01:07:26.000Z</time>
</trkpt>
<trkpt lat="31.9048197" lon="34.9571922">
<ele>145.000000</ele>
<time>2010-01-01T01:07:30.000Z</time>
</trkpt>
<trkpt lat="31.9048645" lon="34.9572930">
<ele>144.000000</ele>
<time>2010-01-01T01:07:34.000Z</time>
</trkpt>
<trkpt lat="31.9049027" lon="34.9574003">
<ele>144.000000</ele>
<time>2010-01-01T01:07:38.000Z</time>
</trkpt>
<trkpt lat="31.9049374" lon="34.9575121">
<ele>143.000000</ele>
<time>2010-01-01T01:07:42.000Z</time>
</trkpt>
<trkpt lat="31.9049668" lon="34.9576281">
<ele>142.000000</ele>
<time>2010-01-01T01:07:46.000Z</time>
</trkpt>
<trkpt lat="31.9049999" lon="34.9577450">
<ele>142.000000</ele>
<time>2010-01-01T01:07:50.000Z</time>
</trkpt>
<trkpt lat="31.9050396" lon="34.9578545">
<ele>141.000000</ele>
<time>2010-01-01T01:07:54.000Z</time>
</trkpt>
<trkpt lat="31.9050824" lon="34.9579595">
<ele>141.000000</ele>
<time>2010-01-01T01:07:58.000Z</time>
</trkpt>
<trkpt lat="31.9051241" lon="34.9580668">
<ele>141.000000</ele>
<time>2010-01-01T01:08:02.000Z</time>
</trkpt>
<trkpt lat="31.9051591" lon="34.9581823">
<ele>141.000000</ele>
<time>2010-01-01T01:08:06.000Z</time>
</trkpt>
<trkpt lat="31.9051930" lon="34.9583030">
<ele>141.000000</ele>
<time>2010-01-01T01:08:11.000Z</time>
</trkpt>
<trkpt lat="31.9052263" lon="34.9584265">
<ele>140.000000</ele>
<time>2010-01-01T01:08:15.000Z</time>
</trkpt>
<trkpt lat="31.9052584" lon="34.9585547">
<ele>140.000000</ele>
<time>2010-01-01T01:08:20.000Z</time>
</trkpt>
<trkpt lat="31.9052933" lon="34.9586850">
<ele>141.000000</ele>
<time>2010-01-01T01:08:24.000Z</time>
</trkpt>
<trkpt lat="31.9053378" lon="34.9588220">
<ele>141.000000</ele>
<time>2010-01-01T01:08:29.000Z</time>
</trkpt>
<trkpt lat="31.9053881" lon="34.9589584">
<ele>142.000000</ele>
<time>2010-01-01T01:08:34.000Z</time>
</trkpt>
<trkpt lat="31.9054423" lon="34.9590906">
<ele>142.000000</ele>
<time>2010-01-01T01:08:39.000Z</time>
</trkpt>
<trkpt lat="31.9054978" lon="34.9592149">
<ele>142.000000</ele>
<time>2010-01-01T01:08:44.000Z</time>
</trkpt>
<trkpt lat="31.9055518" lon="34.9593348">
<ele>142.000000</ele>
<time>2010-01-01T01:08:49.000Z</time>
</trkpt>
<trkpt lat="31.9056092" lon="34.9594503">
<ele>142.000000</ele>
<time>2010-01-01T01:08:53.000Z</time>
</trkpt>
<trkpt lat="31.9056663" lon="34.9595613">
<ele>142.000000</ele>
<time>2010-01-01T01:08:58.000Z</time>
</trkpt>
<trkpt lat="31.9057234" lon="34.9596633">
<ele>142.000000</ele>
<time>2010-01-01T01:09:02.000Z</time>
</trkpt>
<trkpt lat="31.9057825" lon="34.9597614">
<ele>143.000000</ele>
<time>2010-01-01T01:09:06.000Z</time>
</trkpt>
<trkpt lat="31.9058400" lon="34.9598551">
<ele>143.000000</ele>
<time>2010-01-01T01:09:10.000Z</time>
</trkpt>
<trkpt lat="31.9058991" lon="34.9599434">
<ele>143.000000</ele>
<time>2010-01-01T01:09:14.000Z</time>
</trkpt>
<trkpt lat="31.9059594" lon="34.9600309">
<ele>142.000000</ele>
<time>2010-01-01T01:09:17.000Z</time>
</trkpt>
<trkpt lat="31.9060240" lon="34.9601163">
<ele>141.000000</ele>
<time>2010-01-01T01:09:21.000Z</time>
</trkpt>
<trkpt lat="31.9060898" lon="34.9601988">
<ele>141.000000</ele>
<time>2010-01-01T01:09:25.000Z</time>
</trkpt>
<trkpt lat="31.9061794" lon="34.9603176">
<ele>141.000000</ele>
<time>2010-01-01T01:09:31.000Z</time>
</trkpt>
<trkpt lat="31.9062743" lon="34.9604318">
<ele>141.000000</ele>
<time>2010-01-01T01:09:36.000Z</time>
</trkpt>
<trkpt lat="31.9063643" lon="34.9605521">
<ele>141.000000</ele>
<time>2010-01-01T01:09:41.000Z</time>
</trkpt>
<trkpt lat="31.9064523" lon="34.9606611">
<ele>142.000000</ele>
<time>2010-01-01T01:09:47.000Z</time>
</trkpt>
<trkpt lat="31.9065289" lon="34.9607753">
<ele>143.000000</ele>
<time>2010-01-01T01:09:52.000Z</time>
</trkpt>
<trkpt lat="31.9066220" lon="34.9608890">
<ele>143.000000</ele>
<time>2010-01-01T01:09:57.000Z</time>
</trkpt>
<trkpt lat="31.9067175" lon="34.9609986">
<ele>144.000000</ele>
<time>2010-01-01T01:10:02.000Z</time>
</trkpt>
<trkpt lat="31.9068093" lon="34.9611071">
<ele>145.000000</ele>
<time>2010-01-01T01:10:07.000Z</time>
</trkpt>
<trkpt lat="31.9069000" lon="34.9612202">
<ele>146.000000</ele>
<time>2010-01-01T01:10:13.000Z</time>
</trkpt>
<trkpt lat="31.9069948" lon="34.9613335">
<ele>146.000000</ele>
<time>2010-01-01T01:10:18.000Z</time>
</trkpt>
<trkpt lat="31.9070877" lon="34.9614479">
<ele>147.000000</ele>
<time>2010-01-01T01:10:23.000Z</time>
</trkpt>
<trkpt lat="31.9071529" lon="34.9615274">
<ele>147.000000</ele>
<time>2010-01-01T01:10:27.000Z</time>
</trkpt>
<trkpt lat="31.9072165" lon="34.9616076">
<ele>147.000000</ele>
<time>2010-01-01T01:10:31.000Z</time>
</trkpt>
<trkpt lat="31.9072813" lon="34.9616879">
<ele>147.000000</ele>
<time>2010-01-01T01:10:35.000Z</time>
</trkpt>
<trkpt lat="31.9073443" lon="34.9617658">
<ele>147.000000</ele>
<time>2010-01-01T01:10:38.000Z</time>
</trkpt>
<trkpt lat="31.9074363" lon="34.9618784">
<ele>146.000000</ele>
<time>2010-01-01T01:10:44.000Z</time>
</trkpt>
<trkpt lat="31.9075018" lon="34.9619564">
<ele>146.000000</ele>
<time>2010-01-01T01:10:47.000Z</time>
</trkpt>
<trkpt lat="31.9075674" lon="34.9620353">
<ele>145.000000</ele>
<time>2010-01-01T01:10:51.000Z</time>
</trkpt>
<trkpt lat="31.9076622" lon="34.9621464">
<ele>144.000000</ele>
<time>2010-01-01T01:10:57.000Z</time>
</trkpt>
<trkpt lat="31.9077238" lon="34.9622257">
<ele>144.000000</ele>
<time>2010-01-01T01:11:00.000Z</time>
</trkpt>
<trkpt lat="31.9077869" lon="34.9623029">
<ele>144.000000</ele>
<time>2010-01-01T01:11:04.000Z</time>
</trkpt>
<trkpt lat="31.9078505" lon="34.9623848">
<ele>143.000000</ele>
<time>2010-01-01T01:11:08.000Z</time>
</trkpt>
<trkpt lat="31.9079142" lon="34.9624691">
<ele>143.000000</ele>
<time>2010-01-01T01:11:11.000Z</time>
</trkpt>
<trkpt lat="31.9079746" lon="34.9625559">
<ele>143.000000</ele>
<time>2010-01-01T01:11:15.000Z</time>
</trkpt>
<trkpt lat="31.9080315" lon="34.9626426">
<ele>142.000000</ele>
<time>2010-01-01T01:11:19.000Z</time>
</trkpt>
<trkpt lat="31.9080884" lon="34.9627327">
<ele>142.000000</ele>
<time>2010-01-01T01:11:23.000Z</time>
</trkpt>
<trkpt lat="31.9081449" lon="34.9628232">
<ele>142.000000</ele>
<time>2010-01-01T01:11:27.000Z</time>
</trkpt>
<trkpt lat="31.9081929" lon="34.9629160">
<ele>142.000000</ele>
<time>2010-01-01T01:11:30.000Z</time>
</trkpt>
<trkpt lat="31.9082608" lon="34.9629988">
<ele>142.000000</ele>
<time>2010-01-01T01:11:34.000Z</time>
</trkpt>
<trkpt lat="31.9083551" lon="34.9629655">
<ele>143.000000</ele>
<time>2010-01-01T01:11:38.000Z</time>
</trkpt>
<trkpt lat="31.9084287" lon="34.9628899">
<ele>143.000000</ele>
<time>2010-01-01T01:11:42.000Z</time>
</trkpt>
<trkpt lat="31.9085205" lon="34.9628504">
<ele>144.000000</ele>
<time>2010-01-01T01:11:46.000Z</time>
</trkpt>
<trkpt lat="31.9086247" lon="34.9628131">
<ele>144.000000</ele>
<time>2010-01-01T01:11:50.000Z</time>
</trkpt>
<trkpt lat="31.9087285" lon="34.9627636">
<ele>146.000000</ele>
<time>2010-01-01T01:11:55.000Z</time>
</trkpt>
<trkpt lat="31.9088234" lon="34.9627060">
<ele>147.000000</ele>
<time>2010-01-01T01:11:59.000Z</time>
</trkpt>
<trkpt lat="31.9089165" lon="34.9626513">
<ele>149.000000</ele>
<time>2010-01-01T01:12:03.000Z</time>
</trkpt>
<trkpt lat="31.9090094" lon="34.9626101">
<ele>150.000000</ele>
<time>2010-01-01T01:12:07.000Z</time>
</trkpt>
<trkpt lat="31.9091006" lon="34.9625693">
<ele>151.000000</ele>
<time>2010-01-01T01:12:11.000Z</time>
</trkpt>
<trkpt lat="31.9091950" lon="34.9625338">
<ele>152.000000</ele>
<time>2010-01-01T01:12:15.000Z</time>
</trkpt>
<trkpt lat="31.9092877" lon="34.9625081">
<ele>152.000000</ele>
<time>2010-01-01T01:12:19.000Z</time>
</trkpt>
<trkpt lat="31.9093860" lon="34.9624943">
<ele>152.000000</ele>
<time>2010-01-01T01:12:23.000Z</time>
</trkpt>
<trkpt lat="31.9094818" lon="34.9624895">
<ele>152.000000</ele>
<time>2010-01-01T01:12:27.000Z</time>
</trkpt>
<trkpt lat="31.9095789" lon="34.9624941">
<ele>152.000000</ele>
<time>2010-01-01T01:12:31.000Z</time>
</trkpt>
<trkpt lat="31.9096775" lon="34.9625063">
<ele>151.000000</ele>
<time>2010-01-01T01:12:35.000Z</time>
</trkpt>
<trkpt lat="31.9097765" lon="34.9625020">
<ele>152.000000</ele>
<time>2010-01-01T01:12:39.000Z</time>
</trkpt>
<trkpt lat="31.9098785" lon="34.9624969">
<ele>153.000000</ele>
<time>2010-01-01T01:12:43.000Z</time>
</trkpt>
<trkpt lat="31.9099801" lon="34.9624959">
<ele>154.000000</ele>
<time>2010-01-01T01:12:47.000Z</time>
</trkpt>
<trkpt lat="31.9100831" lon="34.9625030">
<ele>155.000000</ele>
<time>2010-01-01T01:12:51.000Z</time>
</trkpt>
<trkpt lat="31.9101842" lon="34.9625095">
<ele>156.000000</ele>
<time>2010-01-01T01:12:55.000Z</time>
</trkpt>
<trkpt lat="31.9102691" lon="34.9625379">
<ele>157.000000</ele>
<time>2010-01-01T01:12:58.000Z</time>
</trkpt>
<trkpt lat="31.9103694" lon="34.9626021">
<ele>156.000000</ele>
<time>2010-01-01T01:13:03.000Z</time>
</trkpt>
<trkpt lat="31.9104654" lon="34.9626475">
<ele>155.000000</ele>
<time>2010-01-01T01:13:07.000Z</time>
</trkpt>
<trkpt lat="31.9105805" lon="34.9626829">
<ele>155.000000</ele>
<time>2010-01-01T01:13:12.000Z</time>
</trkpt>
<trkpt lat="31.9106936" lon="34.9627116">
<ele>155.000000</ele>
<time>2010-01-01T01:13:17.000Z</time>
</trkpt>
<trkpt lat="31.9108117" lon="34.9627328">
<ele>156.000000</ele>
<time>2010-01-01T01:13:21.000Z</time>
</trkpt>
<trkpt lat="31.9109116" lon="34.9627286">
<ele>157.000000</ele>
<time>2010-01-01T01:13:25.000Z</time>
</trkpt>
<trkpt lat="31.9110084" lon="34.9627376">
<ele>158.000000</ele>
<time>2010-01-01T01:13:29.000Z</time>
</trkpt>
<trkpt lat="31.9109869" lon="34.9626166">
<ele>159.000000</ele>
<time>2010-01-01T01:13:33.000Z</time>
</trkpt>
<trkpt lat="31.9110006" lon="34.9625119">
<ele>160.000000</ele>
<time>2010-01-01T01:13:37.000Z</time>
</trkpt>
<trkpt lat="31.9110442" lon="34.9624006">
<ele>161.000000</ele>
<time>2010-01-01T01:13:41.000Z</time>
</trkpt>
<trkpt lat="31.9111095" lon="34.9623258">
<ele>161.999985</ele>
<time>2010-01-01T01:13:45.000Z</time>
</trkpt>
<trkpt lat="31.9111972" lon="34.9622444">
<ele>163.000000</ele>
<time>2010-01-01T01:13:49.000Z</time>
</trkpt>
<trkpt lat="31.9112378" lon="34.9621355">
<ele>164.000000</ele>
<time>2010-01-01T01:13:53.000Z</time>
</trkpt>
<trkpt lat="31.9112743" lon="34.9620323">
<ele>165.000000</ele>
<time>2010-01-01T01:13:57.000Z</time>
</trkpt>
<trkpt lat="31.9113261" lon="34.9619322">
<ele>166.000000</ele>
<time>2010-01-01T01:14:01.000Z</time>
</trkpt>
<trkpt lat="31.9114124" lon="34.9618911">
<ele>166.000000</ele>
<time>2010-01-01T01:14:05.000Z</time>
</trkpt>
<trkpt lat="31.9115089" lon="34.9619243">
<ele>165.000000</ele>
<time>2010-01-01T01:14:09.000Z</time>
</trkpt>
<trkpt lat="31.9115874" lon="34.9619989">
<ele>164.000000</ele>
<time>2010-01-01T01:14:13.000Z</time>
</trkpt>
<trkpt lat="31.9116608" lon="34.9620892">
<ele>163.000000</ele>
<time>2010-01-01T01:14:17.000Z</time>
</trkpt>
<trkpt lat="31.9117170" lon="34.9621759">
<ele>164.000000</ele>
<time>2010-01-01T01:14:21.000Z</time>
</trkpt>
<trkpt lat="31.9117879" lon="34.9622922">
<ele>164.000000</ele>
<time>2010-01-01T01:14:26.000Z</time>
</trkpt>
<trkpt lat="31.9118288" lon="34.9623891">
<ele>164.000000</ele>
<time>2010-01-01T01:14:29.000Z</time>
</trkpt>
<trkpt lat="31.9118538" lon="34.9625140">
<ele>163.000000</ele>
<time>2010-01-01T01:14:34.000Z</time>
</trkpt>
<trkpt lat="31.9119086" lon="34.9626373">
<ele>163.000000</ele>
<time>2010-01-01T01:14:38.000Z</time>
</trkpt>
<trkpt lat="31.9119975" lon="34.9627107">
<ele>163.000000</ele>
<time>2010-01-01T01:14:43.000Z</time>
</trkpt>
<trkpt lat="31.9121133" lon="34.9627483">
<ele>164.000000</ele>
<time>2010-01-01T01:14:48.000Z</time>
</trkpt>
<trkpt lat="31.9121986" lon="34.9627241">
<ele>166.000000</ele>
<time>2010-01-01T01:14:51.000Z</time>
</trkpt>
<trkpt lat="31.9122470" lon="34.9626198">
<ele>168.000000</ele>
<time>2010-01-01T01:14:55.000Z</time>
</trkpt>
<trkpt lat="31.9123469" lon="34.9625987">
<ele>168.999985</ele>
<time>2010-01-01T01:14:59.000Z</time>
</trkpt>
<trkpt lat="31.9124365" lon="34.9625967">
<ele>170.000000</ele>
<time>2010-01-01T01:15:03.000Z</time>
</trkpt>
<trkpt lat="31.9124879" lon="34.9625105">
<ele>171.000000</ele>
<time>2010-01-01T01:15:06.000Z</time>
</trkpt>
<trkpt lat="31.9124735" lon="34.9624026">
<ele>172.000000</ele>
<time>2010-01-01T01:15:10.000Z</time>
</trkpt>
<trkpt lat="31.9124400" lon="34.9622887">
<ele>173.000015</ele>
<time>2010-01-01T01:15:14.000Z</time>
</trkpt>
<trkpt lat="31.9124329" lon="34.9621804">
<ele>173.000015</ele>
<time>2010-01-01T01:15:18.000Z</time>
</trkpt>
<trkpt lat="31.9124888" lon="34.9620799">
<ele>174.000000</ele>
<time>2010-01-01T01:15:22.000Z</time>
</trkpt>
<trkpt lat="31.9125714" lon="34.9620342">
<ele>175.000000</ele>
<time>2010-01-01T01:15:26.000Z</time>
</trkpt>
<trkpt lat="31.9126573" lon="34.9620027">
<ele>175.999985</ele>
<time>2010-01-01T01:15:29.000Z</time>
</trkpt>
<trkpt lat="31.9127497" lon="34.9619638">
<ele>177.000000</ele>
<time>2010-01-01T01:15:33.000Z</time>
</trkpt>
<trkpt lat="31.9128467" lon="34.9619139">
<ele>178.000000</ele>
<time>2010-01-01T01:15:37.000Z</time>
</trkpt>
<trkpt lat="31.9129418" lon="34.9618675">
<ele>178.000000</ele>
<time>2010-01-01T01:15:42.000Z</time>
</trkpt>
<trkpt lat="31.9130312" lon="34.9618481">
<ele>179.000000</ele>
<time>2010-01-01T01:15:45.000Z</time>
</trkpt>
<trkpt lat="31.9131301" lon="34.9618365">
<ele>178.000000</ele>
<time>2010-01-01T01:15:49.000Z</time>
</trkpt>
<trkpt lat="31.9132314" lon="34.9618152">
<ele>177.000000</ele>
<time>2010-01-01T01:15:53.000Z</time>
</trkpt>
<trkpt lat="31.9133224" lon="34.9617847">
<ele>177.000000</ele>
<time>2010-01-01T01:15:57.000Z</time>
</trkpt>
<trkpt lat="31.9134243" lon="34.9618222">
<ele>175.999985</ele>
<time>2010-01-01T01:16:01.000Z</time>
</trkpt>
<trkpt lat="31.9134946" lon="34.9618992">
<ele>175.000000</ele>
<time>2010-01-01T01:16:05.000Z</time>
</trkpt>
<trkpt lat="31.9136102" lon="34.9619395">
<ele>175.000000</ele>
<time>2010-01-01T01:16:10.000Z</time>
</trkpt>
<trkpt lat="31.9137233" lon="34.9618927">
<ele>175.000000</ele>
<time>2010-01-01T01:16:15.000Z</time>
</trkpt>
<trkpt lat="31.9138315" lon="34.9618321">
<ele>175.999985</ele>
<time>2010-01-01T01:16:20.000Z</time>
</trkpt>
<trkpt lat="31.9139301" lon="34.9617914">
<ele>177.000000</ele>
<time>2010-01-01T01:16:24.000Z</time>
</trkpt>
<trkpt lat="31.9140449" lon="34.9617379">
<ele>177.000000</ele>
<time>2010-01-01T01:16:29.000Z</time>
</trkpt>
<trkpt lat="31.9141691" lon="34.9616826">
<ele>177.000000</ele>
<time>2010-01-01T01:16:34.000Z</time>
</trkpt>
<trkpt lat="31.9142602" lon="34.9616381">
<ele>175.999985</ele>
<time>2010-01-01T01:16:38.000Z</time>
</trkpt>
<trkpt lat="31.9143406" lon="34.9615711">
<ele>175.000000</ele>
<time>2010-01-01T01:16:42.000Z</time>
</trkpt>
<trkpt lat="31.9144106" lon="34.9614367">
<ele>174.000000</ele>
<time>2010-01-01T01:16:47.000Z</time>
</trkpt>
<trkpt lat="31.9144249" lon="34.9613233">
<ele>173.000015</ele>
<time>2010-01-01T01:16:51.000Z</time>
</trkpt>
<trkpt lat="31.9144355" lon="34.9612110">
<ele>172.000000</ele>
<time>2010-01-01T01:16:55.000Z</time>
</trkpt>
<trkpt lat="31.9144716" lon="34.9611051">
<ele>170.000000</ele>
<time>2010-01-01T01:16:59.000Z</time>
</trkpt>
<trkpt lat="31.9145402" lon="34.9610254">
<ele>170.000000</ele>
<time>2010-01-01T01:17:03.000Z</time>
</trkpt>
<trkpt lat="31.9146233" lon="34.9609678">
<ele>170.000000</ele>
<time>2010-01-01T01:17:07.000Z</time>
</trkpt>
<trkpt lat="31.9146981" lon="34.9608879">
<ele>168.999985</ele>
<time>2010-01-01T01:17:11.000Z</time>
</trkpt>
<trkpt lat="31.9147385" lon="34.9607648">
<ele>170.000000</ele>
<time>2010-01-01T01:17:15.000Z</time>
</trkpt>
<trkpt lat="31.9147634" lon="34.9606323">
<ele>170.000000</ele>
<time>2010-01-01T01:17:20.000Z</time>
</trkpt>
<trkpt lat="31.9147909" lon="34.9604912">
<ele>168.999985</ele>
<time>2010-01-01T01:17:25.000Z</time>
</trkpt>
<trkpt lat="31.9147922" lon="34.9603548">
<ele>168.999985</ele>
<time>2010-01-01T01:17:29.000Z</time>
</trkpt>
<trkpt lat="31.9147789" lon="34.9602330">
<ele>168.999985</ele>
<time>2010-01-01T01:17:33.000Z</time>
</trkpt>
<trkpt lat="31.9147920" lon="34.9601215">
<ele>168.999985</ele>
<time>2010-01-01T01:17:37.000Z</time>
</trkpt>
<trkpt lat="31.9148123" lon="34.9600004">
<ele>168.000000</ele>
<time>2010-01-01T01:17:41.000Z</time>
</trkpt>
<trkpt lat="31.9148135" lon="34.9598703">
<ele>168.000000</ele>
<time>2010-01-01T01:17:46.000Z</time>
</trkpt>
<trkpt lat="31.9147862" lon="34.9597416">
<ele>168.000000</ele>
<time>2010-01-01T01:17:50.000Z</time>
</trkpt>
<trkpt lat="31.9147404" lon="34.9596245">
<ele>168.000000</ele>
<time>2010-01-01T01:17:55.000Z</time>
</trkpt>
<trkpt lat="31.9146899" lon="34.9595245">
<ele>168.000000</ele>
<time>2010-01-01T01:17:59.000Z</time>
</trkpt>
<trkpt lat="31.9146453" lon="34.9594296">
<ele>168.000000</ele>
<time>2010-01-01T01:18:02.000Z</time>
</trkpt>
<trkpt lat="31.9146128" lon="34.9592712">
<ele>167.000000</ele>
<time>2010-01-01T01:18:08.000Z</time>
</trkpt>
<trkpt lat="31.9146229" lon="34.9591618">
<ele>166.000000</ele>
<time>2010-01-01T01:18:12.000Z</time>
</trkpt>
<trkpt lat="31.9146274" lon="34.9590516">
<ele>165.000000</ele>
<time>2010-01-01T01:18:15.000Z</time>
</trkpt>
<trkpt lat="31.9146298" lon="34.9589357">
<ele>164.000000</ele>
<time>2010-01-01T01:18:19.000Z</time>
</trkpt>
<trkpt lat="31.9146113" lon="34.9587931">
<ele>163.000000</ele>
<time>2010-01-01T01:18:24.000Z</time>
</trkpt>
<trkpt lat="31.9146157" lon="34.9586488">
<ele>161.000000</ele>
<time>2010-01-01T01:18:29.000Z</time>
</trkpt>
<trkpt lat="31.9146184" lon="34.9585374">
<ele>160.000000</ele>
<time>2010-01-01T01:18:33.000Z</time>
</trkpt>
<trkpt lat="31.9146032" lon="34.9584277">
<ele>160.000000</ele>
<time>2010-01-01T01:18:37.000Z</time>
</trkpt>
<trkpt lat="31.9145643" lon="34.9582955">
<ele>159.000000</ele>
<time>2010-01-01T01:18:42.000Z</time>
</trkpt>
<trkpt lat="31.9145778" lon="34.9581592">
<ele>159.000000</ele>
<time>2010-01-01T01:18:46.000Z</time>
</trkpt>
<trkpt lat="31.9146404" lon="34.9580795">
<ele>158.000000</ele>
<time>2010-01-01T01:18:50.000Z</time>
</trkpt>
<trkpt lat="31.9147293" lon="34.9581533">
<ele>158.000000</ele>
<time>2010-01-01T01:18:54.000Z</time>
</trkpt>
<trkpt lat="31.9147960" lon="34.9582587">
<ele>158.000000</ele>
<time>2010-01-01T01:18:59.000Z</time>
</trkpt>
<trkpt lat="31.9148762" lon="34.9583724">
<ele>158.000000</ele>
<time>2010-01-01T01:19:04.000Z</time>
</trkpt>
<trkpt lat="31.9149906" lon="34.9584753">
<ele>157.000000</ele>
<time>2010-01-01T01:19:09.000Z</time>
</trkpt>
<trkpt lat="31.9150853" lon="34.9585346">
<ele>157.000000</ele>
<time>2010-01-01T01:19:14.000Z</time>
</trkpt>
<trkpt lat="31.9151837" lon="34.9585975">
<ele>156.000000</ele>
<time>2010-01-01T01:19:18.000Z</time>
</trkpt>
<trkpt lat="31.9152575" lon="34.9586847">
<ele>155.000000</ele>
<time>2010-01-01T01:19:22.000Z</time>
</trkpt>
<trkpt lat="31.9153276" lon="34.9587742">
<ele>155.000000</ele>
<time>2010-01-01T01:19:27.000Z</time>
</trkpt>
<trkpt lat="31.9154039" lon="34.9588631">
<ele>154.000000</ele>
<time>2010-01-01T01:19:31.000Z</time>
</trkpt>
<trkpt lat="31.9154719" lon="34.9589593">
<ele>153.000000</ele>
<time>2010-01-01T01:19:35.000Z</time>
</trkpt>
<trkpt lat="31.9155376" lon="34.9590537">
<ele>152.000000</ele>
<time>2010-01-01T01:19:39.000Z</time>
</trkpt>
<trkpt lat="31.9156133" lon="34.9591490">
<ele>151.000000</ele>
<time>2010-01-01T01:19:44.000Z</time>
</trkpt>
<trkpt lat="31.9157005" lon="34.9592418">
<ele>151.000000</ele>
<time>2010-01-01T01:19:48.000Z</time>
</trkpt>
<trkpt lat="31.9157937" lon="34.9593362">
<ele>150.000000</ele>
<time>2010-01-01T01:19:53.000Z</time>
</trkpt>
<trkpt lat="31.9158876" lon="34.9594361">
<ele>150.000000</ele>
<time>2010-01-01T01:19:58.000Z</time>
</trkpt>
<trkpt lat="31.9159843" lon="34.9595455">
<ele>149.000000</ele>
<time>2010-01-01T01:20:04.000Z</time>
</trkpt>
<trkpt lat="31.9160540" lon="34.9596742">
<ele>148.000000</ele>
<time>2010-01-01T01:20:09.000Z</time>
</trkpt>
<trkpt lat="31.9161070" lon="34.9598055">
<ele>148.000000</ele>
<time>2010-01-01T01:20:14.000Z</time>
</trkpt>
<trkpt lat="31.9161754" lon="34.9599224">
<ele>149.000000</ele>
<time>2010-01-01T01:20:19.000Z</time>
</trkpt>
<trkpt lat="31.9162625" lon="34.9600089">
<ele>149.000000</ele>
<time>2010-01-01T01:20:23.000Z</time>
</trkpt>
<trkpt lat="31.9163598" lon="34.9600617">
<ele>149.000000</ele>
<time>2010-01-01T01:20:28.000Z</time>
</trkpt>
<trkpt lat="31.9164668" lon="34.9600987">
<ele>149.000000</ele>
<time>2010-01-01T01:20:32.000Z</time>
</trkpt>
<trkpt lat="31.9165814" lon="34.9601225">
<ele>149.000000</ele>
<time>2010-01-01T01:20:37.000Z</time>
</trkpt>
<trkpt lat="31.9167092" lon="34.9601471">
<ele>149.000000</ele>
<time>2010-01-01T01:20:42.000Z</time>
</trkpt>
<trkpt lat="31.9168529" lon="34.9601796">
<ele>149.000000</ele>
<time>2010-01-01T01:20:48.000Z</time>
</trkpt>
<trkpt lat="31.9170033" lon="34.9602342">
<ele>148.000000</ele>
<time>2010-01-01T01:20:54.000Z</time>
</trkpt>
<trkpt lat="31.9171451" lon="34.9603100">
<ele>148.000000</ele>
<time>2010-01-01T01:21:00.000Z</time>
</trkpt>
<trkpt lat="31.9172790" lon="34.9603893">
<ele>147.000000</ele>
<time>2010-01-01T01:21:06.000Z</time>
</trkpt>
<trkpt lat="31.9174084" lon="34.9604668">
<ele>146.000000</ele>
<time>2010-01-01T01:21:12.000Z</time>
</trkpt>
<trkpt lat="31.9175379" lon="34.9605148">
<ele>145.000000</ele>
<time>2010-01-01T01:21:18.000Z</time>
</trkpt>
<trkpt lat="31.9176704" lon="34.9605359">
<ele>144.000000</ele>
<time>2010-01-01T01:21:23.000Z</time>
</trkpt>
<trkpt lat="31.9178015" lon="34.9605623">
<ele>143.000000</ele>
<time>2010-01-01T01:21:28.000Z</time>
</trkpt>
<trkpt lat="31.9179280" lon="34.9606027">
<ele>142.000000</ele>
<time>2010-01-01T01:21:33.000Z</time>
</trkpt>
<trkpt lat="31.9180487" lon="34.9606476">
<ele>142.000000</ele>
<time>2010-01-01T01:21:38.000Z</time>
</trkpt>
<trkpt lat="31.9181706" lon="34.9606771">
<ele>141.000000</ele>
<time>2010-01-01T01:21:43.000Z</time>
</trkpt>
<trkpt lat="31.9182892" lon="34.9606893">
<ele>140.000000</ele>
<time>2010-01-01T01:21:48.000Z</time>
</trkpt>
<trkpt lat="31.9183995" lon="34.9606809">
<ele>140.000000</ele>
<time>2010-01-01T01:21:53.000Z</time>
</trkpt>
<trkpt lat="31.9185085" lon="34.9606700">
<ele>139.000000</ele>
<time>2010-01-01T01:21:57.000Z</time>
</trkpt>
<trkpt lat="31.9186223" lon="34.9606575">
<ele>139.000000</ele>
<time>2010-01-01T01:22:02.000Z</time>
</trkpt>
<trkpt lat="31.9187345" lon="34.9606546">
<ele>138.000000</ele>
<time>2010-01-01T01:22:06.000Z</time>
</trkpt>
<trkpt lat="31.9188506" lon="34.9606620">
<ele>138.000000</ele>
<time>2010-01-01T01:22:11.000Z</time>
</trkpt>
<trkpt lat="31.9189694" lon="34.9606688">
<ele>137.000000</ele>
<time>2010-01-01T01:22:16.000Z</time>
</trkpt>
<trkpt lat="31.9190860" lon="34.9606611">
<ele>136.000000</ele>
<time>2010-01-01T01:22:20.000Z</time>
</trkpt>
<trkpt lat="31.9191841" lon="34.9606436">
<ele>135.000000</ele>
<time>2010-01-01T01:22:24.000Z</time>
</trkpt>
<trkpt lat="31.9192983" lon="34.9606373">
<ele>134.000000</ele>
<time>2010-01-01T01:22:29.000Z</time>
</trkpt>
<trkpt lat="31.9194370" lon="34.9606417">
<ele>134.000000</ele>
<time>2010-01-01T01:22:34.000Z</time>
</trkpt>
<trkpt lat="31.9195649" lon="34.9606401">
<ele>134.000000</ele>
<time>2010-01-01T01:22:39.000Z</time>
</trkpt>
<trkpt lat="31.9196521" lon="34.9605636">
<ele>134.000000</ele>
<time>2010-01-01T01:22:44.000Z</time>
</trkpt>
<trkpt lat="31.9196973" lon="34.9604151">
<ele>134.000000</ele>
<time>2010-01-01T01:22:49.000Z</time>
</trkpt>
<trkpt lat="31.9197248" lon="34.9603011">
<ele>134.000000</ele>
<time>2010-01-01T01:22:53.000Z</time>
</trkpt>
<trkpt lat="31.9197627" lon="34.9601961">
<ele>135.000000</ele>
<time>2010-01-01T01:22:57.000Z</time>
</trkpt>
<trkpt lat="31.9198015" lon="34.9600980">
<ele>135.000000</ele>
<time>2010-01-01T01:23:01.000Z</time>
</trkpt>
<trkpt lat="31.9198734" lon="34.9599600">
<ele>135.000000</ele>
<time>2010-01-01T01:23:06.000Z</time>
</trkpt>
<trkpt lat="31.9199347" lon="34.9598708">
<ele>134.000000</ele>
<time>2010-01-01T01:23:10.000Z</time>
</trkpt>
<trkpt lat="31.9200070" lon="34.9597881">
<ele>134.000000</ele>
<time>2010-01-01T01:23:14.000Z</time>
</trkpt>
<trkpt lat="31.9200818" lon="34.9597059">
<ele>134.000000</ele>
<time>2010-01-01T01:23:18.000Z</time>
</trkpt>
<trkpt lat="31.9201584" lon="34.9596225">
<ele>134.000000</ele>
<time>2010-01-01T01:23:22.000Z</time>
</trkpt>
<trkpt lat="31.9202327" lon="34.9595305">
<ele>134.000000</ele>
<time>2010-01-01T01:23:27.000Z</time>
</trkpt>
<trkpt lat="31.9202905" lon="34.9594221">
<ele>135.000000</ele>
<time>2010-01-01T01:23:31.000Z</time>
</trkpt>
<trkpt lat="31.9203274" lon="34.9592992">
<ele>135.000000</ele>
<time>2010-01-01T01:23:36.000Z</time>
</trkpt>
<trkpt lat="31.9203548" lon="34.9591688">
<ele>135.000000</ele>
<time>2010-01-01T01:23:40.000Z</time>
</trkpt>
<trkpt lat="31.9203807" lon="34.9590305">
<ele>135.000000</ele>
<time>2010-01-01T01:23:45.000Z</time>
</trkpt>
<trkpt lat="31.9204071" lon="34.9588878">
<ele>134.000000</ele>
<time>2010-01-01T01:23:50.000Z</time>
</trkpt>
<trkpt lat="31.9204351" lon="34.9587422">
<ele>133.000000</ele>
<time>2010-01-01T01:23:55.000Z</time>
</trkpt>
<trkpt lat="31.9204560" lon="34.9585909">
<ele>133.000000</ele>
<time>2010-01-01T01:24:00.000Z</time>
</trkpt>
<trkpt lat="31.9204682" lon="34.9584363">
<ele>132.000000</ele>
<time>2010-01-01T01:24:05.000Z</time>
</trkpt>
<trkpt lat="31.9204898" lon="34.9582829">
<ele>131.000000</ele>
<time>2010-01-01T01:24:11.000Z</time>
</trkpt>
<trkpt lat="31.9205267" lon="34.9581285">
<ele>131.000000</ele>
<time>2010-01-01T01:24:16.000Z</time>
</trkpt>
<trkpt lat="31.9205604" lon="34.9579737">
<ele>130.000000</ele>
<time>2010-01-01T01:24:22.000Z</time>
</trkpt>
<trkpt lat="31.9205863" lon="34.9578222">
<ele>130.000000</ele>
<time>2010-01-01T01:24:27.000Z</time>
</trkpt>
<trkpt lat="31.9206123" lon="34.9576983">
<ele>129.000000</ele>
<time>2010-01-01T01:24:31.000Z</time>
</trkpt>
<trkpt lat="31.9206506" lon="34.9575726">
<ele>128.000000</ele>
<time>2010-01-01T01:24:36.000Z</time>
</trkpt>
<trkpt lat="31.9207128" lon="34.9575130">
<ele>128.000000</ele>
<time>2010-01-01T01:24:39.000Z</time>
</trkpt>
<trkpt lat="31.9207992" lon="34.9575542">
<ele>128.000000</ele>
<time>2010-01-01T01:24:43.000Z</time>
</trkpt>
<trkpt lat="31.9208958" lon="34.9575981">
<ele>128.000000</ele>
<time>2010-01-01T01:24:47.000Z</time>
</trkpt>
<trkpt lat="31.9209966" lon="34.9576070">
<ele>129.000000</ele>
<time>2010-01-01T01:24:51.000Z</time>
</trkpt>
<trkpt lat="31.9210873" lon="34.9576492">
<ele>130.000000</ele>
<time>2010-01-01T01:24:55.000Z</time>
</trkpt>
<trkpt lat="31.9211939" lon="34.9576680">
<ele>131.000000</ele>
<time>2010-01-01T01:24:59.000Z</time>
</trkpt>
<trkpt lat="31.9212596" lon="34.9576627">
<ele>132.000000</ele>
<time>2010-01-01T01:25:02.000Z</time>
</trkpt>
<trkpt lat="31.9213196" lon="34.9576877">
<ele>133.000000</ele>
<time>2010-01-01T01:25:04.000Z</time>
</trkpt>
<trkpt lat="31.9214082" lon="34.9577158">
<ele>135.000000</ele>
<time>2010-01-01T01:25:08.000Z</time>
</trkpt>
<trkpt lat="31.9214463" lon="34.9577183">
<ele>136.000000</ele>
<time>2010-01-01T01:25:09.000Z</time>
</trkpt>
<trkpt lat="31.9215414" lon="34.9576903">
<ele>136.000000</ele>
<time>2010-01-01T01:25:13.000Z</time>
</trkpt>
<trkpt lat="31.9216415" lon="34.9576579">
<ele>137.000000</ele>
<time>2010-01-01T01:25:18.000Z</time>
</trkpt>
<trkpt lat="31.9217329" lon="34.9576287">
<ele>138.000000</ele>
<time>2010-01-01T01:25:21.000Z</time>
</trkpt>
<trkpt lat="31.9218234" lon="34.9575841">
<ele>138.000000</ele>
<time>2010-01-01T01:25:25.000Z</time>
</trkpt>
<trkpt lat="31.9219136" lon="34.9575675">
<ele>138.000000</ele>
<time>2010-01-01T01:25:29.000Z</time>
</trkpt>
<trkpt lat="31.9219821" lon="34.9576465">
<ele>139.000000</ele>
<time>2010-01-01T01:25:33.000Z</time>
</trkpt>
<trkpt lat="31.9220420" lon="34.9577377">
<ele>140.000000</ele>
<time>2010-01-01T01:25:37.000Z</time>
</trkpt>
<trkpt lat="31.9221006" lon="34.9578348">
<ele>142.000000</ele>
<time>2010-01-01T01:25:41.000Z</time>
</trkpt>
<trkpt lat="31.9221548" lon="34.9579381">
<ele>143.000000</ele>
<time>2010-01-01T01:25:45.000Z</time>
</trkpt>
<trkpt lat="31.9222278" lon="34.9580157">
<ele>144.000000</ele>
<time>2010-01-01T01:25:49.000Z</time>
</trkpt>
<trkpt lat="31.9223140" lon="34.9580771">
<ele>145.000000</ele>
<time>2010-01-01T01:25:53.000Z</time>
</trkpt>
<trkpt lat="31.9223512" lon="34.9581899">
<ele>147.000000</ele>
<time>2010-01-01T01:25:57.000Z</time>
</trkpt>
<trkpt lat="31.9224019" lon="34.9582916">
<ele>149.000000</ele>
<time>2010-01-01T01:26:01.000Z</time>
</trkpt>
<trkpt lat="31.9224755" lon="34.9583658">
<ele>150.000000</ele>
<time>2010-01-01T01:26:05.000Z</time>
</trkpt>
<trkpt lat="31.9225465" lon="34.9584536">
<ele>150.000000</ele>
<time>2010-01-01T01:26:09.000Z</time>
</trkpt>
<trkpt lat="31.9226212" lon="34.9585217">
<ele>151.000000</ele>
<time>2010-01-01T01:26:13.000Z</time>
</trkpt>
<trkpt lat="31.9226994" lon="34.9585821">
<ele>151.000000</ele>
<time>2010-01-01T01:26:16.000Z</time>
</trkpt>
<trkpt lat="31.9227674" lon="34.9586517">
<ele>152.000000</ele>
<time>2010-01-01T01:26:20.000Z</time>
</trkpt>
<trkpt lat="31.9228174" lon="34.9587413">
<ele>153.000000</ele>
<time>2010-01-01T01:26:24.000Z</time>
</trkpt>
<trkpt lat="31.9228824" lon="34.9588320">
<ele>153.000000</ele>
<time>2010-01-01T01:26:28.000Z</time>
</trkpt>
<trkpt lat="31.9229396" lon="34.9589203">
<ele>154.000000</ele>
<time>2010-01-01T01:26:31.000Z</time>
</trkpt>
<trkpt lat="31.9230026" lon="34.9590123">
<ele>154.000000</ele>
<time>2010-01-01T01:26:35.000Z</time>
</trkpt>
<trkpt lat="31.9230625" lon="34.9590913">
<ele>155.000000</ele>
<time>2010-01-01T01:26:39.000Z</time>
</trkpt>
<trkpt lat="31.9231593" lon="34.9591666">
<ele>155.000000</ele>
<time>2010-01-01T01:26:44.000Z</time>
</trkpt>
<trkpt lat="31.9232450" lon="34.9592241">
<ele>155.000000</ele>
<time>2010-01-01T01:26:48.000Z</time>
</trkpt>
<trkpt lat="31.9233310" lon="34.9592894">
<ele>155.000000</ele>
<time>2010-01-01T01:26:52.000Z</time>
</trkpt>
<trkpt lat="31.9234325" lon="34.9593534">
<ele>155.000000</ele>
<time>2010-01-01T01:26:56.000Z</time>
</trkpt>
<trkpt lat="31.9234959" lon="34.9594683">
<ele>155.000000</ele>
<time>2010-01-01T01:27:01.000Z</time>
</trkpt>
<trkpt lat="31.9235331" lon="34.9595910">
<ele>157.000000</ele>
<time>2010-01-01T01:27:05.000Z</time>
</trkpt>
<trkpt lat="31.9235777" lon="34.9597002">
<ele>157.000000</ele>
<time>2010-01-01T01:27:10.000Z</time>
</trkpt>
<trkpt lat="31.9236321" lon="34.9597872">
<ele>157.000000</ele>
<time>2010-01-01T01:27:13.000Z</time>
</trkpt>
<trkpt lat="31.9236835" lon="34.9598956">
<ele>157.000000</ele>
<time>2010-01-01T01:27:17.000Z</time>
</trkpt>
<trkpt lat="31.9237092" lon="34.9600154">
<ele>158.000000</ele>
<time>2010-01-01T01:27:22.000Z</time>
</trkpt>
<trkpt lat="31.9237600" lon="34.9601306">
<ele>159.000000</ele>
<time>2010-01-01T01:27:26.000Z</time>
</trkpt>
<trkpt lat="31.9238244" lon="34.9602251">
<ele>159.000000</ele>
<time>2010-01-01T01:27:30.000Z</time>
</trkpt>
<trkpt lat="31.9239360" lon="34.9603027">
<ele>159.000000</ele>
<time>2010-01-01T01:27:35.000Z</time>
</trkpt>
<trkpt lat="31.9240285" lon="34.9603494">
<ele>158.000000</ele>
<time>2010-01-01T01:27:39.000Z</time>
</trkpt>
<trkpt lat="31.9241357" lon="34.9603979">
<ele>158.000000</ele>
<time>2010-01-01T01:27:44.000Z</time>
</trkpt>
<trkpt lat="31.9242572" lon="34.9604441">
<ele>157.000000</ele>
<time>2010-01-01T01:27:49.000Z</time>
</trkpt>
<trkpt lat="31.9243880" lon="34.9605110">
<ele>157.000000</ele>
<time>2010-01-01T01:27:55.000Z</time>
</trkpt>
<trkpt lat="31.9245022" lon="34.9605735">
<ele>157.000000</ele>
<time>2010-01-01T01:28:00.000Z</time>
</trkpt>
<trkpt lat="31.9246086" lon="34.9606154">
<ele>157.000000</ele>
<time>2010-01-01T01:28:04.000Z</time>
</trkpt>
<trkpt lat="31.9247109" lon="34.9606577">
<ele>156.000000</ele>
<time>2010-01-01T01:28:09.000Z</time>
</trkpt>
<trkpt lat="31.9248144" lon="34.9606956">
<ele>156.000000</ele>
<time>2010-01-01T01:28:13.000Z</time>
</trkpt>
<trkpt lat="31.9249173" lon="34.9607240">
<ele>155.000000</ele>
<time>2010-01-01T01:28:17.000Z</time>
</trkpt>
<trkpt lat="31.9250181" lon="34.9607367">
<ele>154.000000</ele>
<time>2010-01-01T01:28:21.000Z</time>
</trkpt>
<trkpt lat="31.9251128" lon="34.9607662">
<ele>155.000000</ele>
<time>2010-01-01T01:28:25.000Z</time>
</trkpt>
<trkpt lat="31.9252044" lon="34.9608152">
<ele>155.000000</ele>
<time>2010-01-01T01:28:29.000Z</time>
</trkpt>
<trkpt lat="31.9252929" lon="34.9608630">
<ele>156.000000</ele>
<time>2010-01-01T01:28:33.000Z</time>
</trkpt>
<trkpt lat="31.9253785" lon="34.9609087">
<ele>157.000000</ele>
<time>2010-01-01T01:28:37.000Z</time>
</trkpt>
<trkpt lat="31.9254697" lon="34.9609574">
<ele>157.000000</ele>
<time>2010-01-01T01:28:41.000Z</time>
</trkpt>
<trkpt lat="31.9255633" lon="34.9610128">
<ele>158.000000</ele>
<time>2010-01-01T01:28:45.000Z</time>
</trkpt>
<trkpt lat="31.9256621" lon="34.9610681">
<ele>157.000000</ele>
<time>2010-01-01T01:28:50.000Z</time>
</trkpt>
<trkpt lat="31.9257657" lon="34.9611062">
<ele>157.000000</ele>
<time>2010-01-01T01:28:54.000Z</time>
</trkpt>
<trkpt lat="31.9258665" lon="34.9611397">
<ele>157.000000</ele>
<time>2010-01-01T01:28:58.000Z</time>
</trkpt>
<trkpt lat="31.9259521" lon="34.9612106">
<ele>158.000000</ele>
<time>2010-01-01T01:29:02.000Z</time>
</trkpt>
<trkpt lat="31.9259196" lon="34.9613107">
<ele>158.000000</ele>
<time>2010-01-01T01:29:06.000Z</time>
</trkpt>
<trkpt lat="31.9258490" lon="34.9613941">
<ele>159.000000</ele>
<time>2010-01-01T01:29:10.000Z</time>
</trkpt>
<trkpt lat="31.9258419" lon="34.9614956">
<ele>160.000000</ele>
<time>2010-01-01T01:29:13.000Z</time>
</trkpt>
<trkpt lat="31.9259242" lon="34.9615800">
<ele>161.999985</ele>
<time>2010-01-01T01:29:18.000Z</time>
</trkpt>
<trkpt lat="31.9259975" lon="34.9616694">
<ele>164.000000</ele>
<time>2010-01-01T01:29:22.000Z</time>
</trkpt>
<trkpt lat="31.9260687" lon="34.9617832">
<ele>164.000000</ele>
<time>2010-01-01T01:29:27.000Z</time>
</trkpt>
<trkpt lat="31.9261412" lon="34.9618837">
<ele>165.000000</ele>
<time>2010-01-01T01:29:31.000Z</time>
</trkpt>
<trkpt lat="31.9262226" lon="34.9619723">
<ele>164.000000</ele>
<time>2010-01-01T01:29:36.000Z</time>
</trkpt>
<trkpt lat="31.9263425" lon="34.9620416">
<ele>163.000000</ele>
<time>2010-01-01T01:29:41.000Z</time>
</trkpt>
<trkpt lat="31.9264844" lon="34.9620438">
<ele>161.000000</ele>
<time>2010-01-01T01:29:47.000Z</time>
</trkpt>
<trkpt lat="31.9266346" lon="34.9620051">
<ele>159.000000</ele>
<time>2010-01-01T01:29:53.000Z</time>
</trkpt>
<trkpt lat="31.9267854" lon="34.9619500">
<ele>156.000000</ele>
<time>2010-01-01T01:29:59.000Z</time>
</trkpt>
<trkpt lat="31.9269347" lon="34.9619042">
<ele>154.000000</ele>
<time>2010-01-01T01:30:05.000Z</time>
</trkpt>
<trkpt lat="31.9270843" lon="34.9618416">
<ele>153.000000</ele>
<time>2010-01-01T01:30:12.000Z</time>
</trkpt>
<trkpt lat="31.9272426" lon="34.9617635">
<ele>153.000000</ele>
<time>2010-01-01T01:30:19.000Z</time>
</trkpt>
<trkpt lat="31.9274047" lon="34.9617035">
<ele>153.000000</ele>
<time>2010-01-01T01:30:25.000Z</time>
</trkpt>
<trkpt lat="31.9275659" lon="34.9616430">
<ele>153.000000</ele>
<time>2010-01-01T01:30:32.000Z</time>
</trkpt>
<trkpt lat="31.9277071" lon="34.9615837">
<ele>153.000000</ele>
<time>2010-01-01T01:30:38.000Z</time>
</trkpt>
<trkpt lat="31.9278043" lon="34.9615474">
<ele>153.000000</ele>
<time>2010-01-01T01:30:42.000Z</time>
</trkpt>
<trkpt lat="31.9278886" lon="34.9615848">
<ele>153.000000</ele>
<time>2010-01-01T01:30:46.000Z</time>
</trkpt>
<trkpt lat="31.9279942" lon="34.9615577">
<ele>153.000000</ele>
<time>2010-01-01T01:30:50.000Z</time>
</trkpt>
<trkpt lat="31.9280934" lon="34.9615526">
<ele>153.000000</ele>
<time>2010-01-01T01:30:54.000Z</time>
</trkpt>
<trkpt lat="31.9282053" lon="34.9615445">
<ele>153.000000</ele>
<time>2010-01-01T01:30:59.000Z</time>
</trkpt>
<trkpt lat="31.9283196" lon="34.9615619">
<ele>153.000000</ele>
<time>2010-01-01T01:31:03.000Z</time>
</trkpt>
<trkpt lat="31.9284145" lon="34.9615986">
<ele>152.000000</ele>
<time>2010-01-01T01:31:07.000Z</time>
</trkpt>
<trkpt lat="31.9285183" lon="34.9616786">
<ele>151.000000</ele>
<time>2010-01-01T01:31:12.000Z</time>
</trkpt>
<trkpt lat="31.9285865" lon="34.9617507">
<ele>151.000000</ele>
<time>2010-01-01T01:31:16.000Z</time>
</trkpt>
<trkpt lat="31.9286612" lon="34.9618275">
<ele>151.000000</ele>
<time>2010-01-01T01:31:20.000Z</time>
</trkpt>
<trkpt lat="31.9287340" lon="34.9619058">
<ele>150.000000</ele>
<time>2010-01-01T01:31:24.000Z</time>
</trkpt>
<trkpt lat="31.9288010" lon="34.9619942">
<ele>149.000000</ele>
<time>2010-01-01T01:31:28.000Z</time>
</trkpt>
<trkpt lat="31.9288518" lon="34.9620913">
<ele>149.000000</ele>
<time>2010-01-01T01:31:32.000Z</time>
</trkpt>
<trkpt lat="31.9289078" lon="34.9622343">
<ele>147.000000</ele>
<time>2010-01-01T01:31:37.000Z</time>
</trkpt>
<trkpt lat="31.9289294" lon="34.9623634">
<ele>147.000000</ele>
<time>2010-01-01T01:31:41.000Z</time>
</trkpt>
<trkpt lat="31.9290171" lon="34.9624224">
<ele>146.000000</ele>
<time>2010-01-01T01:31:46.000Z</time>
</trkpt>
<trkpt lat="31.9291224" lon="34.9623611">
<ele>145.000000</ele>
<time>2010-01-01T01:31:50.000Z</time>
</trkpt>
<trkpt lat="31.9292122" lon="34.9623021">
<ele>144.000000</ele>
<time>2010-01-01T01:31:54.000Z</time>
</trkpt>
<trkpt lat="31.9293286" lon="34.9622582">
<ele>144.000000</ele>
<time>2010-01-01T01:31:59.000Z</time>
</trkpt>
<trkpt lat="31.9294569" lon="34.9622427">
<ele>143.000000</ele>
<time>2010-01-01T01:32:04.000Z</time>
</trkpt>
<trkpt lat="31.9295876" lon="34.9622621">
<ele>142.000000</ele>
<time>2010-01-01T01:32:10.000Z</time>
</trkpt>
<trkpt lat="31.9297197" lon="34.9622909">
<ele>142.000000</ele>
<time>2010-01-01T01:32:15.000Z</time>
</trkpt>
<trkpt lat="31.9298600" lon="34.9623344">
<ele>141.000000</ele>
<time>2010-01-01T01:32:21.000Z</time>
</trkpt>
<trkpt lat="31.9300055" lon="34.9623720">
<ele>141.000000</ele>
<time>2010-01-01T01:32:27.000Z</time>
</trkpt>
<trkpt lat="31.9301308" lon="34.9623782">
<ele>140.000000</ele>
<time>2010-01-01T01:32:32.000Z</time>
</trkpt>
<trkpt lat="31.9302555" lon="34.9623560">
<ele>139.000000</ele>
<time>2010-01-01T01:32:37.000Z</time>
</trkpt>
<trkpt lat="31.9303591" lon="34.9623570">
<ele>138.000000</ele>
<time>2010-01-01T01:32:41.000Z</time>
</trkpt>
<trkpt lat="31.9304852" lon="34.9624004">
<ele>137.000000</ele>
<time>2010-01-01T01:32:46.000Z</time>
</trkpt>
<trkpt lat="31.9306041" lon="34.9624513">
<ele>136.000000</ele>
<time>2010-01-01T01:32:51.000Z</time>
</trkpt>
<trkpt lat="31.9307429" lon="34.9625175">
<ele>134.000000</ele>
<time>2010-01-01T01:32:57.000Z</time>
</trkpt>
<trkpt lat="31.9308953" lon="34.9625896">
<ele>132.000000</ele>
<time>2010-01-01T01:33:04.000Z</time>
</trkpt>
<trkpt lat="31.9310522" lon="34.9626414">
<ele>129.000000</ele>
<time>2010-01-01T01:33:10.000Z</time>
</trkpt>
<trkpt lat="31.9311908" lon="34.9626730">
<ele>127.000000</ele>
<time>2010-01-01T01:33:16.000Z</time>
</trkpt>
<trkpt lat="31.9313223" lon="34.9626960">
<ele>125.000000</ele>
<time>2010-01-01T01:33:21.000Z</time>
</trkpt>
<trkpt lat="31.9314559" lon="34.9626943">
<ele>124.000000</ele>
<time>2010-01-01T01:33:27.000Z</time>
</trkpt>
<trkpt lat="31.9315618" lon="34.9626787">
<ele>123.000000</ele>
<time>2010-01-01T01:33:31.000Z</time>
</trkpt>
<trkpt lat="31.9316688" lon="34.9626572">
<ele>122.000008</ele>
<time>2010-01-01T01:33:35.000Z</time>
</trkpt>
<trkpt lat="31.9317704" lon="34.9626280">
<ele>121.000000</ele>
<time>2010-01-01T01:33:40.000Z</time>
</trkpt>
<trkpt lat="31.9318835" lon="34.9626124">
<ele>120.000000</ele>
<time>2010-01-01T01:33:44.000Z</time>
</trkpt>
<trkpt lat="31.9319842" lon="34.9626065">
<ele>120.000000</ele>
<time>2010-01-01T01:33:48.000Z</time>
</trkpt>
<trkpt lat="31.9320863" lon="34.9626040">
<ele>119.000000</ele>
<time>2010-01-01T01:33:52.000Z</time>
</trkpt>
<trkpt lat="31.9321565" lon="34.9626699">
<ele>118.000000</ele>
<time>2010-01-01T01:33:56.000Z</time>
</trkpt>
<trkpt lat="31.9320727" lon="34.9627403">
<ele>118.000000</ele>
<time>2010-01-01T01:34:00.000Z</time>
</trkpt>
<trkpt lat="31.9319917" lon="34.9627966">
<ele>118.000000</ele>
<time>2010-01-01T01:34:04.000Z</time>
</trkpt>
<trkpt lat="31.9319043" lon="34.9628543">
<ele>119.000000</ele>
<time>2010-01-01T01:34:08.000Z</time>
</trkpt>
<trkpt lat="31.9318129" lon="34.9629341">
<ele>120.000000</ele>
<time>2010-01-01T01:34:12.000Z</time>
</trkpt>
<trkpt lat="31.9317212" lon="34.9630054">
<ele>122.000008</ele>
<time>2010-01-01T01:34:17.000Z</time>
</trkpt>
<trkpt lat="31.9316382" lon="34.9630813">
<ele>124.000000</ele>
<time>2010-01-01T01:34:21.000Z</time>
</trkpt>
<trkpt lat="31.9315746" lon="34.9631822">
<ele>126.000000</ele>
<time>2010-01-01T01:34:25.000Z</time>
</trkpt>
<trkpt lat="31.9315241" lon="34.9632910">
<ele>127.000000</ele>
<time>2010-01-01T01:34:29.000Z</time>
</trkpt>
<trkpt lat="31.9314669" lon="34.9633843">
<ele>128.000000</ele>
<time>2010-01-01T01:34:33.000Z</time>
</trkpt>
<trkpt lat="31.9314185" lon="34.9635342">
<ele>128.000000</ele>
<time>2010-01-01T01:34:39.000Z</time>
</trkpt>
<trkpt lat="31.9313818" lon="34.9636932">
<ele>127.000000</ele>
<time>2010-01-01T01:34:44.000Z</time>
</trkpt>
<trkpt lat="31.9313925" lon="34.9638468">
<ele>125.000000</ele>
<time>2010-01-01T01:34:50.000Z</time>
</trkpt>
<trkpt lat="31.9314366" lon="34.9639901">
<ele>124.000000</ele>
<time>2010-01-01T01:34:55.000Z</time>
</trkpt>
<trkpt lat="31.9314680" lon="34.9641296">
<ele>124.000000</ele>
<time>2010-01-01T01:35:00.000Z</time>
</trkpt>
<trkpt lat="31.9315197" lon="34.9642200">
<ele>124.000000</ele>
<time>2010-01-01T01:35:03.000Z</time>
</trkpt>
<trkpt lat="31.9316040" lon="34.9641192">
<ele>124.000000</ele>
<time>2010-01-01T01:35:08.000Z</time>
</trkpt>
<trkpt lat="31.9317005" lon="34.9640919">
<ele>125.000000</ele>
<time>2010-01-01T01:35:12.000Z</time>
</trkpt>
<trkpt lat="31.9317734" lon="34.9641923">
<ele>126.000000</ele>
<time>2010-01-01T01:35:17.000Z</time>
</trkpt>
<trkpt lat="31.9318127" lon="34.9642855">
<ele>126.000000</ele>
<time>2010-01-01T01:35:20.000Z</time>
</trkpt>
<trkpt lat="31.9318591" lon="34.9644133">
<ele>126.000000</ele>
<time>2010-01-01T01:35:25.000Z</time>
</trkpt>
<trkpt lat="31.9319028" lon="34.9645218">
<ele>126.000000</ele>
<time>2010-01-01T01:35:29.000Z</time>
</trkpt>
<trkpt lat="31.9319323" lon="34.9646268">
<ele>126.000000</ele>
<time>2010-01-01T01:35:33.000Z</time>
</trkpt>
<trkpt lat="31.9319536" lon="34.9647686">
<ele>127.000000</ele>
<time>2010-01-01T01:35:38.000Z</time>
</trkpt>
<trkpt lat="31.9319714" lon="34.9648823">
<ele>128.000000</ele>
<time>2010-01-01T01:35:42.000Z</time>
</trkpt>
<trkpt lat="31.9319803" lon="34.9650005">
<ele>129.000000</ele>
<time>2010-01-01T01:35:46.000Z</time>
</trkpt>
<trkpt lat="31.9319927" lon="34.9651274">
<ele>129.000000</ele>
<time>2010-01-01T01:35:50.000Z</time>
</trkpt>
<trkpt lat="31.9320068" lon="34.9652703">
<ele>129.000000</ele>
<time>2010-01-01T01:35:55.000Z</time>
</trkpt>
<trkpt lat="31.9320079" lon="34.9654193">
<ele>129.000000</ele>
<time>2010-01-01T01:36:00.000Z</time>
</trkpt>
<trkpt lat="31.9319978" lon="34.9655545">
<ele>129.000000</ele>
<time>2010-01-01T01:36:04.000Z</time>
</trkpt>
<trkpt lat="31.9319857" lon="34.9656917">
<ele>130.000000</ele>
<time>2010-01-01T01:36:09.000Z</time>
</trkpt>
<trkpt lat="31.9319607" lon="34.9658241">
<ele>130.000000</ele>
<time>2010-01-01T01:36:14.000Z</time>
</trkpt>
<trkpt lat="31.9319367" lon="34.9659615">
<ele>129.000000</ele>
<time>2010-01-01T01:36:19.000Z</time>
</trkpt>
<trkpt lat="31.9319097" lon="34.9661018">
<ele>129.000000</ele>
<time>2010-01-01T01:36:23.000Z</time>
</trkpt>
<trkpt lat="31.9318795" lon="34.9662409">
<ele>129.000000</ele>
<time>2010-01-01T01:36:28.000Z</time>
</trkpt>
<trkpt lat="31.9318536" lon="34.9663844">
<ele>129.000000</ele>
<time>2010-01-01T01:36:33.000Z</time>
</trkpt>
<trkpt lat="31.9318261" lon="34.9665319">
<ele>130.000000</ele>
<time>2010-01-01T01:36:38.000Z</time>
</trkpt>
<trkpt lat="31.9317945" lon="34.9666751">
<ele>131.000000</ele>
<time>2010-01-01T01:36:43.000Z</time>
</trkpt>
<trkpt lat="31.9317651" lon="34.9668119">
<ele>131.000000</ele>
<time>2010-01-01T01:36:48.000Z</time>
</trkpt>
<trkpt lat="31.9317167" lon="34.9669433">
<ele>130.000000</ele>
<time>2010-01-01T01:36:53.000Z</time>
</trkpt>
<trkpt lat="31.9316588" lon="34.9670570">
<ele>129.000000</ele>
<time>2010-01-01T01:36:58.000Z</time>
</trkpt>
<trkpt lat="31.9316033" lon="34.9671584">
<ele>129.000000</ele>
<time>2010-01-01T01:37:02.000Z</time>
</trkpt>
<trkpt lat="31.9315430" lon="34.9672629">
<ele>129.000000</ele>
<time>2010-01-01T01:37:06.000Z</time>
</trkpt>
<trkpt lat="31.9315468" lon="34.9673206">
<ele>129.000000</ele>
<time>2010-01-01T01:37:08.000Z</time>
</trkpt>
<trkpt lat="31.9316121" lon="34.9673664">
<ele>129.000000</ele>
<time>2010-01-01T01:37:11.000Z</time>
</trkpt>
<trkpt lat="31.9316699" lon="34.9674558">
<ele>129.000000</ele>
<time>2010-01-01T01:37:15.000Z</time>
</trkpt>
<trkpt lat="31.9317578" lon="34.9675301">
<ele>131.000000</ele>
<time>2010-01-01T01:37:19.000Z</time>
</trkpt>
<trkpt lat="31.9318329" lon="34.9675946">
<ele>133.000000</ele>
<time>2010-01-01T01:37:23.000Z</time>
</trkpt>
<trkpt lat="31.9319068" lon="34.9676717">
<ele>135.000000</ele>
<time>2010-01-01T01:37:27.000Z</time>
</trkpt>
<trkpt lat="31.9319758" lon="34.9677492">
<ele>137.000000</ele>
<time>2010-01-01T01:37:31.000Z</time>
</trkpt>
<trkpt lat="31.9320448" lon="34.9678316">
<ele>139.000000</ele>
<time>2010-01-01T01:37:35.000Z</time>
</trkpt>
<trkpt lat="31.9321094" lon="34.9679113">
<ele>141.000000</ele>
<time>2010-01-01T01:37:38.000Z</time>
</trkpt>
<trkpt lat="31.9321853" lon="34.9679909">
<ele>142.000000</ele>
<time>2010-01-01T01:37:42.000Z</time>
</trkpt>
<trkpt lat="31.9322640" lon="34.9680584">
<ele>143.000000</ele>
<time>2010-01-01T01:37:46.000Z</time>
</trkpt>
<trkpt lat="31.9323364" lon="34.9681266">
<ele>144.000000</ele>
<time>2010-01-01T01:37:50.000Z</time>
</trkpt>
<trkpt lat="31.9324237" lon="34.9682087">
<ele>145.000000</ele>
<time>2010-01-01T01:37:54.000Z</time>
</trkpt>
<trkpt lat="31.9325107" lon="34.9682904">
<ele>145.000000</ele>
<time>2010-01-01T01:37:59.000Z</time>
</trkpt>
<trkpt lat="31.9326004" lon="34.9683866">
<ele>147.000000</ele>
<time>2010-01-01T01:38:04.000Z</time>
</trkpt>
<trkpt lat="31.9326814" lon="34.9684578">
<ele>147.000000</ele>
<time>2010-01-01T01:38:08.000Z</time>
</trkpt>
<trkpt lat="31.9327601" lon="34.9685421">
<ele>148.000000</ele>
<time>2010-01-01T01:38:12.000Z</time>
</trkpt>
<trkpt lat="31.9328536" lon="34.9686183">
<ele>150.000000</ele>
<time>2010-01-01T01:38:17.000Z</time>
</trkpt>
<trkpt lat="31.9329321" lon="34.9686658">
<ele>152.000000</ele>
<time>2010-01-01T01:38:20.000Z</time>
</trkpt>
<trkpt lat="31.9329950" lon="34.9687309">
<ele>153.000000</ele>
<time>2010-01-01T01:38:24.000Z</time>
</trkpt>
<trkpt lat="31.9330729" lon="34.9688177">
<ele>154.000000</ele>
<time>2010-01-01T01:38:28.000Z</time>
</trkpt>
<trkpt lat="31.9331396" lon="34.9689126">
<ele>155.000000</ele>
<time>2010-01-01T01:38:32.000Z</time>
</trkpt>
<trkpt lat="31.9331994" lon="34.9690155">
<ele>155.000000</ele>
<time>2010-01-01T01:38:36.000Z</time>
</trkpt>
<trkpt lat="31.9332704" lon="34.9690915">
<ele>155.000000</ele>
<time>2010-01-01T01:38:40.000Z</time>
</trkpt>
<trkpt lat="31.9333500" lon="34.9691539">
<ele>156.000000</ele>
<time>2010-01-01T01:38:44.000Z</time>
</trkpt>
<trkpt lat="31.9334472" lon="34.9691995">
<ele>157.000000</ele>
<time>2010-01-01T01:38:48.000Z</time>
</trkpt>
<trkpt lat="31.9335384" lon="34.9692307">
<ele>158.000000</ele>
<time>2010-01-01T01:38:52.000Z</time>
</trkpt>
<trkpt lat="31.9336256" lon="34.9692760">
<ele>159.000000</ele>
<time>2010-01-01T01:38:56.000Z</time>
</trkpt>
<trkpt lat="31.9337175" lon="34.9693353">
<ele>161.000000</ele>
<time>2010-01-01T01:39:00.000Z</time>
</trkpt>
<trkpt lat="31.9338122" lon="34.9693937">
<ele>161.000000</ele>
<time>2010-01-01T01:39:04.000Z</time>
</trkpt>
<trkpt lat="31.9338918" lon="34.9694472">
<ele>161.999985</ele>
<time>2010-01-01T01:39:08.000Z</time>
</trkpt>
<trkpt lat="31.9339725" lon="34.9695192">
<ele>161.999985</ele>
<time>2010-01-01T01:39:12.000Z</time>
</trkpt>
<trkpt lat="31.9340559" lon="34.9695755">
<ele>163.000000</ele>
<time>2010-01-01T01:39:16.000Z</time>
</trkpt>
<trkpt lat="31.9341405" lon="34.9696206">
<ele>163.000000</ele>
<time>2010-01-01T01:39:19.000Z</time>
</trkpt>
<trkpt lat="31.9342302" lon="34.9696854">
<ele>163.000000</ele>
<time>2010-01-01T01:39:24.000Z</time>
</trkpt>
<trkpt lat="31.9343197" lon="34.9697468">
<ele>164.000000</ele>
<time>2010-01-01T01:39:28.000Z</time>
</trkpt>
<trkpt lat="31.9344214" lon="34.9698077">
<ele>166.000000</ele>
<time>2010-01-01T01:39:32.000Z</time>
</trkpt>
<trkpt lat="31.9345151" lon="34.9698687">
<ele>167.000000</ele>
<time>2010-01-01T01:39:37.000Z</time>
</trkpt>
<trkpt lat="31.9346151" lon="34.9699272">
<ele>168.000000</ele>
<time>2010-01-01T01:39:41.000Z</time>
</trkpt>
<trkpt lat="31.9346994" lon="34.9699653">
<ele>168.000000</ele>
<time>2010-01-01T01:39:45.000Z</time>
</trkpt>
<trkpt lat="31.9347958" lon="34.9700230">
<ele>168.999985</ele>
<time>2010-01-01T01:39:49.000Z</time>
</trkpt>
<trkpt lat="31.9348954" lon="34.9700593">
<ele>170.000000</ele>
<time>2010-01-01T01:39:53.000Z</time>
</trkpt>
<trkpt lat="31.9349983" lon="34.9700993">
<ele>170.000000</ele>
<time>2010-01-01T01:39:58.000Z</time>
</trkpt>
<trkpt lat="31.9350901" lon="34.9701143">
<ele>171.000000</ele>
<time>2010-01-01T01:40:01.000Z</time>
</trkpt>
<trkpt lat="31.9351921" lon="34.9701098">
<ele>171.000000</ele>
<time>2010-01-01T01:40:05.000Z</time>
</trkpt>
<trkpt lat="31.9352962" lon="34.9700676">
<ele>172.000000</ele>
<time>2010-01-01T01:40:10.000Z</time>
</trkpt>
<trkpt lat="31.9353976" lon="34.9700382">
<ele>173.000015</ele>
<time>2010-01-01T01:40:14.000Z</time>
</trkpt>
<trkpt lat="31.9354877" lon="34.9700013">
<ele>174.000000</ele>
<time>2010-01-01T01:40:18.000Z</time>
</trkpt>
<trkpt lat="31.9355439" lon="34.9700765">
<ele>175.000000</ele>
<time>2010-01-01T01:40:21.000Z</time>
</trkpt>
<trkpt lat="31.9356313" lon="34.9701242">
<ele>175.999985</ele>
<time>2010-01-01T01:40:25.000Z</time>
</trkpt>
<trkpt lat="31.9357169" lon="34.9701737">
<ele>178.000000</ele>
<time>2010-01-01T01:40:29.000Z</time>
</trkpt>
<trkpt lat="31.9358024" lon="34.9702016">
<ele>179.000000</ele>
<time>2010-01-01T01:40:32.000Z</time>
</trkpt>
<trkpt lat="31.9358816" lon="34.9702171">
<ele>181.000000</ele>
<time>2010-01-01T01:40:36.000Z</time>
</trkpt>
<trkpt lat="31.9359703" lon="34.9702603">
<ele>182.000000</ele>
<time>2010-01-01T01:40:39.000Z</time>
</trkpt>
<trkpt lat="31.9360617" lon="34.9702522">
<ele>183.000000</ele>
<time>2010-01-01T01:40:43.000Z</time>
</trkpt>
<trkpt lat="31.9361343" lon="34.9703057">
<ele>184.000000</ele>
<time>2010-01-01T01:40:47.000Z</time>
</trkpt>
<trkpt lat="31.9362182" lon="34.9703641">
<ele>184.000000</ele>
<time>2010-01-01T01:40:50.000Z</time>
</trkpt>
<trkpt lat="31.9363068" lon="34.9704071">
<ele>184.000000</ele>
<time>2010-01-01T01:40:54.000Z</time>
</trkpt>
<trkpt lat="31.9364170" lon="34.9704077">
<ele>183.000000</ele>
<time>2010-01-01T01:40:59.000Z</time>
</trkpt>
<trkpt lat="31.9364950" lon="34.9703395">
<ele>183.000000</ele>
<time>2010-01-01T01:41:03.000Z</time>
</trkpt>
<trkpt lat="31.9364644" lon="34.9702303">
<ele>183.000000</ele>
<time>2010-01-01T01:41:07.000Z</time>
</trkpt>
<trkpt lat="31.9364060" lon="34.9701226">
<ele>184.000000</ele>
<time>2010-01-01T01:41:11.000Z</time>
</trkpt>
<trkpt lat="31.9363587" lon="34.9700293">
<ele>184.000000</ele>
<time>2010-01-01T01:41:15.000Z</time>
</trkpt>
<trkpt lat="31.9363173" lon="34.9699322">
<ele>184.000000</ele>
<time>2010-01-01T01:41:18.000Z</time>
</trkpt>
<trkpt lat="31.9362774" lon="34.9698310">
<ele>183.000000</ele>
<time>2010-01-01T01:41:22.000Z</time>
</trkpt>
<trkpt lat="31.9362391" lon="34.9697226">
<ele>183.000000</ele>
<time>2010-01-01T01:41:26.000Z</time>
</trkpt>
<trkpt lat="31.9361855" lon="34.9696113">
<ele>182.000000</ele>
<time>2010-01-01T01:41:30.000Z</time>
</trkpt>
<trkpt lat="31.9361223" lon="34.9694975">
<ele>181.000000</ele>
<time>2010-01-01T01:41:35.000Z</time>
</trkpt>
<trkpt lat="31.9360615" lon="34.9693778">
<ele>180.000015</ele>
<time>2010-01-01T01:41:40.000Z</time>
</trkpt>
<trkpt lat="31.9360111" lon="34.9692585">
<ele>180.000015</ele>
<time>2010-01-01T01:41:44.000Z</time>
</trkpt>
<trkpt lat="31.9359671" lon="34.9691472">
<ele>179.000000</ele>
<time>2010-01-01T01:41:48.000Z</time>
</trkpt>
<trkpt lat="31.9359254" lon="34.9690497">
<ele>179.000000</ele>
<time>2010-01-01T01:41:52.000Z</time>
</trkpt>
<trkpt lat="31.9358713" lon="34.9689168">
<ele>179.000000</ele>
<time>2010-01-01T01:41:57.000Z</time>
</trkpt>
<trkpt lat="31.9358123" lon="34.9688076">
<ele>179.000000</ele>
<time>2010-01-01T01:42:02.000Z</time>
</trkpt>
<trkpt lat="31.9357503" lon="34.9687169">
<ele>179.000000</ele>
<time>2010-01-01T01:42:06.000Z</time>
</trkpt>
<trkpt lat="31.9356981" lon="34.9686107">
<ele>179.000000</ele>
<time>2010-01-01T01:42:10.000Z</time>
</trkpt>
<trkpt lat="31.9356618" lon="34.9684982">
<ele>179.000000</ele>
<time>2010-01-01T01:42:14.000Z</time>
</trkpt>
<trkpt lat="31.9356087" lon="34.9683780">
<ele>178.000000</ele>
<time>2010-01-01T01:42:18.000Z</time>
</trkpt>
<trkpt lat="31.9355377" lon="34.9682619">
<ele>179.000000</ele>
<time>2010-01-01T01:42:23.000Z</time>
</trkpt>
<trkpt lat="31.9354646" lon="34.9681639">
<ele>179.000000</ele>
<time>2010-01-01T01:42:28.000Z</time>
</trkpt>
<trkpt lat="31.9353979" lon="34.9680771">
<ele>179.000000</ele>
<time>2010-01-01T01:42:32.000Z</time>
</trkpt>
<trkpt lat="31.9353211" lon="34.9679861">
<ele>179.000000</ele>
<time>2010-01-01T01:42:36.000Z</time>
</trkpt>
<trkpt lat="31.9352470" lon="34.9678833">
<ele>179.000000</ele>
<time>2010-01-01T01:42:41.000Z</time>
</trkpt>
<trkpt lat="31.9351935" lon="34.9677736">
<ele>178.000000</ele>
<time>2010-01-01T01:42:45.000Z</time>
</trkpt>
<trkpt lat="31.9351425" lon="34.9676600">
<ele>177.000000</ele>
<time>2010-01-01T01:42:49.000Z</time>
</trkpt>
<trkpt lat="31.9351195" lon="34.9675453">
<ele>175.999985</ele>
<time>2010-01-01T01:42:53.000Z</time>
</trkpt>
<trkpt lat="31.9351687" lon="34.9674377">
<ele>175.000000</ele>
<time>2010-01-01T01:42:57.000Z</time>
</trkpt>
<trkpt lat="31.9352149" lon="34.9673259">
<ele>174.000000</ele>
<time>2010-01-01T01:43:02.000Z</time>
</trkpt>
<trkpt lat="31.9351378" lon="34.9672414">
<ele>174.000000</ele>
<time>2010-01-01T01:43:06.000Z</time>
</trkpt>
<trkpt lat="31.9350190" lon="34.9672142">
<ele>173.000015</ele>
<time>2010-01-01T01:43:11.000Z</time>
</trkpt>
<trkpt lat="31.9349190" lon="34.9671121">
<ele>172.000000</ele>
<time>2010-01-01T01:43:16.000Z</time>
</trkpt>
<trkpt lat="31.9348499" lon="34.9670397">
<ele>171.000000</ele>
<time>2010-01-01T01:43:20.000Z</time>
</trkpt>
<trkpt lat="31.9347405" lon="34.9669554">
<ele>170.000000</ele>
<time>2010-01-01T01:43:25.000Z</time>
</trkpt>
<trkpt lat="31.9346522" lon="34.9668753">
<ele>168.000000</ele>
<time>2010-01-01T01:43:29.000Z</time>
</trkpt>
<trkpt lat="31.9345900" lon="34.9667807">
<ele>166.000000</ele>
<time>2010-01-01T01:43:33.000Z</time>
</trkpt>
<trkpt lat="31.9345459" lon="34.9666679">
<ele>164.000000</ele>
<time>2010-01-01T01:43:38.000Z</time>
</trkpt>
<trkpt lat="31.9345016" lon="34.9665379">
<ele>163.000000</ele>
<time>2010-01-01T01:43:42.000Z</time>
</trkpt>
<trkpt lat="31.9344432" lon="34.9664218">
<ele>161.999985</ele>
<time>2010-01-01T01:43:47.000Z</time>
</trkpt>
<trkpt lat="31.9343817" lon="34.9663426">
<ele>161.999985</ele>
<time>2010-01-01T01:43:51.000Z</time>
</trkpt>
<trkpt lat="31.9342880" lon="34.9663247">
<ele>161.999985</ele>
<time>2010-01-01T01:43:54.000Z</time>
</trkpt>
<trkpt lat="31.9341739" lon="34.9663276">
<ele>161.000000</ele>
<time>2010-01-01T01:43:59.000Z</time>
</trkpt>
<trkpt lat="31.9341813" lon="34.9662435">
<ele>161.000000</ele>
<time>2010-01-01T01:44:02.000Z</time>
</trkpt>
<trkpt lat="31.9342379" lon="34.9661241">
<ele>161.000000</ele>
<time>2010-01-01T01:44:07.000Z</time>
</trkpt>
<trkpt lat="31.9342737" lon="34.9659994">
<ele>161.000000</ele>
<time>2010-01-01T01:44:11.000Z</time>
</trkpt>
<trkpt lat="31.9342926" lon="34.9658923">
<ele>161.000000</ele>
<time>2010-01-01T01:44:15.000Z</time>
</trkpt>
<trkpt lat="31.9343071" lon="34.9657860">
<ele>161.000000</ele>
<time>2010-01-01T01:44:18.000Z</time>
</trkpt>
<trkpt lat="31.9343196" lon="34.9656656">
<ele>161.000000</ele>
<time>2010-01-01T01:44:23.000Z</time>
</trkpt>
<trkpt lat="31.9343248" lon="34.9655309">
<ele>160.000000</ele>
<time>2010-01-01T01:44:27.000Z</time>
</trkpt>
<trkpt lat="31.9343231" lon="34.9654220">
<ele>160.000000</ele>
<time>2010-01-01T01:44:31.000Z</time>
</trkpt>
<trkpt lat="31.9343154" lon="34.9652961">
<ele>159.000000</ele>
<time>2010-01-01T01:44:35.000Z</time>
</trkpt>
<trkpt lat="31.9343193" lon="34.9651529">
<ele>159.000000</ele>
<time>2010-01-01T01:44:40.000Z</time>
</trkpt>
<trkpt lat="31.9343477" lon="34.9649993">
<ele>159.000000</ele>
<time>2010-01-01T01:44:45.000Z</time>
</trkpt>
<trkpt lat="31.9343989" lon="34.9648606">
<ele>159.000000</ele>
<time>2010-01-01T01:44:50.000Z</time>
</trkpt>
<trkpt lat="31.9344691" lon="34.9647414">
<ele>160.000000</ele>
<time>2010-01-01T01:44:55.000Z</time>
</trkpt>
<trkpt lat="31.9345415" lon="34.9646221">
<ele>159.000000</ele>
<time>2010-01-01T01:45:00.000Z</time>
</trkpt>
<trkpt lat="31.9345981" lon="34.9644928">
<ele>158.000000</ele>
<time>2010-01-01T01:45:05.000Z</time>
</trkpt>
<trkpt lat="31.9346322" lon="34.9643571">
<ele>156.000000</ele>
<time>2010-01-01T01:45:10.000Z</time>
</trkpt>
<trkpt lat="31.9346485" lon="34.9642186">
<ele>155.000000</ele>
<time>2010-01-01T01:45:15.000Z</time>
</trkpt>
<trkpt lat="31.9346538" lon="34.9640689">
<ele>153.000000</ele>
<time>2010-01-01T01:45:20.000Z</time>
</trkpt>
<trkpt lat="31.9346462" lon="34.9639099">
<ele>151.000000</ele>
<time>2010-01-01T01:45:25.000Z</time>
</trkpt>
<trkpt lat="31.9346141" lon="34.9637438">
<ele>149.000000</ele>
<time>2010-01-01T01:45:31.000Z</time>
</trkpt>
<trkpt lat="31.9345762" lon="34.9635720">
<ele>147.000000</ele>
<time>2010-01-01T01:45:37.000Z</time>
</trkpt>
<trkpt lat="31.9345389" lon="34.9634198">
<ele>145.000000</ele>
<time>2010-01-01T01:45:43.000Z</time>
</trkpt>
<trkpt lat="31.9344949" lon="34.9632645">
<ele>143.000000</ele>
<time>2010-01-01T01:45:48.000Z</time>
</trkpt>
<trkpt lat="31.9344574" lon="34.9630996">
<ele>140.000000</ele>
<time>2010-01-01T01:45:54.000Z</time>
</trkpt>
<trkpt lat="31.9344288" lon="34.9629440">
<ele>139.000000</ele>
<time>2010-01-01T01:45:59.000Z</time>
</trkpt>
<trkpt lat="31.9344118" lon="34.9627978">
<ele>138.000000</ele>
<time>2010-01-01T01:46:04.000Z</time>
</trkpt>
<trkpt lat="31.9344176" lon="34.9626562">
<ele>136.000000</ele>
<time>2010-01-01T01:46:09.000Z</time>
</trkpt>
<trkpt lat="31.9344480" lon="34.9625227">
<ele>136.000000</ele>
<time>2010-01-01T01:46:14.000Z</time>
</trkpt>
<trkpt lat="31.9344943" lon="34.9624140">
<ele>135.000000</ele>
<time>2010-01-01T01:46:18.000Z</time>
</trkpt>
<trkpt lat="31.9345727" lon="34.9623155">
<ele>134.000000</ele>
<time>2010-01-01T01:46:23.000Z</time>
</trkpt>
<trkpt lat="31.9346485" lon="34.9622439">
<ele>134.000000</ele>
<time>2010-01-01T01:46:26.000Z</time>
</trkpt>
<trkpt lat="31.9347354" lon="34.9621815">
<ele>133.000000</ele>
<time>2010-01-01T01:46:31.000Z</time>
</trkpt>
<trkpt lat="31.9348464" lon="34.9621446">
<ele>131.000000</ele>
<time>2010-01-01T01:46:35.000Z</time>
</trkpt>
<trkpt lat="31.9349323" lon="34.9621017">
<ele>130.000000</ele>
<time>2010-01-01T01:46:39.000Z</time>
</trkpt>
<trkpt lat="31.9350323" lon="34.9620473">
<ele>129.000000</ele>
<time>2010-01-01T01:46:43.000Z</time>
</trkpt>
<trkpt lat="31.9351365" lon="34.9619826">
<ele>127.000000</ele>
<time>2010-01-01T01:46:48.000Z</time>
</trkpt>
<trkpt lat="31.9352362" lon="34.9619217">
<ele>125.000000</ele>
<time>2010-01-01T01:46:52.000Z</time>
</trkpt>
<trkpt lat="31.9353265" lon="34.9618744">
<ele>124.000000</ele>
<time>2010-01-01T01:46:56.000Z</time>
</trkpt>
<trkpt lat="31.9354275" lon="34.9618227">
<ele>123.000000</ele>
<time>2010-01-01T01:47:01.000Z</time>
</trkpt>
<trkpt lat="31.9355124" lon="34.9617590">
<ele>122.000008</ele>
<time>2010-01-01T01:47:05.000Z</time>
</trkpt>
<trkpt lat="31.9355773" lon="34.9616536">
<ele>120.000000</ele>
<time>2010-01-01T01:47:09.000Z</time>
</trkpt>
<trkpt lat="31.9356308" lon="34.9615619">
<ele>120.000000</ele>
<time>2010-01-01T01:47:13.000Z</time>
</trkpt>
<trkpt lat="31.9357217" lon="34.9615434">
<ele>120.000000</ele>
<time>2010-01-01T01:47:17.000Z</time>
</trkpt>
<trkpt lat="31.9357930" lon="34.9616426">
<ele>120.000000</ele>
<time>2010-01-01T01:47:21.000Z</time>
</trkpt>
<trkpt lat="31.9358284" lon="34.9617708">
<ele>121.000000</ele>
<time>2010-01-01T01:47:26.000Z</time>
</trkpt>
<trkpt lat="31.9358548" lon="34.9619055">
<ele>122.000008</ele>
<time>2010-01-01T01:47:30.000Z</time>
</trkpt>
<trkpt lat="31.9358606" lon="34.9620551">
<ele>123.000000</ele>
<time>2010-01-01T01:47:36.000Z</time>
</trkpt>
<trkpt lat="31.9358725" lon="34.9621809">
<ele>125.000000</ele>
<time>2010-01-01T01:47:40.000Z</time>
</trkpt>
<trkpt lat="31.9359258" lon="34.9623094">
<ele>126.000000</ele>
<time>2010-01-01T01:47:45.000Z</time>
</trkpt>
<trkpt lat="31.9360024" lon="34.9624059">
<ele>127.000000</ele>
<time>2010-01-01T01:47:49.000Z</time>
</trkpt>
<trkpt lat="31.9360715" lon="34.9625088">
<ele>128.000000</ele>
<time>2010-01-01T01:47:54.000Z</time>
</trkpt>
<trkpt lat="31.9361056" lon="34.9626347">
<ele>128.000000</ele>
<time>2010-01-01T01:47:58.000Z</time>
</trkpt>
<trkpt lat="31.9361310" lon="34.9627484">
<ele>128.000000</ele>
<time>2010-01-01T01:48:02.000Z</time>
</trkpt>
<trkpt lat="31.9361582" lon="34.9628577">
<ele>128.000000</ele>
<time>2010-01-01T01:48:06.000Z</time>
</trkpt>
<trkpt lat="31.9361842" lon="34.9629695">
<ele>129.000000</ele>
<time>2010-01-01T01:48:10.000Z</time>
</trkpt>
<trkpt lat="31.9361997" lon="34.9630720">
<ele>129.000000</ele>
<time>2010-01-01T01:48:13.000Z</time>
</trkpt>
<trkpt lat="31.9362362" lon="34.9631981">
<ele>130.000000</ele>
<time>2010-01-01T01:48:18.000Z</time>
</trkpt>
<trkpt lat="31.9363117" lon="34.9633073">
<ele>130.000000</ele>
<time>2010-01-01T01:48:23.000Z</time>
</trkpt>
<trkpt lat="31.9364001" lon="34.9633683">
<ele>129.000000</ele>
<time>2010-01-01T01:48:27.000Z</time>
</trkpt>
<trkpt lat="31.9364810" lon="34.9634394">
<ele>129.000000</ele>
<time>2010-01-01T01:48:31.000Z</time>
</trkpt>
<trkpt lat="31.9365610" lon="34.9635020">
<ele>130.000000</ele>
<time>2010-01-01T01:48:35.000Z</time>
</trkpt>
<trkpt lat="31.9366544" lon="34.9635464">
<ele>130.000000</ele>
<time>2010-01-01T01:48:39.000Z</time>
</trkpt>
<trkpt lat="31.9367497" lon="34.9635778">
<ele>131.000000</ele>
<time>2010-01-01T01:48:43.000Z</time>
</trkpt>
<trkpt lat="31.9368503" lon="34.9636215">
<ele>131.000000</ele>
<time>2010-01-01T01:48:47.000Z</time>
</trkpt>
<trkpt lat="31.9369491" lon="34.9636779">
<ele>132.000000</ele>
<time>2010-01-01T01:48:51.000Z</time>
</trkpt>
<trkpt lat="31.9370409" lon="34.9637266">
<ele>133.000000</ele>
<time>2010-01-01T01:48:55.000Z</time>
</trkpt>
<trkpt lat="31.9371358" lon="34.9637892">
<ele>134.000000</ele>
<time>2010-01-01T01:49:00.000Z</time>
</trkpt>
<trkpt lat="31.9372282" lon="34.9638189">
<ele>134.000000</ele>
<time>2010-01-01T01:49:04.000Z</time>
</trkpt>
<trkpt lat="31.9373111" lon="34.9638836">
<ele>135.000000</ele>
<time>2010-01-01T01:49:08.000Z</time>
</trkpt>
<trkpt lat="31.9373949" lon="34.9639313">
<ele>135.000000</ele>
<time>2010-01-01T01:49:11.000Z</time>
</trkpt>
<trkpt lat="31.9374788" lon="34.9639885">
<ele>135.000000</ele>
<time>2010-01-01T01:49:15.000Z</time>
</trkpt>
<trkpt lat="31.9375567" lon="34.9640521">
<ele>135.000000</ele>
<time>2010-01-01T01:49:19.000Z</time>
</trkpt>
<trkpt lat="31.9376284" lon="34.9641112">
<ele>135.000000</ele>
<time>2010-01-01T01:49:23.000Z</time>
</trkpt>
<trkpt lat="31.9377053" lon="34.9641950">
<ele>134.000000</ele>
<time>2010-01-01T01:49:27.000Z</time>
</trkpt>
<trkpt lat="31.9377853" lon="34.9642581">
<ele>134.000000</ele>
<time>2010-01-01T01:49:31.000Z</time>
</trkpt>
<trkpt lat="31.9378537" lon="34.9641659">
<ele>135.000000</ele>
<time>2010-01-01T01:49:35.000Z</time>
</trkpt>
<trkpt lat="31.9378595" lon="34.9640372">
<ele>135.000000</ele>
<time>2010-01-01T01:49:39.000Z</time>
</trkpt>
<trkpt lat="31.9378370" lon="34.9639311">
<ele>136.000000</ele>
<time>2010-01-01T01:49:43.000Z</time>
</trkpt>
<trkpt lat="31.9378003" lon="34.9638356">
<ele>137.000000</ele>
<time>2010-01-01T01:49:46.000Z</time>
</trkpt>
<trkpt lat="31.9377971" lon="34.9637166">
<ele>138.000000</ele>
<time>2010-01-01T01:49:50.000Z</time>
</trkpt>
<trkpt lat="31.9377902" lon="34.9635833">
<ele>140.000000</ele>
<time>2010-01-01T01:49:55.000Z</time>
</trkpt>
<trkpt lat="31.9378082" lon="34.9634719">
<ele>140.000000</ele>
<time>2010-01-01T01:49:59.000Z</time>
</trkpt>
<trkpt lat="31.9378121" lon="34.9633614">
<ele>140.000000</ele>
<time>2010-01-01T01:50:03.000Z</time>
</trkpt>
<trkpt lat="31.9378253" lon="34.9632474">
<ele>141.000000</ele>
<time>2010-01-01T01:50:07.000Z</time>
</trkpt>
<trkpt lat="31.9378417" lon="34.9631249">
<ele>141.000000</ele>
<time>2010-01-01T01:50:11.000Z</time>
</trkpt>
<trkpt lat="31.9378230" lon="34.9630180">
<ele>141.000000</ele>
<time>2010-01-01T01:50:14.000Z</time>
</trkpt>
<trkpt lat="31.9378191" lon="34.9628898">
<ele>141.000000</ele>
<time>2010-01-01T01:50:19.000Z</time>
</trkpt>
<trkpt lat="31.9378080" lon="34.9627586">
<ele>141.000000</ele>
<time>2010-01-01T01:50:23.000Z</time>
</trkpt>
<trkpt lat="31.9377631" lon="34.9626289">
<ele>141.000000</ele>
<time>2010-01-01T01:50:28.000Z</time>
</trkpt>
<trkpt lat="31.9377480" lon="34.9624798">
<ele>141.000000</ele>
<time>2010-01-01T01:50:33.000Z</time>
</trkpt>
<trkpt lat="31.9377067" lon="34.9623637">
<ele>141.000000</ele>
<time>2010-01-01T01:50:37.000Z</time>
</trkpt>
<trkpt lat="31.9376435" lon="34.9622478">
<ele>141.000000</ele>
<time>2010-01-01T01:50:42.000Z</time>
</trkpt>
<trkpt lat="31.9376182" lon="34.9621146">
<ele>141.000000</ele>
<time>2010-01-01T01:50:47.000Z</time>
</trkpt>
<trkpt lat="31.9375974" lon="34.9619836">
<ele>141.000000</ele>
<time>2010-01-01T01:50:51.000Z</time>
</trkpt>
<trkpt lat="31.9375688" lon="34.9618268">
<ele>140.000000</ele>
<time>2010-01-01T01:50:57.000Z</time>
</trkpt>
<trkpt lat="31.9375465" lon="34.9617152">
<ele>139.000000</ele>
<time>2010-01-01T01:51:01.000Z</time>
</trkpt>
<trkpt lat="31.9375426" lon="34.9616046">
<ele>139.000000</ele>
<time>2010-01-01T01:51:04.000Z</time>
</trkpt>
<trkpt lat="31.9375712" lon="34.9615019">
<ele>139.000000</ele>
<time>2010-01-01T01:51:08.000Z</time>
</trkpt>
<trkpt lat="31.9376170" lon="34.9614003">
<ele>139.000000</ele>
<time>2010-01-01T01:51:12.000Z</time>
</trkpt>
<trkpt lat="31.9376639" lon="34.9612965">
<ele>138.000000</ele>
<time>2010-01-01T01:51:16.000Z</time>
</trkpt>
<trkpt lat="31.9376998" lon="34.9611847">
<ele>138.000000</ele>
<time>2010-01-01T01:51:20.000Z</time>
</trkpt>
<trkpt lat="31.9377090" lon="34.9610596">
<ele>137.000000</ele>
<time>2010-01-01T01:51:24.000Z</time>
</trkpt>
<trkpt lat="31.9377050" lon="34.9609385">
<ele>136.000000</ele>
<time>2010-01-01T01:51:28.000Z</time>
</trkpt>
<trkpt lat="31.9376992" lon="34.9608273">
<ele>136.000000</ele>
<time>2010-01-01T01:51:32.000Z</time>
</trkpt>
<trkpt lat="31.9376718" lon="34.9607193">
<ele>135.000000</ele>
<time>2010-01-01T01:51:36.000Z</time>
</trkpt>
<trkpt lat="31.9376304" lon="34.9606077">
<ele>134.000000</ele>
<time>2010-01-01T01:51:40.000Z</time>
</trkpt>
<trkpt lat="31.9375840" lon="34.9604915">
<ele>132.000000</ele>
<time>2010-01-01T01:51:44.000Z</time>
</trkpt>
<trkpt lat="31.9375194" lon="34.9603751">
<ele>131.000000</ele>
<time>2010-01-01T01:51:49.000Z</time>
</trkpt>
<trkpt lat="31.9374494" lon="34.9602629">
<ele>130.000000</ele>
<time>2010-01-01T01:51:54.000Z</time>
</trkpt>
<trkpt lat="31.9374387" lon="34.9602268">
<ele>130.000000</ele>
<time>2010-01-01T01:51:55.000Z</time>
</trkpt>
<trkpt lat="31.9375717" lon="34.9601165">
<ele>131.000000</ele>
<time>2010-01-01T01:52:02.000Z</time>
</trkpt>
<trkpt lat="31.9376055" lon="34.9599950">
<ele>131.000000</ele>
<time>2010-01-01T01:52:06.000Z</time>
</trkpt>
<trkpt lat="31.9376645" lon="34.9599091">
<ele>132.000000</ele>
<time>2010-01-01T01:52:10.000Z</time>
</trkpt>
<trkpt lat="31.9376886" lon="34.9597863">
<ele>132.000000</ele>
<time>2010-01-01T01:52:14.000Z</time>
</trkpt>
<trkpt lat="31.9377434" lon="34.9596706">
<ele>132.000000</ele>
<time>2010-01-01T01:52:19.000Z</time>
</trkpt>
<trkpt lat="31.9377817" lon="34.9595616">
<ele>133.000000</ele>
<time>2010-01-01T01:52:23.000Z</time>
</trkpt>
<trkpt lat="31.9377699" lon="34.9594470">
<ele>132.000000</ele>
<time>2010-01-01T01:52:27.000Z</time>
</trkpt>
<trkpt lat="31.9377341" lon="34.9593257">
<ele>133.000000</ele>
<time>2010-01-01T01:52:31.000Z</time>
</trkpt>
<trkpt lat="31.9376958" lon="34.9592037">
<ele>133.000000</ele>
<time>2010-01-01T01:52:35.000Z</time>
</trkpt>
<trkpt lat="31.9376586" lon="34.9590760">
<ele>133.000000</ele>
<time>2010-01-01T01:52:40.000Z</time>
</trkpt>
<trkpt lat="31.9376399" lon="34.9589598">
<ele>133.000000</ele>
<time>2010-01-01T01:52:44.000Z</time>
</trkpt>
<trkpt lat="31.9376339" lon="34.9588370">
<ele>133.000000</ele>
<time>2010-01-01T01:52:48.000Z</time>
</trkpt>
<trkpt lat="31.9376395" lon="34.9587274">
<ele>134.000000</ele>
<time>2010-01-01T01:52:52.000Z</time>
</trkpt>
<trkpt lat="31.9376234" lon="34.9586134">
<ele>133.000000</ele>
<time>2010-01-01T01:52:56.000Z</time>
</trkpt>
<trkpt lat="31.9375853" lon="34.9584921">
<ele>133.000000</ele>
<time>2010-01-01T01:53:00.000Z</time>
</trkpt>
<trkpt lat="31.9375506" lon="34.9583517">
<ele>133.000000</ele>
<time>2010-01-01T01:53:05.000Z</time>
</trkpt>
<trkpt lat="31.9375196" lon="34.9582232">
<ele>134.000000</ele>
<time>2010-01-01T01:53:10.000Z</time>
</trkpt>
<trkpt lat="31.9374900" lon="34.9580750">
<ele>133.000000</ele>
<time>2010-01-01T01:53:15.000Z</time>
</trkpt>
<trkpt lat="31.9374668" lon="34.9579615">
<ele>133.000000</ele>
<time>2010-01-01T01:53:19.000Z</time>
</trkpt>
<trkpt lat="31.9374414" lon="34.9578436">
<ele>133.000000</ele>
<time>2010-01-01T01:53:23.000Z</time>
</trkpt>
<trkpt lat="31.9374175" lon="34.9577289">
<ele>133.000000</ele>
<time>2010-01-01T01:53:27.000Z</time>
</trkpt>
<trkpt lat="31.9374025" lon="34.9576100">
<ele>133.000000</ele>
<time>2010-01-01T01:53:31.000Z</time>
</trkpt>
<trkpt lat="31.9374042" lon="34.9574922">
<ele>132.000000</ele>
<time>2010-01-01T01:53:35.000Z</time>
</trkpt>
<trkpt lat="31.9374799" lon="34.9574691">
<ele>133.000000</ele>
<time>2010-01-01T01:53:38.000Z</time>
</trkpt>
<trkpt lat="31.9375616" lon="34.9575457">
<ele>134.000000</ele>
<time>2010-01-01T01:53:42.000Z</time>
</trkpt>
<trkpt lat="31.9376522" lon="34.9576161">
<ele>134.000000</ele>
<time>2010-01-01T01:53:47.000Z</time>
</trkpt>
<trkpt lat="31.9377506" lon="34.9575953">
<ele>134.000000</ele>
<time>2010-01-01T01:53:51.000Z</time>
</trkpt>
<trkpt lat="31.9378575" lon="34.9575673">
<ele>135.000000</ele>
<time>2010-01-01T01:53:55.000Z</time>
</trkpt>
<trkpt lat="31.9379598" lon="34.9575453">
<ele>135.000000</ele>
<time>2010-01-01T01:53:59.000Z</time>
</trkpt>
<trkpt lat="31.9380656" lon="34.9575249">
<ele>136.000000</ele>
<time>2010-01-01T01:54:04.000Z</time>
</trkpt>
<trkpt lat="31.9381737" lon="34.9575071">
<ele>137.000000</ele>
<time>2010-01-01T01:54:08.000Z</time>
</trkpt>
<trkpt lat="31.9382794" lon="34.9575074">
<ele>138.000000</ele>
<time>2010-01-01T01:54:12.000Z</time>
</trkpt>
<trkpt lat="31.9383631" lon="34.9575315">
<ele>138.000000</ele>
<time>2010-01-01T01:54:16.000Z</time>
</trkpt>
<trkpt lat="31.9384749" lon="34.9575215">
<ele>139.000000</ele>
<time>2010-01-01T01:54:20.000Z</time>
</trkpt>
<trkpt lat="31.9385770" lon="34.9574934">
<ele>140.000000</ele>
<time>2010-01-01T01:54:24.000Z</time>
</trkpt>
<trkpt lat="31.9386556" lon="34.9574287">
<ele>141.000000</ele>
<time>2010-01-01T01:54:28.000Z</time>
</trkpt>
<trkpt lat="31.9387180" lon="34.9573102">
<ele>141.000000</ele>
<time>2010-01-01T01:54:33.000Z</time>
</trkpt>
<trkpt lat="31.9387701" lon="34.9572007">
<ele>140.000000</ele>
<time>2010-01-01T01:54:37.000Z</time>
</trkpt>
<trkpt lat="31.9388136" lon="34.9570963">
<ele>139.000000</ele>
<time>2010-01-01T01:54:41.000Z</time>
</trkpt>
<trkpt lat="31.9388684" lon="34.9569654">
<ele>138.000000</ele>
<time>2010-01-01T01:54:46.000Z</time>
</trkpt>
<trkpt lat="31.9389604" lon="34.9568674">
<ele>137.000000</ele>
<time>2010-01-01T01:54:51.000Z</time>
</trkpt>
<trkpt lat="31.9390592" lon="34.9568066">
<ele>136.000000</ele>
<time>2010-01-01T01:54:55.000Z</time>
</trkpt>
<trkpt lat="31.9391578" lon="34.9568175">
<ele>137.000000</ele>
<time>2010-01-01T01:54:59.000Z</time>
</trkpt>
<trkpt lat="31.9392567" lon="34.9567603">
<ele>137.000000</ele>
<time>2010-01-01T01:55:04.000Z</time>
</trkpt>
<trkpt lat="31.9393626" lon="34.9566849">
<ele>136.000000</ele>
<time>2010-01-01T01:55:09.000Z</time>
</trkpt>
<trkpt lat="31.9394480" lon="34.9566263">
<ele>136.000000</ele>
<time>2010-01-01T01:55:13.000Z</time>
</trkpt>
<trkpt lat="31.9395203" lon="34.9565366">
<ele>135.000000</ele>
<time>2010-01-01T01:55:17.000Z</time>
</trkpt>
<trkpt lat="31.9395634" lon="34.9564305">
<ele>134.000000</ele>
<time>2010-01-01T01:55:21.000Z</time>
</trkpt>
<trkpt lat="31.9396294" lon="34.9563165">
<ele>133.000000</ele>
<time>2010-01-01T01:55:26.000Z</time>
</trkpt>
<trkpt lat="31.9397195" lon="34.9562254">
<ele>132.000000</ele>
<time>2010-01-01T01:55:30.000Z</time>
</trkpt>
<trkpt lat="31.9398311" lon="34.9561383">
<ele>132.000000</ele>
<time>2010-01-01T01:55:36.000Z</time>
</trkpt>
<trkpt lat="31.9399276" lon="34.9560912">
<ele>132.000000</ele>
<time>2010-01-01T01:55:40.000Z</time>
</trkpt>
<trkpt lat="31.9400449" lon="34.9560643">
<ele>133.000000</ele>
<time>2010-01-01T01:55:45.000Z</time>
</trkpt>
<trkpt lat="31.9401728" lon="34.9560273">
<ele>133.000000</ele>
<time>2010-01-01T01:55:50.000Z</time>
</trkpt>
<trkpt lat="31.9402947" lon="34.9559976">
<ele>134.000000</ele>
<time>2010-01-01T01:55:55.000Z</time>
</trkpt>
<trkpt lat="31.9403945" lon="34.9560062">
<ele>134.000000</ele>
<time>2010-01-01T01:55:59.000Z</time>
</trkpt>
<trkpt lat="31.9404722" lon="34.9560632">
<ele>135.000000</ele>
<time>2010-01-01T01:56:03.000Z</time>
</trkpt>
<trkpt lat="31.9405510" lon="34.9561268">
<ele>136.000000</ele>
<time>2010-01-01T01:56:06.000Z</time>
</trkpt>
<trkpt lat="31.9406254" lon="34.9562084">
<ele>136.000000</ele>
<time>2010-01-01T01:56:11.000Z</time>
</trkpt>
<trkpt lat="31.9407134" lon="34.9562960">
<ele>137.000000</ele>
<time>2010-01-01T01:56:15.000Z</time>
</trkpt>
<trkpt lat="31.9408046" lon="34.9563707">
<ele>138.000000</ele>
<time>2010-01-01T01:56:20.000Z</time>
</trkpt>
<trkpt lat="31.9408908" lon="34.9564433">
<ele>140.000000</ele>
<time>2010-01-01T01:56:24.000Z</time>
</trkpt>
<trkpt lat="31.9409799" lon="34.9564974">
<ele>142.000000</ele>
<time>2010-01-01T01:56:28.000Z</time>
</trkpt>
<trkpt lat="31.9410916" lon="34.9565629">
<ele>144.000000</ele>
<time>2010-01-01T01:56:33.000Z</time>
</trkpt>
<trkpt lat="31.9411678" lon="34.9566028">
<ele>145.000000</ele>
<time>2010-01-01T01:56:36.000Z</time>
</trkpt>
<trkpt lat="31.9412394" lon="34.9566981">
<ele>145.000000</ele>
<time>2010-01-01T01:56:40.000Z</time>
</trkpt>
<trkpt lat="31.9412291" lon="34.9568017">
<ele>146.000000</ele>
<time>2010-01-01T01:56:44.000Z</time>
</trkpt>
<trkpt lat="31.9411932" lon="34.9569040">
<ele>146.000000</ele>
<time>2010-01-01T01:56:48.000Z</time>
</trkpt>
<trkpt lat="31.9411394" lon="34.9569953">
<ele>147.000000</ele>
<time>2010-01-01T01:56:52.000Z</time>
</trkpt>
<trkpt lat="31.9410529" lon="34.9570724">
<ele>147.000000</ele>
<time>2010-01-01T01:56:56.000Z</time>
</trkpt>
<trkpt lat="31.9409572" lon="34.9571329">
<ele>148.000000</ele>
<time>2010-01-01T01:57:00.000Z</time>
</trkpt>
<trkpt lat="31.9408499" lon="34.9571750">
<ele>148.000000</ele>
<time>2010-01-01T01:57:05.000Z</time>
</trkpt>
<trkpt lat="31.9407599" lon="34.9572099">
<ele>148.000000</ele>
<time>2010-01-01T01:57:09.000Z</time>
</trkpt>
<trkpt lat="31.9406599" lon="34.9572409">
<ele>148.000000</ele>
<time>2010-01-01T01:57:13.000Z</time>
</trkpt>
<trkpt lat="31.9405648" lon="34.9572782">
<ele>148.000000</ele>
<time>2010-01-01T01:57:17.000Z</time>
</trkpt>
<trkpt lat="31.9404753" lon="34.9573188">
<ele>149.000000</ele>
<time>2010-01-01T01:57:21.000Z</time>
</trkpt>
<trkpt lat="31.9403763" lon="34.9573638">
<ele>150.000000</ele>
<time>2010-01-01T01:57:25.000Z</time>
</trkpt>
<trkpt lat="31.9402734" lon="34.9574186">
<ele>151.000000</ele>
<time>2010-01-01T01:57:29.000Z</time>
</trkpt>
<trkpt lat="31.9401626" lon="34.9574599">
<ele>150.000000</ele>
<time>2010-01-01T01:57:34.000Z</time>
</trkpt>
<trkpt lat="31.9400677" lon="34.9575260">
<ele>151.000000</ele>
<time>2010-01-01T01:57:38.000Z</time>
</trkpt>
<trkpt lat="31.9400038" lon="34.9576182">
<ele>151.000000</ele>
<time>2010-01-01T01:57:42.000Z</time>
</trkpt>
<trkpt lat="31.9399466" lon="34.9577425">
<ele>151.000000</ele>
<time>2010-01-01T01:57:47.000Z</time>
</trkpt>
<trkpt lat="31.9398989" lon="34.9578529">
<ele>151.000000</ele>
<time>2010-01-01T01:57:51.000Z</time>
</trkpt>
<trkpt lat="31.9398865" lon="34.9579702">
<ele>152.000000</ele>
<time>2010-01-01T01:57:55.000Z</time>
</trkpt>
<trkpt lat="31.9399065" lon="34.9580800">
<ele>153.000000</ele>
<time>2010-01-01T01:57:59.000Z</time>
</trkpt>
<trkpt lat="31.9399309" lon="34.9581829">
<ele>153.000000</ele>
<time>2010-01-01T01:58:03.000Z</time>
</trkpt>
<trkpt lat="31.9399491" lon="34.9582976">
<ele>154.000000</ele>
<time>2010-01-01T01:58:07.000Z</time>
</trkpt>
<trkpt lat="31.9399722" lon="34.9584349">
<ele>154.000000</ele>
<time>2010-01-01T01:58:12.000Z</time>
</trkpt>
<trkpt lat="31.9399945" lon="34.9585419">
<ele>154.000000</ele>
<time>2010-01-01T01:58:15.000Z</time>
</trkpt>
<trkpt lat="31.9400010" lon="34.9586517">
<ele>154.000000</ele>
<time>2010-01-01T01:58:19.000Z</time>
</trkpt>
<trkpt lat="31.9400173" lon="34.9587706">
<ele>154.000000</ele>
<time>2010-01-01T01:58:23.000Z</time>
</trkpt>
<trkpt lat="31.9400485" lon="34.9588517">
<ele>154.000000</ele>
<time>2010-01-01T01:58:26.000Z</time>
</trkpt>
<trkpt lat="31.9401070" lon="34.9589713">
<ele>154.000000</ele>
<time>2010-01-01T01:58:31.000Z</time>
</trkpt>
<trkpt lat="31.9401584" lon="34.9590771">
<ele>155.000000</ele>
<time>2010-01-01T01:58:35.000Z</time>
</trkpt>
<trkpt lat="31.9401994" lon="34.9591805">
<ele>155.000000</ele>
<time>2010-01-01T01:58:39.000Z</time>
</trkpt>
<trkpt lat="31.9402359" lon="34.9592775">
<ele>155.000000</ele>
<time>2010-01-01T01:58:43.000Z</time>
</trkpt>
<trkpt lat="31.9402888" lon="34.9593481">
<ele>156.000000</ele>
<time>2010-01-01T01:58:46.000Z</time>
</trkpt>
<trkpt lat="31.9403363" lon="34.9594568">
<ele>156.000000</ele>
<time>2010-01-01T01:58:50.000Z</time>
</trkpt>
<trkpt lat="31.9403906" lon="34.9595448">
<ele>157.000000</ele>
<time>2010-01-01T01:58:54.000Z</time>
</trkpt>
<trkpt lat="31.9404507" lon="34.9596376">
<ele>157.000000</ele>
<time>2010-01-01T01:58:58.000Z</time>
</trkpt>
<trkpt lat="31.9405234" lon="34.9597421">
<ele>158.000000</ele>
<time>2010-01-01T01:59:02.000Z</time>
</trkpt>
<trkpt lat="31.9405999" lon="34.9598570">
<ele>157.000000</ele>
<time>2010-01-01T01:59:07.000Z</time>
</trkpt>
<trkpt lat="31.9406876" lon="34.9599855">
<ele>156.000000</ele>
<time>2010-01-01T01:59:13.000Z</time>
</trkpt>
<trkpt lat="31.9407534" lon="34.9600785">
<ele>156.000000</ele>
<time>2010-01-01T01:59:17.000Z</time>
</trkpt>
<trkpt lat="31.9408193" lon="34.9601868">
<ele>155.000000</ele>
<time>2010-01-01T01:59:21.000Z</time>
</trkpt>
<trkpt lat="31.9408695" lon="34.9603099">
<ele>155.000000</ele>
<time>2010-01-01T01:59:26.000Z</time>
</trkpt>
<trkpt lat="31.9409076" lon="34.9604489">
<ele>154.000000</ele>
<time>2010-01-01T01:59:31.000Z</time>
</trkpt>
<trkpt lat="31.9409255" lon="34.9606073">
<ele>152.000000</ele>
<time>2010-01-01T01:59:36.000Z</time>
</trkpt>
<trkpt lat="31.9409375" lon="34.9607770">
<ele>152.000000</ele>
<time>2010-01-01T01:59:42.000Z</time>
</trkpt>
<trkpt lat="31.9409562" lon="34.9609234">
<ele>152.000000</ele>
<time>2010-01-01T01:59:47.000Z</time>
</trkpt>
<trkpt lat="31.9409850" lon="34.9610316">
<ele>152.000000</ele>
<time>2010-01-01T01:59:51.000Z</time>
</trkpt>
<trkpt lat="31.9410571" lon="34.9610889">
<ele>152.000000</ele>
<time>2010-01-01T01:59:55.000Z</time>
</trkpt>
<trkpt lat="31.9411574" lon="34.9610713">
<ele>153.000000</ele>
<time>2010-01-01T01:59:59.000Z</time>
</trkpt>
<trkpt lat="31.9412673" lon="34.9610276">
<ele>154.000000</ele>
<time>2010-01-01T02:00:03.000Z</time>
</trkpt>
<trkpt lat="31.9413605" lon="34.9609686">
<ele>155.000000</ele>
<time>2010-01-01T02:00:07.000Z</time>
</trkpt>
<trkpt lat="31.9414581" lon="34.9608860">
<ele>155.000000</ele>
<time>2010-01-01T02:00:12.000Z</time>
</trkpt>
<trkpt lat="31.9415501" lon="34.9607915">
<ele>155.000000</ele>
<time>2010-01-01T02:00:17.000Z</time>
</trkpt>
<trkpt lat="31.9416619" lon="34.9607143">
<ele>155.000000</ele>
<time>2010-01-01T02:00:22.000Z</time>
</trkpt>
<trkpt lat="31.9417584" lon="34.9606777">
<ele>155.000000</ele>
<time>2010-01-01T02:00:26.000Z</time>
</trkpt>
<trkpt lat="31.9418524" lon="34.9606702">
<ele>154.000000</ele>
<time>2010-01-01T02:00:30.000Z</time>
</trkpt>
<trkpt lat="31.9418932" lon="34.9606729">
<ele>154.000000</ele>
<time>2010-01-01T02:00:32.000Z</time>
</trkpt>
<trkpt lat="31.9419771" lon="34.9606523">
<ele>153.000000</ele>
<time>2010-01-01T02:00:35.000Z</time>
</trkpt>
<trkpt lat="31.9420675" lon="34.9606818">
<ele>151.000000</ele>
<time>2010-01-01T02:00:39.000Z</time>
</trkpt>
<trkpt lat="31.9421909" lon="34.9607069">
<ele>150.000000</ele>
<time>2010-01-01T02:00:44.000Z</time>
</trkpt>
<trkpt lat="31.9423088" lon="34.9607132">
<ele>149.000000</ele>
<time>2010-01-01T02:00:49.000Z</time>
</trkpt>
<trkpt lat="31.9424206" lon="34.9607403">
<ele>148.000000</ele>
<time>2010-01-01T02:00:53.000Z</time>
</trkpt>
<trkpt lat="31.9425236" lon="34.9607352">
<ele>147.000000</ele>
<time>2010-01-01T02:00:57.000Z</time>
</trkpt>
<trkpt lat="31.9426021" lon="34.9608023">
<ele>147.000000</ele>
<time>2010-01-01T02:01:01.000Z</time>
</trkpt>
<trkpt lat="31.9426722" lon="34.9609066">
<ele>147.000000</ele>
<time>2010-01-01T02:01:06.000Z</time>
</trkpt>
<trkpt lat="31.9427253" lon="34.9610368">
<ele>147.000000</ele>
<time>2010-01-01T02:01:11.000Z</time>
</trkpt>
<trkpt lat="31.9427690" lon="34.9611716">
<ele>148.000000</ele>
<time>2010-01-01T02:01:16.000Z</time>
</trkpt>
<trkpt lat="31.9428053" lon="34.9613049">
<ele>149.000000</ele>
<time>2010-01-01T02:01:20.000Z</time>
</trkpt>
<trkpt lat="31.9428621" lon="34.9614101">
<ele>149.000000</ele>
<time>2010-01-01T02:01:25.000Z</time>
</trkpt>
<trkpt lat="31.9429390" lon="34.9615529">
<ele>148.000000</ele>
<time>2010-01-01T02:01:30.000Z</time>
</trkpt>
<trkpt lat="31.9429749" lon="34.9616670">
<ele>148.000000</ele>
<time>2010-01-01T02:01:35.000Z</time>
</trkpt>
<trkpt lat="31.9429869" lon="34.9617763">
<ele>148.000000</ele>
<time>2010-01-01T02:01:38.000Z</time>
</trkpt>
<trkpt lat="31.9429809" lon="34.9619107">
<ele>150.000000</ele>
<time>2010-01-01T02:01:43.000Z</time>
</trkpt>
<trkpt lat="31.9429648" lon="34.9620118">
<ele>151.000000</ele>
<time>2010-01-01T02:01:46.000Z</time>
</trkpt>
<trkpt lat="31.9429820" lon="34.9621348">
<ele>152.000000</ele>
<time>2010-01-01T02:01:51.000Z</time>
</trkpt>
<trkpt lat="31.9429744" lon="34.9622791">
<ele>153.000000</ele>
<time>2010-01-01T02:01:55.000Z</time>
</trkpt>
<trkpt lat="31.9429817" lon="34.9624218">
<ele>154.000000</ele>
<time>2010-01-01T02:02:00.000Z</time>
</trkpt>
<trkpt lat="31.9430034" lon="34.9625392">
<ele>154.000000</ele>
<time>2010-01-01T02:02:04.000Z</time>
</trkpt>
<trkpt lat="31.9430323" lon="34.9626523">
<ele>154.000000</ele>
<time>2010-01-01T02:02:08.000Z</time>
</trkpt>
<trkpt lat="31.9430699" lon="34.9627647">
<ele>154.000000</ele>
<time>2010-01-01T02:02:13.000Z</time>
</trkpt>
<trkpt lat="31.9431292" lon="34.9628740">
<ele>154.000000</ele>
<time>2010-01-01T02:02:17.000Z</time>
</trkpt>
<trkpt lat="31.9431851" lon="34.9629716">
<ele>154.000000</ele>
<time>2010-01-01T02:02:21.000Z</time>
</trkpt>
<trkpt lat="31.9432691" lon="34.9630620">
<ele>153.000000</ele>
<time>2010-01-01T02:02:25.000Z</time>
</trkpt>
<trkpt lat="31.9433757" lon="34.9631289">
<ele>152.000000</ele>
<time>2010-01-01T02:02:30.000Z</time>
</trkpt>
<trkpt lat="31.9434929" lon="34.9631925">
<ele>151.000000</ele>
<time>2010-01-01T02:02:35.000Z</time>
</trkpt>
<trkpt lat="31.9435698" lon="34.9632534">
<ele>152.000000</ele>
<time>2010-01-01T02:02:39.000Z</time>
</trkpt>
<trkpt lat="31.9436269" lon="34.9633404">
<ele>153.000000</ele>
<time>2010-01-01T02:02:43.000Z</time>
</trkpt>
<trkpt lat="31.9436945" lon="34.9634745">
<ele>154.000000</ele>
<time>2010-01-01T02:02:48.000Z</time>
</trkpt>
<trkpt lat="31.9437445" lon="34.9636039">
<ele>155.000000</ele>
<time>2010-01-01T02:02:53.000Z</time>
</trkpt>
<trkpt lat="31.9437901" lon="34.9637212">
<ele>156.000000</ele>
<time>2010-01-01T02:02:57.000Z</time>
</trkpt>
<trkpt lat="31.9438371" lon="34.9638309">
<ele>157.000000</ele>
<time>2010-01-01T02:03:02.000Z</time>
</trkpt>
<trkpt lat="31.9438893" lon="34.9639327">
<ele>158.000000</ele>
<time>2010-01-01T02:03:06.000Z</time>
</trkpt>
<trkpt lat="31.9439517" lon="34.9640080">
<ele>159.000000</ele>
<time>2010-01-01T02:03:09.000Z</time>
</trkpt>
<trkpt lat="31.9440275" lon="34.9640789">
<ele>159.000000</ele>
<time>2010-01-01T02:03:13.000Z</time>
</trkpt>
<trkpt lat="31.9440936" lon="34.9641344">
<ele>160.000000</ele>
<time>2010-01-01T02:03:16.000Z</time>
</trkpt>
<trkpt lat="31.9441650" lon="34.9642006">
<ele>160.000000</ele>
<time>2010-01-01T02:03:20.000Z</time>
</trkpt>
<trkpt lat="31.9442208" lon="34.9642750">
<ele>160.000000</ele>
<time>2010-01-01T02:03:23.000Z</time>
</trkpt>
<trkpt lat="31.9441407" lon="34.9643550">
<ele>160.000000</ele>
<time>2010-01-01T02:03:28.000Z</time>
</trkpt>
<trkpt lat="31.9440794" lon="34.9644784">
<ele>160.000000</ele>
<time>2010-01-01T02:03:32.000Z</time>
</trkpt>
<trkpt lat="31.9440314" lon="34.9645808">
<ele>160.000000</ele>
<time>2010-01-01T02:03:36.000Z</time>
</trkpt>
<trkpt lat="31.9439788" lon="34.9646843">
<ele>161.000000</ele>
<time>2010-01-01T02:03:40.000Z</time>
</trkpt>
<trkpt lat="31.9439400" lon="34.9647894">
<ele>161.999985</ele>
<time>2010-01-01T02:03:44.000Z</time>
</trkpt>
<trkpt lat="31.9438942" lon="34.9649069">
<ele>163.000000</ele>
<time>2010-01-01T02:03:49.000Z</time>
</trkpt>
<trkpt lat="31.9438457" lon="34.9650103">
<ele>164.000000</ele>
<time>2010-01-01T02:03:53.000Z</time>
</trkpt>
<trkpt lat="31.9437881" lon="34.9651012">
<ele>164.000000</ele>
<time>2010-01-01T02:03:57.000Z</time>
</trkpt>
<trkpt lat="31.9437272" lon="34.9651810">
<ele>165.000000</ele>
<time>2010-01-01T02:04:00.000Z</time>
</trkpt>
<trkpt lat="31.9436569" lon="34.9652847">
<ele>165.000000</ele>
<time>2010-01-01T02:04:05.000Z</time>
</trkpt>
<trkpt lat="31.9436260" lon="34.9654154">
<ele>166.000000</ele>
<time>2010-01-01T02:04:09.000Z</time>
</trkpt>
<trkpt lat="31.9436181" lon="34.9655288">
<ele>166.000000</ele>
<time>2010-01-01T02:04:13.000Z</time>
</trkpt>
<trkpt lat="31.9436074" lon="34.9656603">
<ele>167.000000</ele>
<time>2010-01-01T02:04:18.000Z</time>
</trkpt>
<trkpt lat="31.9435884" lon="34.9657801">
<ele>167.000000</ele>
<time>2010-01-01T02:04:22.000Z</time>
</trkpt>
<trkpt lat="31.9435720" lon="34.9658925">
<ele>167.000000</ele>
<time>2010-01-01T02:04:26.000Z</time>
</trkpt>
<trkpt lat="31.9435662" lon="34.9660059">
<ele>168.000000</ele>
<time>2010-01-01T02:04:30.000Z</time>
</trkpt>
<trkpt lat="31.9435870" lon="34.9661376">
<ele>168.999985</ele>
<time>2010-01-01T02:04:34.000Z</time>
</trkpt>
<trkpt lat="31.9435712" lon="34.9662596">
<ele>170.000000</ele>
<time>2010-01-01T02:04:38.000Z</time>
</trkpt>
<trkpt lat="31.9435212" lon="34.9663460">
<ele>170.000000</ele>
<time>2010-01-01T02:04:42.000Z</time>
</trkpt>
<trkpt lat="31.9434518" lon="34.9664254">
<ele>170.000000</ele>
<time>2010-01-01T02:04:46.000Z</time>
</trkpt>
<trkpt lat="31.9433639" lon="34.9664797">
<ele>170.000000</ele>
<time>2010-01-01T02:04:50.000Z</time>
</trkpt>
<trkpt lat="31.9432607" lon="34.9665051">
<ele>171.000000</ele>
<time>2010-01-01T02:04:54.000Z</time>
</trkpt>
<trkpt lat="31.9431417" lon="34.9664988">
<ele>171.000000</ele>
<time>2010-01-01T02:04:59.000Z</time>
</trkpt>
<trkpt lat="31.9430518" lon="34.9664762">
<ele>171.000000</ele>
<time>2010-01-01T02:05:02.000Z</time>
</trkpt>
<trkpt lat="31.9429354" lon="34.9664352">
<ele>171.000000</ele>
<time>2010-01-01T02:05:07.000Z</time>
</trkpt>
<trkpt lat="31.9428259" lon="34.9663915">
<ele>171.000000</ele>
<time>2010-01-01T02:05:12.000Z</time>
</trkpt>
<trkpt lat="31.9427074" lon="34.9663631">
<ele>172.000000</ele>
<time>2010-01-01T02:05:17.000Z</time>
</trkpt>
<trkpt lat="31.9425821" lon="34.9663365">
<ele>172.000000</ele>
<time>2010-01-01T02:05:22.000Z</time>
</trkpt>
<trkpt lat="31.9424666" lon="34.9663416">
<ele>171.000000</ele>
<time>2010-01-01T02:05:26.000Z</time>
</trkpt>
<trkpt lat="31.9423590" lon="34.9663608">
<ele>171.000000</ele>
<time>2010-01-01T02:05:31.000Z</time>
</trkpt>
<trkpt lat="31.9422532" lon="34.9663824">
<ele>171.000000</ele>
<time>2010-01-01T02:05:35.000Z</time>
</trkpt>
<trkpt lat="31.9421635" lon="34.9664032">
<ele>170.000000</ele>
<time>2010-01-01T02:05:39.000Z</time>
</trkpt>
<trkpt lat="31.9420625" lon="34.9663984">
<ele>170.000000</ele>
<time>2010-01-01T02:05:43.000Z</time>
</trkpt>
<trkpt lat="31.9419561" lon="34.9663815">
<ele>170.000000</ele>
<time>2010-01-01T02:05:47.000Z</time>
</trkpt>
<trkpt lat="31.9418599" lon="34.9664118">
<ele>168.999985</ele>
<time>2010-01-01T02:05:51.000Z</time>
</trkpt>
<trkpt lat="31.9417595" lon="34.9664996">
<ele>168.000000</ele>
<time>2010-01-01T02:05:56.000Z</time>
</trkpt>
<trkpt lat="31.9416791" lon="34.9665647">
<ele>168.000000</ele>
<time>2010-01-01T02:06:00.000Z</time>
</trkpt>
<trkpt lat="31.9415770" lon="34.9666069">
<ele>167.000000</ele>
<time>2010-01-01T02:06:04.000Z</time>
</trkpt>
<trkpt lat="31.9414634" lon="34.9666438">
<ele>166.000000</ele>
<time>2010-01-01T02:06:09.000Z</time>
</trkpt>
<trkpt lat="31.9413501" lon="34.9666669">
<ele>165.000000</ele>
<time>2010-01-01T02:06:14.000Z</time>
</trkpt>
<trkpt lat="31.9412386" lon="34.9666836">
<ele>163.000000</ele>
<time>2010-01-01T02:06:18.000Z</time>
</trkpt>
<trkpt lat="31.9411280" lon="34.9667076">
<ele>161.999985</ele>
<time>2010-01-01T02:06:23.000Z</time>
</trkpt>
<trkpt lat="31.9410132" lon="34.9667144">
<ele>160.000000</ele>
<time>2010-01-01T02:06:27.000Z</time>
</trkpt>
<trkpt lat="31.9408996" lon="34.9666951">
<ele>159.000000</ele>
<time>2010-01-01T02:06:32.000Z</time>
</trkpt>
<trkpt lat="31.9407983" lon="34.9666653">
<ele>157.000000</ele>
<time>2010-01-01T02:06:36.000Z</time>
</trkpt>
<trkpt lat="31.9407079" lon="34.9666505">
<ele>157.000000</ele>
<time>2010-01-01T02:06:40.000Z</time>
</trkpt>
<trkpt lat="31.9406131" lon="34.9666650">
<ele>157.000000</ele>
<time>2010-01-01T02:06:44.000Z</time>
</trkpt>
<trkpt lat="31.9405132" lon="34.9666460">
<ele>157.000000</ele>
<time>2010-01-01T02:06:48.000Z</time>
</trkpt>
<trkpt lat="31.9404116" lon="34.9666114">
<ele>157.000000</ele>
<time>2010-01-01T02:06:52.000Z</time>
</trkpt>
<trkpt lat="31.9403074" lon="34.9666016">
<ele>157.000000</ele>
<time>2010-01-01T02:06:56.000Z</time>
</trkpt>
<trkpt lat="31.9401930" lon="34.9666012">
<ele>157.000000</ele>
<time>2010-01-01T02:07:01.000Z</time>
</trkpt>
<trkpt lat="31.9400752" lon="34.9666000">
<ele>156.000000</ele>
<time>2010-01-01T02:07:05.000Z</time>
</trkpt>
<trkpt lat="31.9399642" lon="34.9666182">
<ele>155.000000</ele>
<time>2010-01-01T02:07:10.000Z</time>
</trkpt>
<trkpt lat="31.9398406" lon="34.9666471">
<ele>153.000000</ele>
<time>2010-01-01T02:07:15.000Z</time>
</trkpt>
<trkpt lat="31.9397247" lon="34.9666747">
<ele>152.000000</ele>
<time>2010-01-01T02:07:20.000Z</time>
</trkpt>
<trkpt lat="31.9395990" lon="34.9666588">
<ele>151.000000</ele>
<time>2010-01-01T02:07:25.000Z</time>
</trkpt>
<trkpt lat="31.9395013" lon="34.9665902">
<ele>151.000000</ele>
<time>2010-01-01T02:07:29.000Z</time>
</trkpt>
<trkpt lat="31.9394072" lon="34.9665224">
<ele>150.000000</ele>
<time>2010-01-01T02:07:34.000Z</time>
</trkpt>
<trkpt lat="31.9393099" lon="34.9664540">
<ele>149.000000</ele>
<time>2010-01-01T02:07:38.000Z</time>
</trkpt>
<trkpt lat="31.9391880" lon="34.9664366">
<ele>148.000000</ele>
<time>2010-01-01T02:07:43.000Z</time>
</trkpt>
<trkpt lat="31.9390819" lon="34.9664515">
<ele>146.000000</ele>
<time>2010-01-01T02:07:47.000Z</time>
</trkpt>
<trkpt lat="31.9389768" lon="34.9664644">
<ele>144.000000</ele>
<time>2010-01-01T02:07:52.000Z</time>
</trkpt>
<trkpt lat="31.9388714" lon="34.9665187">
<ele>142.000000</ele>
<time>2010-01-01T02:07:56.000Z</time>
</trkpt>
<trkpt lat="31.9388325" lon="34.9666272">
<ele>142.000000</ele>
<time>2010-01-01T02:08:00.000Z</time>
</trkpt>
<trkpt lat="31.9388197" lon="34.9667812">
<ele>143.000000</ele>
<time>2010-01-01T02:08:05.000Z</time>
</trkpt>
<trkpt lat="31.9388123" lon="34.9669214">
<ele>144.000000</ele>
<time>2010-01-01T02:08:10.000Z</time>
</trkpt>
<trkpt lat="31.9388159" lon="34.9670585">
<ele>144.000000</ele>
<time>2010-01-01T02:08:15.000Z</time>
</trkpt>
<trkpt lat="31.9388223" lon="34.9671787">
<ele>144.000000</ele>
<time>2010-01-01T02:08:19.000Z</time>
</trkpt>
<trkpt lat="31.9388263" lon="34.9672973">
<ele>144.000000</ele>
<time>2010-01-01T02:08:23.000Z</time>
</trkpt>
<trkpt lat="31.9388383" lon="34.9674112">
<ele>143.000000</ele>
<time>2010-01-01T02:08:27.000Z</time>
</trkpt>
<trkpt lat="31.9388744" lon="34.9675238">
<ele>143.000000</ele>
<time>2010-01-01T02:08:31.000Z</time>
</trkpt>
<trkpt lat="31.9389183" lon="34.9676149">
<ele>143.000000</ele>
<time>2010-01-01T02:08:35.000Z</time>
</trkpt>
<trkpt lat="31.9389599" lon="34.9677102">
<ele>144.000000</ele>
<time>2010-01-01T02:08:38.000Z</time>
</trkpt>
<trkpt lat="31.9389925" lon="34.9678055">
<ele>144.000000</ele>
<time>2010-01-01T02:08:42.000Z</time>
</trkpt>
<trkpt lat="31.9390400" lon="34.9679234">
<ele>145.000000</ele>
<time>2010-01-01T02:08:46.000Z</time>
</trkpt>
<trkpt lat="31.9390774" lon="34.9680409">
<ele>146.000000</ele>
<time>2010-01-01T02:08:50.000Z</time>
</trkpt>
<trkpt lat="31.9390940" lon="34.9681662">
<ele>147.000000</ele>
<time>2010-01-01T02:08:55.000Z</time>
</trkpt>
<trkpt lat="31.9390833" lon="34.9682987">
<ele>147.000000</ele>
<time>2010-01-01T02:08:59.000Z</time>
</trkpt>
<trkpt lat="31.9390790" lon="34.9684505">
<ele>149.000000</ele>
<time>2010-01-01T02:09:04.000Z</time>
</trkpt>
<trkpt lat="31.9390786" lon="34.9685876">
<ele>151.000000</ele>
<time>2010-01-01T02:09:09.000Z</time>
</trkpt>
<trkpt lat="31.9390763" lon="34.9687280">
<ele>152.000000</ele>
<time>2010-01-01T02:09:14.000Z</time>
</trkpt>
<trkpt lat="31.9390765" lon="34.9688423">
<ele>153.000000</ele>
<time>2010-01-01T02:09:18.000Z</time>
</trkpt>
<trkpt lat="31.9390924" lon="34.9689726">
<ele>153.000000</ele>
<time>2010-01-01T02:09:22.000Z</time>
</trkpt>
<trkpt lat="31.9391119" lon="34.9691177">
<ele>153.000000</ele>
<time>2010-01-01T02:09:27.000Z</time>
</trkpt>
<trkpt lat="31.9391249" lon="34.9692202">
<ele>153.000000</ele>
<time>2010-01-01T02:09:31.000Z</time>
</trkpt>
<trkpt lat="31.9391404" lon="34.9693414">
<ele>154.000000</ele>
<time>2010-01-01T02:09:35.000Z</time>
</trkpt>
<trkpt lat="31.9391312" lon="34.9694613">
<ele>154.000000</ele>
<time>2010-01-01T02:09:39.000Z</time>
</trkpt>
<trkpt lat="31.9391338" lon="34.9695947">
<ele>153.000000</ele>
<time>2010-01-01T02:09:43.000Z</time>
</trkpt>
<trkpt lat="31.9391317" lon="34.9697298">
<ele>153.000000</ele>
<time>2010-01-01T02:09:48.000Z</time>
</trkpt>
<trkpt lat="31.9391354" lon="34.9698635">
<ele>153.000000</ele>
<time>2010-01-01T02:09:53.000Z</time>
</trkpt>
<trkpt lat="31.9391412" lon="34.9699991">
<ele>153.000000</ele>
<time>2010-01-01T02:09:57.000Z</time>
</trkpt>
<trkpt lat="31.9391472" lon="34.9701345">
<ele>153.000000</ele>
<time>2010-01-01T02:10:02.000Z</time>
</trkpt>
<trkpt lat="31.9391456" lon="34.9702619">
<ele>153.000000</ele>
<time>2010-01-01T02:10:06.000Z</time>
</trkpt>
<trkpt lat="31.9391408" lon="34.9703815">
<ele>153.000000</ele>
<time>2010-01-01T02:10:10.000Z</time>
</trkpt>
<trkpt lat="31.9391407" lon="34.9705011">
<ele>154.000000</ele>
<time>2010-01-01T02:10:14.000Z</time>
</trkpt>
<trkpt lat="31.9391544" lon="34.9706290">
<ele>154.000000</ele>
<time>2010-01-01T02:10:19.000Z</time>
</trkpt>
<trkpt lat="31.9391711" lon="34.9707357">
<ele>155.000000</ele>
<time>2010-01-01T02:10:22.000Z</time>
</trkpt>
<trkpt lat="31.9391932" lon="34.9708499">
<ele>155.000000</ele>
<time>2010-01-01T02:10:26.000Z</time>
</trkpt>
<trkpt lat="31.9392261" lon="34.9709442">
<ele>155.000000</ele>
<time>2010-01-01T02:10:30.000Z</time>
</trkpt>
<trkpt lat="31.9392667" lon="34.9710441">
<ele>155.000000</ele>
<time>2010-01-01T02:10:33.000Z</time>
</trkpt>
<trkpt lat="31.9393129" lon="34.9711410">
<ele>155.000000</ele>
<time>2010-01-01T02:10:37.000Z</time>
</trkpt>
<trkpt lat="31.9393632" lon="34.9712640">
<ele>156.000000</ele>
<time>2010-01-01T02:10:42.000Z</time>
</trkpt>
<trkpt lat="31.9394028" lon="34.9713962">
<ele>156.000000</ele>
<time>2010-01-01T02:10:47.000Z</time>
</trkpt>
<trkpt lat="31.9394430" lon="34.9715164">
<ele>156.000000</ele>
<time>2010-01-01T02:10:51.000Z</time>
</trkpt>
<trkpt lat="31.9394761" lon="34.9716284">
<ele>156.000000</ele>
<time>2010-01-01T02:10:55.000Z</time>
</trkpt>
<trkpt lat="31.9395014" lon="34.9717645">
<ele>155.000000</ele>
<time>2010-01-01T02:11:00.000Z</time>
</trkpt>
<trkpt lat="31.9395167" lon="34.9718948">
<ele>155.000000</ele>
<time>2010-01-01T02:11:04.000Z</time>
</trkpt>
<trkpt lat="31.9395116" lon="34.9720322">
<ele>154.000000</ele>
<time>2010-01-01T02:11:09.000Z</time>
</trkpt>
<trkpt lat="31.9394932" lon="34.9721844">
<ele>154.000000</ele>
<time>2010-01-01T02:11:14.000Z</time>
</trkpt>
<trkpt lat="31.9394662" lon="34.9723344">
<ele>154.000000</ele>
<time>2010-01-01T02:11:19.000Z</time>
</trkpt>
<trkpt lat="31.9394273" lon="34.9724510">
<ele>155.000000</ele>
<time>2010-01-01T02:11:24.000Z</time>
</trkpt>
<trkpt lat="31.9393837" lon="34.9725628">
<ele>156.000000</ele>
<time>2010-01-01T02:11:28.000Z</time>
</trkpt>
<trkpt lat="31.9393416" lon="34.9726672">
<ele>156.000000</ele>
<time>2010-01-01T02:11:32.000Z</time>
</trkpt>
<trkpt lat="31.9392997" lon="34.9727742">
<ele>156.000000</ele>
<time>2010-01-01T02:11:36.000Z</time>
</trkpt>
<trkpt lat="31.9392754" lon="34.9728842">
<ele>157.000000</ele>
<time>2010-01-01T02:11:40.000Z</time>
</trkpt>
<trkpt lat="31.9392706" lon="34.9730087">
<ele>158.000000</ele>
<time>2010-01-01T02:11:44.000Z</time>
</trkpt>
<trkpt lat="31.9392857" lon="34.9731203">
<ele>159.000000</ele>
<time>2010-01-01T02:11:48.000Z</time>
</trkpt>
<trkpt lat="31.9393098" lon="34.9732223">
<ele>159.000000</ele>
<time>2010-01-01T02:11:51.000Z</time>
</trkpt>
<trkpt lat="31.9393439" lon="34.9733259">
<ele>160.000000</ele>
<time>2010-01-01T02:11:55.000Z</time>
</trkpt>
<trkpt lat="31.9393957" lon="34.9734202">
<ele>160.000000</ele>
<time>2010-01-01T02:11:59.000Z</time>
</trkpt>
<trkpt lat="31.9394849" lon="34.9734919">
<ele>160.000000</ele>
<time>2010-01-01T02:12:03.000Z</time>
</trkpt>
<trkpt lat="31.9395723" lon="34.9735490">
<ele>160.000000</ele>
<time>2010-01-01T02:12:07.000Z</time>
</trkpt>
<trkpt lat="31.9396652" lon="34.9736054">
<ele>160.000000</ele>
<time>2010-01-01T02:12:11.000Z</time>
</trkpt>
<trkpt lat="31.9397615" lon="34.9736713">
<ele>160.000000</ele>
<time>2010-01-01T02:12:16.000Z</time>
</trkpt>
<trkpt lat="31.9398514" lon="34.9737442">
<ele>160.000000</ele>
<time>2010-01-01T02:12:20.000Z</time>
</trkpt>
<trkpt lat="31.9399418" lon="34.9738147">
<ele>160.000000</ele>
<time>2010-01-01T02:12:25.000Z</time>
</trkpt>
<trkpt lat="31.9400362" lon="34.9738904">
<ele>161.000000</ele>
<time>2010-01-01T02:12:29.000Z</time>
</trkpt>
<trkpt lat="31.9401360" lon="34.9739695">
<ele>161.999985</ele>
<time>2010-01-01T02:12:34.000Z</time>
</trkpt>
<trkpt lat="31.9402216" lon="34.9740671">
<ele>163.000000</ele>
<time>2010-01-01T02:12:39.000Z</time>
</trkpt>
<trkpt lat="31.9403034" lon="34.9741801">
<ele>163.000000</ele>
<time>2010-01-01T02:12:44.000Z</time>
</trkpt>
<trkpt lat="31.9403552" lon="34.9742702">
<ele>164.000000</ele>
<time>2010-01-01T02:12:47.000Z</time>
</trkpt>
<trkpt lat="31.9404023" lon="34.9743683">
<ele>165.000000</ele>
<time>2010-01-01T02:12:51.000Z</time>
</trkpt>
<trkpt lat="31.9404449" lon="34.9744659">
<ele>166.000000</ele>
<time>2010-01-01T02:12:55.000Z</time>
</trkpt>
<trkpt lat="31.9404841" lon="34.9745626">
<ele>166.000000</ele>
<time>2010-01-01T02:12:59.000Z</time>
</trkpt>
<trkpt lat="31.9405204" lon="34.9746951">
<ele>167.000000</ele>
<time>2010-01-01T02:13:03.000Z</time>
</trkpt>
<trkpt lat="31.9405615" lon="34.9748119">
<ele>168.000000</ele>
<time>2010-01-01T02:13:08.000Z</time>
</trkpt>
<trkpt lat="31.9406028" lon="34.9749154">
<ele>168.000000</ele>
<time>2010-01-01T02:13:12.000Z</time>
</trkpt>
<trkpt lat="31.9406595" lon="34.9750209">
<ele>170.000000</ele>
<time>2010-01-01T02:13:16.000Z</time>
</trkpt>
<trkpt lat="31.9407225" lon="34.9751159">
<ele>170.000000</ele>
<time>2010-01-01T02:13:20.000Z</time>
</trkpt>
<trkpt lat="31.9407998" lon="34.9751999">
<ele>171.000000</ele>
<time>2010-01-01T02:13:24.000Z</time>
</trkpt>
<trkpt lat="31.9408723" lon="34.9752877">
<ele>171.000000</ele>
<time>2010-01-01T02:13:28.000Z</time>
</trkpt>
<trkpt lat="31.9409566" lon="34.9753608">
<ele>172.000000</ele>
<time>2010-01-01T02:13:32.000Z</time>
</trkpt>
<trkpt lat="31.9410422" lon="34.9754281">
<ele>173.000015</ele>
<time>2010-01-01T02:13:37.000Z</time>
</trkpt>
<trkpt lat="31.9411297" lon="34.9754986">
<ele>173.000015</ele>
<time>2010-01-01T02:13:41.000Z</time>
</trkpt>
<trkpt lat="31.9412118" lon="34.9755854">
<ele>173.000015</ele>
<time>2010-01-01T02:13:45.000Z</time>
</trkpt>
<trkpt lat="31.9412985" lon="34.9756729">
<ele>173.000015</ele>
<time>2010-01-01T02:13:50.000Z</time>
</trkpt>
<trkpt lat="31.9413779" lon="34.9757457">
<ele>173.000015</ele>
<time>2010-01-01T02:13:54.000Z</time>
</trkpt>
<trkpt lat="31.9414710" lon="34.9757507">
<ele>173.000015</ele>
<time>2010-01-01T02:13:58.000Z</time>
</trkpt>
<trkpt lat="31.9415271" lon="34.9756652">
<ele>173.000015</ele>
<time>2010-01-01T02:14:01.000Z</time>
</trkpt>
<trkpt lat="31.9415992" lon="34.9755812">
<ele>174.000000</ele>
<time>2010-01-01T02:14:05.000Z</time>
</trkpt>
<trkpt lat="31.9416740" lon="34.9755016">
<ele>175.000000</ele>
<time>2010-01-01T02:14:09.000Z</time>
</trkpt>
<trkpt lat="31.9417362" lon="34.9754157">
<ele>175.999985</ele>
<time>2010-01-01T02:14:13.000Z</time>
</trkpt>
<trkpt lat="31.9418100" lon="34.9753408">
<ele>178.000000</ele>
<time>2010-01-01T02:14:17.000Z</time>
</trkpt>
<trkpt lat="31.9418803" lon="34.9752556">
<ele>179.000000</ele>
<time>2010-01-01T02:14:21.000Z</time>
</trkpt>
<trkpt lat="31.9419320" lon="34.9751647">
<ele>181.000000</ele>
<time>2010-01-01T02:14:25.000Z</time>
</trkpt>
<trkpt lat="31.9419787" lon="34.9750687">
<ele>182.000000</ele>
<time>2010-01-01T02:14:29.000Z</time>
</trkpt>
<trkpt lat="31.9420429" lon="34.9749710">
<ele>183.000000</ele>
<time>2010-01-01T02:14:33.000Z</time>
</trkpt>
<trkpt lat="31.9421003" lon="34.9748784">
<ele>184.000000</ele>
<time>2010-01-01T02:14:37.000Z</time>
</trkpt>
<trkpt lat="31.9421634" lon="34.9747929">
<ele>184.000000</ele>
<time>2010-01-01T02:14:41.000Z</time>
</trkpt>
<trkpt lat="31.9422206" lon="34.9747015">
<ele>183.000000</ele>
<time>2010-01-01T02:14:44.000Z</time>
</trkpt>
<trkpt lat="31.9422740" lon="34.9746133">
<ele>184.000000</ele>
<time>2010-01-01T02:14:48.000Z</time>
</trkpt>
<trkpt lat="31.9423339" lon="34.9745152">
<ele>184.000000</ele>
<time>2010-01-01T02:14:52.000Z</time>
</trkpt>
<trkpt lat="31.9423648" lon="34.9744109">
<ele>184.000000</ele>
<time>2010-01-01T02:14:56.000Z</time>
</trkpt>
<trkpt lat="31.9424065" lon="34.9743081">
<ele>183.000000</ele>
<time>2010-01-01T02:15:00.000Z</time>
</trkpt>
<trkpt lat="31.9424319" lon="34.9742017">
<ele>183.000000</ele>
<time>2010-01-01T02:15:04.000Z</time>
</trkpt>
<trkpt lat="31.9424713" lon="34.9740718">
<ele>182.000000</ele>
<time>2010-01-01T02:15:08.000Z</time>
</trkpt>
<trkpt lat="31.9425113" lon="34.9739738">
<ele>181.000000</ele>
<time>2010-01-01T02:15:12.000Z</time>
</trkpt>
<trkpt lat="31.9425882" lon="34.9739071">
<ele>181.000000</ele>
<time>2010-01-01T02:15:16.000Z</time>
</trkpt>
<trkpt lat="31.9426289" lon="34.9738108">
<ele>180.000015</ele>
<time>2010-01-01T02:15:19.000Z</time>
</trkpt>
<trkpt lat="31.9426644" lon="34.9737009">
<ele>178.000000</ele>
<time>2010-01-01T02:15:23.000Z</time>
</trkpt>
<trkpt lat="31.9426828" lon="34.9735940">
<ele>177.000000</ele>
<time>2010-01-01T02:15:27.000Z</time>
</trkpt>
<trkpt lat="31.9426892" lon="34.9734627">
<ele>175.999985</ele>
<time>2010-01-01T02:15:32.000Z</time>
</trkpt>
<trkpt lat="31.9427351" lon="34.9733609">
<ele>174.000000</ele>
<time>2010-01-01T02:15:35.000Z</time>
</trkpt>
<trkpt lat="31.9428176" lon="34.9732686">
<ele>173.000015</ele>
<time>2010-01-01T02:15:40.000Z</time>
</trkpt>
<trkpt lat="31.9428815" lon="34.9731778">
<ele>173.000015</ele>
<time>2010-01-01T02:15:44.000Z</time>
</trkpt>
<trkpt lat="31.9428364" lon="34.9730904">
<ele>172.000000</ele>
<time>2010-01-01T02:15:48.000Z</time>
</trkpt>
<trkpt lat="31.9427366" lon="34.9730652">
<ele>172.000000</ele>
<time>2010-01-01T02:15:52.000Z</time>
</trkpt>
<trkpt lat="31.9426297" lon="34.9730359">
<ele>173.000015</ele>
<time>2010-01-01T02:15:56.000Z</time>
</trkpt>
<trkpt lat="31.9425282" lon="34.9730241">
<ele>173.000015</ele>
<time>2010-01-01T02:16:00.000Z</time>
</trkpt>
<trkpt lat="31.9424068" lon="34.9729763">
<ele>173.000015</ele>
<time>2010-01-01T02:16:05.000Z</time>
</trkpt>
<trkpt lat="31.9423076" lon="34.9729550">
<ele>173.000015</ele>
<time>2010-01-01T02:16:09.000Z</time>
</trkpt>
<trkpt lat="31.9422094" lon="34.9729262">
<ele>173.000015</ele>
<time>2010-01-01T02:16:13.000Z</time>
</trkpt>
<trkpt lat="31.9421090" lon="34.9728656">
<ele>172.000000</ele>
<time>2010-01-01T02:16:18.000Z</time>
</trkpt>
<trkpt lat="31.9420269" lon="34.9728012">
<ele>171.000000</ele>
<time>2010-01-01T02:16:22.000Z</time>
</trkpt>
<trkpt lat="31.9419294" lon="34.9727562">
<ele>171.000000</ele>
<time>2010-01-01T02:16:26.000Z</time>
</trkpt>
<trkpt lat="31.9418051" lon="34.9727466">
<ele>170.000000</ele>
<time>2010-01-01T02:16:31.000Z</time>
</trkpt>
<trkpt lat="31.9416867" lon="34.9727311">
<ele>168.999985</ele>
<time>2010-01-01T02:16:36.000Z</time>
</trkpt>
<trkpt lat="31.9415895" lon="34.9726852">
<ele>168.999985</ele>
<time>2010-01-01T02:16:40.000Z</time>
</trkpt>
<trkpt lat="31.9415814" lon="34.9725823">
<ele>168.999985</ele>
<time>2010-01-01T02:16:43.000Z</time>
</trkpt>
<trkpt lat="31.9416130" lon="34.9724766">
<ele>170.000000</ele>
<time>2010-01-01T02:16:47.000Z</time>
</trkpt>
<trkpt lat="31.9416657" lon="34.9723777">
<ele>172.000000</ele>
<time>2010-01-01T02:16:51.000Z</time>
</trkpt>
<trkpt lat="31.9417165" lon="34.9722800">
<ele>174.000000</ele>
<time>2010-01-01T02:16:55.000Z</time>
</trkpt>
<trkpt lat="31.9417700" lon="34.9721936">
<ele>175.999985</ele>
<time>2010-01-01T02:16:59.000Z</time>
</trkpt>
<trkpt lat="31.9418082" lon="34.9720954">
<ele>179.000000</ele>
<time>2010-01-01T02:17:02.000Z</time>
</trkpt>
<trkpt lat="31.9418521" lon="34.9720012">
<ele>182.000000</ele>
<time>2010-01-01T02:17:06.000Z</time>
</trkpt>
<trkpt lat="31.9418952" lon="34.9718884">
<ele>184.000000</ele>
<time>2010-01-01T02:17:10.000Z</time>
</trkpt>
<trkpt lat="31.9419371" lon="34.9717710">
<ele>186.000000</ele>
<time>2010-01-01T02:17:15.000Z</time>
</trkpt>
<trkpt lat="31.9419729" lon="34.9716685">
<ele>187.000015</ele>
<time>2010-01-01T02:17:18.000Z</time>
</trkpt>
<trkpt lat="31.9420175" lon="34.9715750">
<ele>188.000000</ele>
<time>2010-01-01T02:17:22.000Z</time>
</trkpt>
<trkpt lat="31.9420439" lon="34.9714643">
<ele>188.000000</ele>
<time>2010-01-01T02:17:26.000Z</time>
</trkpt>
<trkpt lat="31.9420852" lon="34.9713589">
<ele>189.000000</ele>
<time>2010-01-01T02:17:30.000Z</time>
</trkpt>
<trkpt lat="31.9421289" lon="34.9712474">
<ele>190.000000</ele>
<time>2010-01-01T02:17:34.000Z</time>
</trkpt>
<trkpt lat="31.9421672" lon="34.9711490">
<ele>191.000000</ele>
<time>2010-01-01T02:17:38.000Z</time>
</trkpt>
<trkpt lat="31.9421978" lon="34.9710436">
<ele>191.000000</ele>
<time>2010-01-01T02:17:41.000Z</time>
</trkpt>
<trkpt lat="31.9422332" lon="34.9709414">
<ele>192.000000</ele>
<time>2010-01-01T02:17:45.000Z</time>
</trkpt>
<trkpt lat="31.9422720" lon="34.9708256">
<ele>192.000000</ele>
<time>2010-01-01T02:17:49.000Z</time>
</trkpt>
<trkpt lat="31.9423259" lon="34.9707303">
<ele>192.000000</ele>
<time>2010-01-01T02:17:53.000Z</time>
</trkpt>
<trkpt lat="31.9423826" lon="34.9706358">
<ele>192.000000</ele>
<time>2010-01-01T02:17:57.000Z</time>
</trkpt>
<trkpt lat="31.9424193" lon="34.9705348">
<ele>193.000000</ele>
<time>2010-01-01T02:18:01.000Z</time>
</trkpt>
<trkpt lat="31.9424557" lon="34.9704259">
<ele>193.000000</ele>
<time>2010-01-01T02:18:05.000Z</time>
</trkpt>
<trkpt lat="31.9424660" lon="34.9703111">
<ele>193.000000</ele>
<time>2010-01-01T02:18:09.000Z</time>
</trkpt>
<trkpt lat="31.9424851" lon="34.9701613">
<ele>192.000000</ele>
<time>2010-01-01T02:18:14.000Z</time>
</trkpt>
<trkpt lat="31.9425180" lon="34.9700436">
<ele>191.000000</ele>
<time>2010-01-01T02:18:18.000Z</time>
</trkpt>
<trkpt lat="31.9425593" lon="34.9699169">
<ele>190.000000</ele>
<time>2010-01-01T02:18:23.000Z</time>
</trkpt>
<trkpt lat="31.9425950" lon="34.9697784">
<ele>188.000000</ele>
<time>2010-01-01T02:18:28.000Z</time>
</trkpt>
<trkpt lat="31.9426198" lon="34.9696366">
<ele>187.000015</ele>
<time>2010-01-01T02:18:33.000Z</time>
</trkpt>
<trkpt lat="31.9426358" lon="34.9694957">
<ele>186.000000</ele>
<time>2010-01-01T02:18:37.000Z</time>
</trkpt>
<trkpt lat="31.9426539" lon="34.9693495">
<ele>186.000000</ele>
<time>2010-01-01T02:18:43.000Z</time>
</trkpt>
<trkpt lat="31.9426751" lon="34.9692007">
<ele>185.000000</ele>
<time>2010-01-01T02:18:48.000Z</time>
</trkpt>
<trkpt lat="31.9427054" lon="34.9690546">
<ele>185.000000</ele>
<time>2010-01-01T02:18:53.000Z</time>
</trkpt>
<trkpt lat="31.9427561" lon="34.9689179">
<ele>184.000000</ele>
<time>2010-01-01T02:18:58.000Z</time>
</trkpt>
<trkpt lat="31.9428196" lon="34.9687882">
<ele>183.000000</ele>
<time>2010-01-01T02:19:03.000Z</time>
</trkpt>
<trkpt lat="31.9428989" lon="34.9686709">
<ele>183.000000</ele>
<time>2010-01-01T02:19:08.000Z</time>
</trkpt>
<trkpt lat="31.9430035" lon="34.9685905">
<ele>183.000000</ele>
<time>2010-01-01T02:19:13.000Z</time>
</trkpt>
<trkpt lat="31.9431200" lon="34.9685564">
<ele>182.000000</ele>
<time>2010-01-01T02:19:18.000Z</time>
</trkpt>
<trkpt lat="31.9432455" lon="34.9685337">
<ele>180.000015</ele>
<time>2010-01-01T02:19:23.000Z</time>
</trkpt>
<trkpt lat="31.9433798" lon="34.9684983">
<ele>179.000000</ele>
<time>2010-01-01T02:19:28.000Z</time>
</trkpt>
<trkpt lat="31.9435255" lon="34.9684562">
<ele>178.000000</ele>
<time>2010-01-01T02:19:34.000Z</time>
</trkpt>
<trkpt lat="31.9436817" lon="34.9683964">
<ele>178.000000</ele>
<time>2010-01-01T02:19:41.000Z</time>
</trkpt>
<trkpt lat="31.9438274" lon="34.9682964">
<ele>178.000000</ele>
<time>2010-01-01T02:19:48.000Z</time>
</trkpt>
<trkpt lat="31.9439474" lon="34.9681540">
<ele>178.000000</ele>
<time>2010-01-01T02:19:55.000Z</time>
</trkpt>
<trkpt lat="31.9440387" lon="34.9679832">
<ele>178.000000</ele>
<time>2010-01-01T02:20:01.000Z</time>
</trkpt>
<trkpt lat="31.9441172" lon="34.9677989">
<ele>175.999985</ele>
<time>2010-01-01T02:20:08.000Z</time>
</trkpt>
<trkpt lat="31.9442050" lon="34.9676150">
<ele>175.999985</ele>
<time>2010-01-01T02:20:16.000Z</time>
</trkpt>
<trkpt lat="31.9442937" lon="34.9674296">
<ele>175.000000</ele>
<time>2010-01-01T02:20:23.000Z</time>
</trkpt>
<trkpt lat="31.9443359" lon="34.9673336">
<ele>174.000000</ele>
<time>2010-01-01T02:20:26.000Z</time>
</trkpt>
<trkpt lat="31.9444140" lon="34.9671337">
<ele>174.000000</ele>
<time>2010-01-01T02:20:34.000Z</time>
</trkpt>
<trkpt lat="31.9444457" lon="34.9670311">
<ele>173.000015</ele>
<time>2010-01-01T02:20:38.000Z</time>
</trkpt>
<trkpt lat="31.9444744" lon="34.9669279">
<ele>173.000015</ele>
<time>2010-01-01T02:20:41.000Z</time>
</trkpt>
<trkpt lat="31.9445040" lon="34.9668249">
<ele>172.000000</ele>
<time>2010-01-01T02:20:45.000Z</time>
</trkpt>
<trkpt lat="31.9445337" lon="34.9667230">
<ele>171.000000</ele>
<time>2010-01-01T02:20:49.000Z</time>
</trkpt>
<trkpt lat="31.9445638" lon="34.9666214">
<ele>170.000000</ele>
<time>2010-01-01T02:20:52.000Z</time>
</trkpt>
<trkpt lat="31.9446243" lon="34.9664204">
<ele>168.999985</ele>
<time>2010-01-01T02:21:00.000Z</time>
</trkpt>
<trkpt lat="31.9446956" lon="34.9662238">
<ele>168.000000</ele>
<time>2010-01-01T02:21:07.000Z</time>
</trkpt>
<trkpt lat="31.9447364" lon="34.9661270">
<ele>167.000000</ele>
<time>2010-01-01T02:21:11.000Z</time>
</trkpt>
<trkpt lat="31.9448156" lon="34.9659322">
<ele>166.000000</ele>
<time>2010-01-01T02:21:18.000Z</time>
</trkpt>
<trkpt lat="31.9448925" lon="34.9657398">
<ele>165.000000</ele>
<time>2010-01-01T02:21:25.000Z</time>
</trkpt>
<trkpt lat="31.9449724" lon="34.9655495">
<ele>164.000000</ele>
<time>2010-01-01T02:21:32.000Z</time>
</trkpt>
<trkpt lat="31.9450561" lon="34.9653781">
<ele>164.000000</ele>
<time>2010-01-01T02:21:39.000Z</time>
</trkpt>
<trkpt lat="31.9451471" lon="34.9652435">
<ele>165.000000</ele>
<time>2010-01-01T02:21:45.000Z</time>
</trkpt>
<trkpt lat="31.9452365" lon="34.9651822">
<ele>165.000000</ele>
<time>2010-01-01T02:21:49.000Z</time>
</trkpt>
<trkpt lat="31.9453286" lon="34.9652323">
<ele>166.000000</ele>
<time>2010-01-01T02:21:53.000Z</time>
</trkpt>
<trkpt lat="31.9454151" lon="34.9652955">
<ele>167.000000</ele>
<time>2010-01-01T02:21:57.000Z</time>
</trkpt>
<trkpt lat="31.9454975" lon="34.9653618">
<ele>167.000000</ele>
<time>2010-01-01T02:22:01.000Z</time>
</trkpt>
<trkpt lat="31.9455987" lon="34.9654310">
<ele>168.000000</ele>
<time>2010-01-01T02:22:06.000Z</time>
</trkpt>
<trkpt lat="31.9457041" lon="34.9654742">
<ele>168.000000</ele>
<time>2010-01-01T02:22:10.000Z</time>
</trkpt>
<trkpt lat="31.9458140" lon="34.9654956">
<ele>168.000000</ele>
<time>2010-01-01T02:22:15.000Z</time>
</trkpt>
<trkpt lat="31.9459074" lon="34.9654717">
<ele>168.000000</ele>
<time>2010-01-01T02:22:19.000Z</time>
</trkpt>
<trkpt lat="31.9459941" lon="34.9654235">
<ele>168.000000</ele>
<time>2010-01-01T02:22:22.000Z</time>
</trkpt>
<trkpt lat="31.9460728" lon="34.9653352">
<ele>168.999985</ele>
<time>2010-01-01T02:22:27.000Z</time>
</trkpt>
<trkpt lat="31.9460934" lon="34.9652338">
<ele>170.000000</ele>
<time>2010-01-01T02:22:30.000Z</time>
</trkpt>
<trkpt lat="31.9460919" lon="34.9651015">
<ele>173.000015</ele>
<time>2010-01-01T02:22:35.000Z</time>
</trkpt>
<trkpt lat="31.9460916" lon="34.9649859">
<ele>175.000000</ele>
<time>2010-01-01T02:22:39.000Z</time>
</trkpt>
<trkpt lat="31.9460895" lon="34.9648586">
<ele>175.999985</ele>
<time>2010-01-01T02:22:43.000Z</time>
</trkpt>
<trkpt lat="31.9460921" lon="34.9647285">
<ele>177.000000</ele>
<time>2010-01-01T02:22:47.000Z</time>
</trkpt>
<trkpt lat="31.9460931" lon="34.9646136">
<ele>178.000000</ele>
<time>2010-01-01T02:22:51.000Z</time>
</trkpt>
<trkpt lat="31.9460955" lon="34.9644952">
<ele>179.000000</ele>
<time>2010-01-01T02:22:55.000Z</time>
</trkpt>
<trkpt lat="31.9460993" lon="34.9643768">
<ele>180.000015</ele>
<time>2010-01-01T02:22:59.000Z</time>
</trkpt>
<trkpt lat="31.9461081" lon="34.9642680">
<ele>181.000000</ele>
<time>2010-01-01T02:23:03.000Z</time>
</trkpt>
<trkpt lat="31.9461120" lon="34.9641406">
<ele>182.000000</ele>
<time>2010-01-01T02:23:07.000Z</time>
</trkpt>
<trkpt lat="31.9461054" lon="34.9640064">
<ele>182.000000</ele>
<time>2010-01-01T02:23:12.000Z</time>
</trkpt>
<trkpt lat="31.9461088" lon="34.9638826">
<ele>182.000000</ele>
<time>2010-01-01T02:23:16.000Z</time>
</trkpt>
<trkpt lat="31.9461137" lon="34.9637529">
<ele>182.000000</ele>
<time>2010-01-01T02:23:21.000Z</time>
</trkpt>
<trkpt lat="31.9461185" lon="34.9636399">
<ele>182.000000</ele>
<time>2010-01-01T02:23:24.000Z</time>
</trkpt>
<trkpt lat="31.9461246" lon="34.9635096">
<ele>181.000000</ele>
<time>2010-01-01T02:23:29.000Z</time>
</trkpt>
<trkpt lat="31.9461275" lon="34.9634007">
<ele>181.000000</ele>
<time>2010-01-01T02:23:33.000Z</time>
</trkpt>
<trkpt lat="31.9461340" lon="34.9632652">
<ele>180.000015</ele>
<time>2010-01-01T02:23:37.000Z</time>
</trkpt>
<trkpt lat="31.9461377" lon="34.9631591">
<ele>180.000015</ele>
<time>2010-01-01T02:23:41.000Z</time>
</trkpt>
<trkpt lat="31.9461310" lon="34.9630478">
<ele>180.000015</ele>
<time>2010-01-01T02:23:45.000Z</time>
</trkpt>
<trkpt lat="31.9461301" lon="34.9629285">
<ele>180.000015</ele>
<time>2010-01-01T02:23:49.000Z</time>
</trkpt>
<trkpt lat="31.9461310" lon="34.9628052">
<ele>181.000000</ele>
<time>2010-01-01T02:23:53.000Z</time>
</trkpt>
<trkpt lat="31.9461177" lon="34.9626779">
<ele>182.000000</ele>
<time>2010-01-01T02:23:57.000Z</time>
</trkpt>
<trkpt lat="31.9461149" lon="34.9625529">
<ele>182.000000</ele>
<time>2010-01-01T02:24:01.000Z</time>
</trkpt>
<trkpt lat="31.9461500" lon="34.9625500">
<ele>182.000000</ele>
<time>2010-01-01T02:24:03.000Z</time>
</trkpt>
<trkpt lat="31.9461500" lon="34.9623700">
<ele>182.000000</ele>
<time>2010-01-01T02:24:09.000Z</time>
</trkpt>
<trkpt lat="31.9462400" lon="34.9623200">
<ele>181.000000</ele>
<time>2010-01-01T02:24:13.000Z</time>
</trkpt>
<trkpt lat="31.9463400" lon="34.9623000">
<ele>181.000000</ele>
<time>2010-01-01T02:24:17.000Z</time>
</trkpt>
<trkpt lat="31.9466700" lon="34.9622800">
<ele>179.000000</ele>
<time>2010-01-01T02:24:30.000Z</time>
</trkpt>
<trkpt lat="31.9469900" lon="34.9622300">
<ele>177.000000</ele>
<time>2010-01-01T02:24:43.000Z</time>
</trkpt>
<trkpt lat="31.9470200" lon="34.9621100">
<ele>177.000000</ele>
<time>2010-01-01T02:24:47.000Z</time>
</trkpt>
<trkpt lat="31.9469800" lon="34.9618400">
<ele>177.000000</ele>
<time>2010-01-01T02:24:57.000Z</time>
</trkpt>
<trkpt lat="31.9470400" lon="34.9616100">
<ele>175.999985</ele>
<time>2010-01-01T02:25:05.000Z</time>
</trkpt>
<trkpt lat="31.9471300" lon="34.9613700">
<ele>174.000000</ele>
<time>2010-01-01T02:25:14.000Z</time>
</trkpt>
<trkpt lat="31.9471500" lon="34.9611200">
<ele>171.000000</ele>
<time>2010-01-01T02:25:22.000Z</time>
</trkpt>
<trkpt lat="31.9471700" lon="34.9610200">
<ele>171.000000</ele>
<time>2010-01-01T02:25:26.000Z</time>
</trkpt>
<trkpt lat="31.9472400" lon="34.9608900">
<ele>170.000000</ele>
<time>2010-01-01T02:25:31.000Z</time>
</trkpt>
<trkpt lat="31.9474400" lon="34.9606100">
<ele>166.000000</ele>
<time>2010-01-01T02:25:44.000Z</time>
</trkpt>
<trkpt lat="31.9476100" lon="34.9601100">
<ele>160.000000</ele>
<time>2010-01-01T02:26:02.000Z</time>
</trkpt>
<trkpt lat="31.9476400" lon="34.9600800">
<ele>160.000000</ele>
<time>2010-01-01T02:26:03.000Z</time>
</trkpt>
<trkpt lat="31.9476400" lon="34.9600900">
<ele>160.000000</ele>
<time>2010-01-01T02:26:04.000Z</time>
</trkpt>
<trkpt lat="31.9476800" lon="34.9600600">
<ele>160.000000</ele>
<time>2010-01-01T02:26:06.000Z</time>
</trkpt>
<trkpt lat="31.9477700" lon="34.9600900">
<ele>160.000000</ele>
<time>2010-01-01T02:26:09.000Z</time>
</trkpt>
<trkpt lat="31.9479900" lon="34.9602400">
<ele>161.000000</ele>
<time>2010-01-01T02:26:20.000Z</time>
</trkpt>
<trkpt lat="31.9483100" lon="34.9604900">
<ele>161.999985</ele>
<time>2010-01-01T02:26:35.000Z</time>
</trkpt>
<trkpt lat="31.9489400" lon="34.9607400">
<ele>164.000000</ele>
<time>2010-01-01T02:27:02.000Z</time>
</trkpt>
<trkpt lat="31.9490100" lon="34.9607500">
<ele>164.000000</ele>
<time>2010-01-01T02:27:04.000Z</time>
</trkpt>
<trkpt lat="31.9490000" lon="34.9607500">
<ele>164.000000</ele>
<time>2010-01-01T02:27:05.000Z</time>
</trkpt>
<trkpt lat="31.9490800" lon="34.9607700">
<ele>164.000000</ele>
<time>2010-01-01T02:27:08.000Z</time>
</trkpt>
<trkpt lat="31.9494300" lon="34.9599600">
<ele>163.000000</ele>
<time>2010-01-01T02:27:39.000Z</time>
</trkpt>
<trkpt lat="31.9495700" lon="34.9597900">
<ele>164.000000</ele>
<time>2010-01-01T02:27:47.000Z</time>
</trkpt>
<trkpt lat="31.9497300" lon="34.9596600">
<ele>165.000000</ele>
<time>2010-01-01T02:27:55.000Z</time>
</trkpt>
<trkpt lat="31.9498700" lon="34.9595100">
<ele>165.000000</ele>
<time>2010-01-01T02:28:02.000Z</time>
</trkpt>
<trkpt lat="31.9503500" lon="34.9585400">
<ele>170.000000</ele>
<time>2010-01-01T02:28:40.000Z</time>
</trkpt>
<trkpt lat="31.9504200" lon="34.9582900">
<ele>170.000000</ele>
<time>2010-01-01T02:28:49.000Z</time>
</trkpt>
<trkpt lat="31.9506100" lon="34.9573700">
<ele>172.000000</ele>
<time>2010-01-01T02:29:22.000Z</time>
</trkpt>
<trkpt lat="31.9510500" lon="34.9554200">
<ele>168.999985</ele>
<time>2010-01-01T02:30:30.000Z</time>
</trkpt>
<trkpt lat="31.9507300" lon="34.9554300">
<ele>168.999985</ele>
<time>2010-01-01T02:30:43.000Z</time>
</trkpt>
<trkpt lat="31.9506300" lon="34.9553300">
<ele>168.999985</ele>
<time>2010-01-01T02:30:48.000Z</time>
</trkpt>
<trkpt lat="31.9506200" lon="34.9552800">
<ele>168.999985</ele>
<time>2010-01-01T02:30:50.000Z</time>
</trkpt>
<trkpt lat="31.9506200" lon="34.9552700">
<ele>168.000000</ele>
<time>2010-01-01T02:30:50.000Z</time>
</trkpt>
<trkpt lat="31.9505400" lon="34.9549300">
<ele>168.000000</ele>
<time>2010-01-01T02:31:02.000Z</time>
</trkpt>
<trkpt lat="31.9505400" lon="34.9546400">
<ele>167.000000</ele>
<time>2010-01-01T02:31:12.000Z</time>
</trkpt>
<trkpt lat="31.9506700" lon="34.9543400">
<ele>166.000000</ele>
<time>2010-01-01T02:31:23.000Z</time>
</trkpt>
<trkpt lat="31.9508800" lon="34.9540200">
<ele>164.000000</ele>
<time>2010-01-01T02:31:37.000Z</time>
</trkpt>
<trkpt lat="31.9511000" lon="34.9538900">
<ele>163.000000</ele>
<time>2010-01-01T02:31:47.000Z</time>
</trkpt>
<trkpt lat="31.9512800" lon="34.9537600">
<ele>163.000000</ele>
<time>2010-01-01T02:31:56.000Z</time>
</trkpt>
<trkpt lat="31.9515200" lon="34.9534800">
<ele>163.000000</ele>
<time>2010-01-01T02:32:09.000Z</time>
</trkpt>
<trkpt lat="31.9517500" lon="34.9533000">
<ele>161.999985</ele>
<time>2010-01-01T02:32:20.000Z</time>
</trkpt>
<trkpt lat="31.9518100" lon="34.9531900">
<ele>161.999985</ele>
<time>2010-01-01T02:32:25.000Z</time>
</trkpt>
<trkpt lat="31.9518500" lon="34.9530400">
<ele>161.000000</ele>
<time>2010-01-01T02:32:30.000Z</time>
</trkpt>
<trkpt lat="31.9518700" lon="34.9528500">
<ele>160.000000</ele>
<time>2010-01-01T02:32:36.000Z</time>
</trkpt>
<trkpt lat="31.9518700" lon="34.9526700">
<ele>159.000000</ele>
<time>2010-01-01T02:32:42.000Z</time>
</trkpt>
<trkpt lat="31.9518500" lon="34.9525200">
<ele>158.000000</ele>
<time>2010-01-01T02:32:48.000Z</time>
</trkpt>
<trkpt lat="31.9518100" lon="34.9524400">
<ele>158.000000</ele>
<time>2010-01-01T02:32:51.000Z</time>
</trkpt>
<trkpt lat="31.9516300" lon="34.9522300">
<ele>155.000000</ele>
<time>2010-01-01T02:33:01.000Z</time>
</trkpt>
<trkpt lat="31.9515500" lon="34.9520600">
<ele>154.000000</ele>
<time>2010-01-01T02:33:08.000Z</time>
</trkpt>
<trkpt lat="31.9515200" lon="34.9519700">
<ele>153.000000</ele>
<time>2010-01-01T02:33:11.000Z</time>
</trkpt>
<trkpt lat="31.9515300" lon="34.9517600">
<ele>151.000000</ele>
<time>2010-01-01T02:33:18.000Z</time>
</trkpt>
<trkpt lat="31.9515600" lon="34.9516000">
<ele>149.000000</ele>
<time>2010-01-01T02:33:24.000Z</time>
</trkpt>
<trkpt lat="31.9516900" lon="34.9513800">
<ele>150.000000</ele>
<time>2010-01-01T02:33:33.000Z</time>
</trkpt>
<trkpt lat="31.9517100" lon="34.9512400">
<ele>150.000000</ele>
<time>2010-01-01T02:33:37.000Z</time>
</trkpt>
<trkpt lat="31.9516900" lon="34.9511700">
<ele>150.000000</ele>
<time>2010-01-01T02:33:40.000Z</time>
</trkpt>
<trkpt lat="31.9515500" lon="34.9509800">
<ele>150.000000</ele>
<time>2010-01-01T02:33:49.000Z</time>
</trkpt>
<trkpt lat="31.9513400" lon="34.9508600">
<ele>149.000000</ele>
<time>2010-01-01T02:33:58.000Z</time>
</trkpt>
<trkpt lat="31.9513700" lon="34.9502600">
<ele>154.000000</ele>
<time>2010-01-01T02:34:18.000Z</time>
</trkpt>
<trkpt lat="31.9513500" lon="34.9501300">
<ele>155.000000</ele>
<time>2010-01-01T02:34:23.000Z</time>
</trkpt>
<trkpt lat="31.9513100" lon="34.9500200">
<ele>155.000000</ele>
<time>2010-01-01T02:34:27.000Z</time>
</trkpt>
<trkpt lat="31.9511900" lon="34.9498600">
<ele>155.000000</ele>
<time>2010-01-01T02:34:34.000Z</time>
</trkpt>
<trkpt lat="31.9510800" lon="34.9497500">
<ele>154.000000</ele>
<time>2010-01-01T02:34:40.000Z</time>
</trkpt>
<trkpt lat="31.9508500" lon="34.9496200">
<ele>152.000000</ele>
<time>2010-01-01T02:34:50.000Z</time>
</trkpt>
<trkpt lat="31.9503000" lon="34.9491400">
<ele>150.000000</ele>
<time>2010-01-01T02:35:17.000Z</time>
</trkpt>
<trkpt lat="31.9502000" lon="34.9490400">
<ele>149.000000</ele>
<time>2010-01-01T02:35:23.000Z</time>
</trkpt>
<trkpt lat="31.9501900" lon="34.9490400">
<ele>149.000000</ele>
<time>2010-01-01T02:35:23.000Z</time>
</trkpt>
<trkpt lat="31.9501100" lon="34.9489400">
<ele>148.000000</ele>
<time>2010-01-01T02:35:28.000Z</time>
</trkpt>
<trkpt lat="31.9500300" lon="34.9488000">
<ele>148.000000</ele>
<time>2010-01-01T02:35:34.000Z</time>
</trkpt>
<trkpt lat="31.9499800" lon="34.9485500">
<ele>149.000000</ele>
<time>2010-01-01T02:35:42.000Z</time>
</trkpt>
<trkpt lat="31.9499200" lon="34.9481300">
<ele>149.000000</ele>
<time>2010-01-01T02:35:57.000Z</time>
</trkpt>
<trkpt lat="31.9499300" lon="34.9476200">
<ele>150.000000</ele>
<time>2010-01-01T02:36:14.000Z</time>
</trkpt>
<trkpt lat="31.9498900" lon="34.9475000">
<ele>149.000000</ele>
<time>2010-01-01T02:36:18.000Z</time>
</trkpt>
<trkpt lat="31.9497600" lon="34.9472900">
<ele>146.000000</ele>
<time>2010-01-01T02:36:27.000Z</time>
</trkpt>
<trkpt lat="31.9497200" lon="34.9471700">
<ele>146.000000</ele>
<time>2010-01-01T02:36:32.000Z</time>
</trkpt>
<trkpt lat="31.9497300" lon="34.9470500">
<ele>146.000000</ele>
<time>2010-01-01T02:36:36.000Z</time>
</trkpt>
<trkpt lat="31.9497500" lon="34.9470100">
<ele>147.000000</ele>
<time>2010-01-01T02:36:37.000Z</time>
</trkpt>
<trkpt lat="31.9498700" lon="34.9468500">
<ele>148.000000</ele>
<time>2010-01-01T02:36:45.000Z</time>
</trkpt>
<trkpt lat="31.9499000" lon="34.9467800">
<ele>148.000000</ele>
<time>2010-01-01T02:36:47.000Z</time>
</trkpt>
<trkpt lat="31.9499100" lon="34.9466500">
<ele>146.000000</ele>
<time>2010-01-01T02:36:52.000Z</time>
</trkpt>
<trkpt lat="31.9498300" lon="34.9464100">
<ele>143.000000</ele>
<time>2010-01-01T02:37:00.000Z</time>
</trkpt>
<trkpt lat="31.9497700" lon="34.9460300">
<ele>141.000000</ele>
<time>2010-01-01T02:37:14.000Z</time>
</trkpt>
<trkpt lat="31.9494700" lon="34.9454500">
<ele>138.000000</ele>
<time>2010-01-01T02:37:37.000Z</time>
</trkpt>
<trkpt lat="31.9494300" lon="34.9453300">
<ele>137.000000</ele>
<time>2010-01-01T02:37:41.000Z</time>
</trkpt>
<trkpt lat="31.9494000" lon="34.9450800">
<ele>132.000000</ele>
<time>2010-01-01T02:37:50.000Z</time>
</trkpt>
<trkpt lat="31.9494100" lon="34.9449500">
<ele>130.000000</ele>
<time>2010-01-01T02:37:54.000Z</time>
</trkpt>
<trkpt lat="31.9496500" lon="34.9447400">
<ele>129.000000</ele>
<time>2010-01-01T02:38:06.000Z</time>
</trkpt>
<trkpt lat="31.9497300" lon="34.9446700">
<ele>127.000000</ele>
<time>2010-01-01T02:38:10.000Z</time>
</trkpt>
<trkpt lat="31.9500200" lon="34.9446000">
<ele>125.000000</ele>
<time>2010-01-01T02:38:22.000Z</time>
</trkpt>
<trkpt lat="31.9502900" lon="34.9444400">
<ele>121.000000</ele>
<time>2010-01-01T02:38:34.000Z</time>
</trkpt>
<trkpt lat="31.9504800" lon="34.9442600">
<ele>118.000000</ele>
<time>2010-01-01T02:38:44.000Z</time>
</trkpt>
<trkpt lat="31.9505500" lon="34.9441100">
<ele>116.000000</ele>
<time>2010-01-01T02:38:49.000Z</time>
</trkpt>
<trkpt lat="31.9506000" lon="34.9438000">
<ele>116.000000</ele>
<time>2010-01-01T02:39:00.000Z</time>
</trkpt>
<trkpt lat="31.9507400" lon="34.9435200">
<ele>119.000000</ele>
<time>2010-01-01T02:39:11.000Z</time>
</trkpt>
<trkpt lat="31.9507700" lon="34.9433000">
<ele>122.000008</ele>
<time>2010-01-01T02:39:19.000Z</time>
</trkpt>
<trkpt lat="31.9507800" lon="34.9430100">
<ele>125.000000</ele>
<time>2010-01-01T02:39:29.000Z</time>
</trkpt>
<trkpt lat="31.9507500" lon="34.9427500">
<ele>126.000000</ele>
<time>2010-01-01T02:39:38.000Z</time>
</trkpt>
<trkpt lat="31.9507500" lon="34.9424900">
<ele>126.000000</ele>
<time>2010-01-01T02:39:46.000Z</time>
</trkpt>
<trkpt lat="31.9507300" lon="34.9424100">
<ele>127.000000</ele>
<time>2010-01-01T02:39:49.000Z</time>
</trkpt>
<trkpt lat="31.9506500" lon="34.9422200">
<ele>128.000000</ele>
<time>2010-01-01T02:39:56.000Z</time>
</trkpt>
<trkpt lat="31.9506400" lon="34.9420500">
<ele>127.000000</ele>
<time>2010-01-01T02:40:02.000Z</time>
</trkpt>
<trkpt lat="31.9506600" lon="34.9419600">
<ele>127.000000</ele>
<time>2010-01-01T02:40:05.000Z</time>
</trkpt>
<trkpt lat="31.9507700" lon="34.9416500">
<ele>126.000000</ele>
<time>2010-01-01T02:40:17.000Z</time>
</trkpt>
<trkpt lat="31.9509300" lon="34.9414800">
<ele>126.000000</ele>
<time>2010-01-01T02:40:25.000Z</time>
</trkpt>
<trkpt lat="31.9509600" lon="34.9413600">
<ele>125.000000</ele>
<time>2010-01-01T02:40:30.000Z</time>
</trkpt>
<trkpt lat="31.9509600" lon="34.9412300">
<ele>125.000000</ele>
<time>2010-01-01T02:40:34.000Z</time>
</trkpt>
<trkpt lat="31.9509300" lon="34.9411100">
<ele>125.000000</ele>
<time>2010-01-01T02:40:38.000Z</time>
</trkpt>
<trkpt lat="31.9507600" lon="34.9407300">
<ele>122.000008</ele>
<time>2010-01-01T02:40:53.000Z</time>
</trkpt>
<trkpt lat="31.9506700" lon="34.9406600">
<ele>122.000008</ele>
<time>2010-01-01T02:40:57.000Z</time>
</trkpt>
<trkpt lat="31.9504600" lon="34.9406200">
<ele>123.000000</ele>
<time>2010-01-01T02:41:06.000Z</time>
</trkpt>
<trkpt lat="31.9499300" lon="34.9404700">
<ele>124.000000</ele>
<time>2010-01-01T02:41:28.000Z</time>
</trkpt>
<trkpt lat="31.9498200" lon="34.9404600">
<ele>123.000000</ele>
<time>2010-01-01T02:41:32.000Z</time>
</trkpt>
<trkpt lat="31.9494900" lon="34.9405200">
<ele>122.000008</ele>
<time>2010-01-01T02:41:45.000Z</time>
</trkpt>
<trkpt lat="31.9493300" lon="34.9406000">
<ele>122.000008</ele>
<time>2010-01-01T02:41:52.000Z</time>
</trkpt>
<trkpt lat="31.9492200" lon="34.9406200">
<ele>122.000008</ele>
<time>2010-01-01T02:41:57.000Z</time>
</trkpt>
<trkpt lat="31.9490700" lon="34.9406400">
<ele>122.000008</ele>
<time>2010-01-01T02:42:03.000Z</time>
</trkpt>
<trkpt lat="31.9489700" lon="34.9406200">
<ele>122.000008</ele>
<time>2010-01-01T02:42:07.000Z</time>
</trkpt>
<trkpt lat="31.9489000" lon="34.9406000">
<ele>122.000008</ele>
<time>2010-01-01T02:42:10.000Z</time>
</trkpt>
<trkpt lat="31.9487300" lon="34.9404400">
<ele>121.000000</ele>
<time>2010-01-01T02:42:18.000Z</time>
</trkpt>
<trkpt lat="31.9486000" lon="34.9402500">
<ele>122.000008</ele>
<time>2010-01-01T02:42:27.000Z</time>
</trkpt>
<trkpt lat="31.9486200" lon="34.9401900">
<ele>123.000000</ele>
<time>2010-01-01T02:42:29.000Z</time>
</trkpt>
<trkpt lat="31.9486800" lon="34.9400000">
<ele>124.000000</ele>
<time>2010-01-01T02:42:36.000Z</time>
</trkpt>
<trkpt lat="31.9486700" lon="34.9400000">
<ele>124.000000</ele>
<time>2010-01-01T02:42:36.000Z</time>
</trkpt>
<trkpt lat="31.9489200" lon="34.9391700">
<ele>123.000000</ele>
<time>2010-01-01T02:43:06.000Z</time>
</trkpt>
<trkpt lat="31.9486391" lon="34.9391895">
<ele>129.000000</ele>
<time>2010-01-01T02:43:17.000Z</time>
</trkpt>
<trkpt lat="31.9486528" lon="34.9391520">
<ele>129.000000</ele>
<time>2010-01-01T02:43:19.000Z</time>
</trkpt>
</trkseg>
</trk>
</gpx>
